[[{"header":{"parameterUnit":"m.s-1","parameterCategory":1,"la1":31.0,"la2":29.5877,"lo1":-88.7671,"lo2":-86.6584,"dy":0.0162,"dx":0.0185,"nx":115,"ny":88,"refTime":"2026-05-14T12:00:00:Z","depth":0,"parameterNumber":2,"parameterNumberName":"U-component_of_WINDS"},"data":[0.0,0.0,0.0,0.0,0.0,0.0,0.0,0.0,0.0,0.0,0.0,0.0,0.0,0.0,0.0,0.0,0.0,0.0,0.0,0.0,0.0,0.0,0.0,0.0,0.0,0.0,0.0,0.0,0.0,0.0,0.0,0.0,0.0,0.0,0.0,0.0,0.0,0.0,0.0,0.0,0.0,0.0,0.0,0.0,0.0,0.0,0.0,0.0,0.0,0.0,0.0,0.0,0.0,0.0,0.0,0.0,0.0,0.0,0.0,0.0,0.0,0.0,0.0,0.0,0.0,0.0,0.0,0.0,0.0,0.0,0.0,0.0,0.0,0.0,0.0,0.0,0.0,0.0,0.0,0.0,0.0,0.0,0.0,0.0,0.0,0.0,0.0,0.0,0.0,0.0,0.0,0.0,0.0,0.0,0.0,0.0,0.0,0.0,0.0,0.0,0.0,0.0,0.0,0.0,0.0,0.0,0.0,0.0,0.0,0.0,0.0,0.0,0.0,0.0,0.0,0.0,0.0,0.0,0.0,0.0,0.0,0.0,0.0,0.0,0.0,0.0,0.0,0.0,0.0,0.0,0.0,0.0,0.0,0.0,0.0,0.0,0.0,0.0,0.0,0.0,0.0,0.0,0.0,0.0,0.0,0.0,0.0,0.0,0.0,0.0,0.0,0.0,0.0,0.0,0.0,0.0,0.0,0.0,0.0,0.0,0.0,0.0,0.0,0.0,0.0,0.0,0.0,0.0,0.0,0.0,0.0,0.0,0.0,0.0,0.0,0.0,0.0,0.0,0.0,0.0,0.0,0.0,0.0,0.0,0.0,0.0,0.0,0.0,0.0,0.0,0.0,0.0,0.0,0.0,0.0,0.0,0.0,0.0,0.0,0.0,0.0,0.0,0.0,0.0,0.0,0.0,0.0,0.0,0.0,0.0,0.0,0.0,0.0,0.0,0.0,0.0,0.0,0.0,0.0,0.0,0.0,0.0,0.0,0.0,0.0,0.0,0.0,0.0,0.0,0.0,0.0,0.0,0.0,0.0,0.0,0.0,0.0,0.0,0.0,0.0,0.0,0.0,0.0,0.0,0.0,0.0,0.0,0.0,0.0,0.0,0.0,0.0,0.0,0.0,0.0,0.0,0.0,0.0,0.0,0.0,0.0,0.0,0.0,0.0,0.0,0.0,0.0,0.0,0.0,0.0,0.0,0.0,0.0,0.0,0.0,0.0,0.0,0.0,0.0,0.0,0.0,0.0,0.0,0.0,0.0,0.0,0.0,0.0,0.0,0.0,0.0,0.0,0.0,0.0,0.0,0.0,0.0,0.0,0.0,0.0,0.0,0.0,0.0,0.0,0.0,0.0,0.0,0.0,0.0,0.0,0.0,0.0,0.0,0.0,0.0,0.0,0.0,0.0,0.0,0.0,0.0,0.0,0.0,0.0,0.0,0.0,0.0,0.0,0.0,0.0,0.0,0.0,0.0,0.0,0.0,0.0,0.0,0.0,0.0,0.0,0.0,0.0,0.0,0.0,0.0,0.0,0.0,0.0,0.0,0.0,0.0,0.0,0.0,0.0,0.0,0.0,0.0,0.0,0.0,0.0,0.0,0.0,0.0,0.0,0.0,0.0,0.0,0.0,0.0,0.0,0.0,0.0,0.0,0.0,0.0,0.0,0.0,0.0,0.0,0.0,0.0,0.0,0.0,0.0,0.0,0.0,0.0,0.0,0.0,0.0,0.0,0.0,0.0,0.0,0.0,0.0,0.0,0.0,0.0,0.0,0.0,0.0,0.0,0.0,0.0,0.0,0.0,0.0,0.0,0.0,0.0,0.0,0.0,0.0,0.0,0.0,0.0,0.0,0.0,0.0,0.0,0.0,0.0,0.0,0.0,0.0,0.0,0.0,0.0,0.0,0.0,0.0,0.0,0.0,0.0,0.0,0.0,0.0,0.0,0.0,0.0,0.0,0.0,0.0,0.0,0.0,0.0,0.0,0.0,0.0,0.0,0.0,0.0,0.0,0.0,0.0,0.0,0.0,0.0,0.0,0.0,0.0,0.0,0.0,0.0,0.0,0.0,0.0,0.0,0.0,0.0,0.0,0.0,0.0,0.0,0.0,0.0,0.0,0.0,0.0,0.0,0.0,0.0,0.0,0.0,0.0,0.0,0.0,0.0,0.0,0.0,0.0,0.0,0.0,0.0,0.0,0.0,0.0,0.0,0.0,0.0,0.0,0.0,0.0,0.0,0.0,0.0,0.0,0.0,0.0,0.0,0.0,0.0,0.0,0.0,0.0,0.0,0.0,0.0,0.0,0.0,0.0,0.0,0.0,0.0,0.0,0.0,0.0,0.0,0.0,0.0,0.0,0.0,0.0,0.0,0.0,0.0,0.0,0.0,0.0,0.0,0.0,0.0,0.0,0.0,0.0,0.0,0.0,0.0,0.0,0.0,0.0,0.0,0.0,0.0,0.0,0.0,0.0,0.0,0.0,0.0,0.0,0.0,0.0,0.0,0.0,0.0,0.0,0.0,0.0,0.0,0.0,0.0,0.0,0.0,0.0,0.0,0.0,0.0,0.0,0.0,0.0,0.0,0.0,0.0,0.0,0.0,0.0,0.0,0.0,0.0,0.0,0.0,0.0,0.0,0.0,0.0,0.0,0.0,0.0,0.0,0.0,0.0,0.0,0.0,0.0,0.0,0.0,0.0,0.0,0.0,0.0,0.0,0.0,0.0,0.0,0.0,0.0,0.0,0.0,0.0,0.0,0.0,0.0,0.0,0.0,0.0,0.0,0.0,0.0,0.0,0.0,0.0,0.0,0.0,0.0,0.0,0.0,0.0,0.0,0.0,0.0,0.0,0.0,0.0,0.0,0.0,0.0,0.0,0.0,0.0,0.0,0.0,0.0,0.0,0.0,0.0,0.0,0.0,0.0,0.0,0.0,0.0,0.0,0.0,0.0,0.0,0.0,0.0,0.0,0.0,0.0,0.0,0.0,0.0,0.0,0.0,0.0,0.0,0.0,0.0,0.0,0.0,0.0,0.0,0.0,0.0,0.0,0.0,0.0,0.0,0.0,0.0,0.0,0.0,0.0,0.0,0.0,0.0,0.0,0.0,0.0,0.0,0.0,0.0,0.0,0.0,0.0,0.0,0.0,0.0,0.0,0.0,0.0,0.0,0.0,0.0,0.0,0.0,0.0,0.0,0.0,0.0,0.0,0.0,0.0,0.0,0.0,0.0,0.0,0.0,0.0,0.0,0.0,0.0,0.0,0.0,0.0,0.0,0.0,0.0,0.0,0.0,0.0,0.0,0.0,0.0,0.0,0.0,0.0,0.0,0.0,0.0,0.0,0.0,0.0,0.0,0.0,0.0,0.0,0.0,0.0,0.0,0.0,0.0,0.0,0.0,0.0,0.0,0.0,0.0,0.0,0.0,0.0,0.0,0.0,0.0,0.0,0.0,0.0,0.0,0.0,0.0,0.0,0.0,0.0,0.0,0.0,0.0,0.0,0.0,0.0,0.0,0.0,0.0,0.0,0.0,0.0,0.0,0.0,0.0,0.0,0.0,0.0,0.0,0.0,0.0,0.0,0.0,0.0,0.0,0.0,0.0,0.0,0.0,0.0,0.0,0.0,0.0,0.0,0.0,0.0,0.0,0.0,0.0,0.0,0.0,0.0,0.0,0.0,0.0,0.0,0.0,0.0,0.0,0.0,0.0,0.0,0.0,0.0,0.0,0.0,0.0,0.0,0.0,0.0,0.0,0.0,0.0,0.0,0.0,0.0,0.0,0.0,0.0,0.0,0.0,0.0,0.0,0.0,0.0,0.0,0.0,0.0,0.0,0.0,0.0,0.0,0.0,0.0,0.0,0.0,0.0,0.0,0.0,0.0,0.0,0.0,0.0,0.0,0.0,0.0,0.0,0.0,0.0,0.0,0.0,0.0,0.0,0.0,0.0,0.0,0.0,0.0,0.0,0.0,0.0,0.0,0.0,0.0,0.0,0.0,0.0,0.0,0.0,0.0,0.0,0.0,0.0,0.0,0.0,0.0,0.0,0.0,0.0,0.0,0.0,0.0,0.0,0.0,0.0,0.0,0.0,0.0,0.0,0.0,0.0,0.0,0.0,0.0,0.0,0.0,0.0,0.0,0.0,0.0,0.0,0.0,0.0,0.0,0.0,0.0,0.0,0.0,0.0,0.0,0.0,0.0,0.0,0.0,0.0,0.0,0.0,0.0,0.0,0.0,0.0,0.0,0.0,0.0,0.0,0.0,0.0,0.0,0.0,0.0,0.0,0.0,0.0,0.0,0.0,0.0,0.0,0.0,0.0,0.0,0.0,0.0,0.0,0.0,0.0,0.0,0.0,0.0,0.0,0.0,0.0,0.0,0.0,0.0,0.0,0.0,0.0,0.0,0.0,0.0,0.0,0.0,0.0,0.0,0.0,0.0,0.0,0.0,0.0,0.0,0.0,0.0,0.0,0.0,0.0,0.0,0.0,0.0,0.0,0.0,0.0,0.0,0.0,0.0,0.0,0.0,0.0,0.0,0.0,0.0,0.0,0.0,0.0,0.0,0.0,0.0,0.0,0.0,0.0,0.0,0.0,0.0,0.0,0.0,0.0,0.0,0.0,0.0,0.0,0.0,0.0,0.0,0.0,0.0,0.0,0.0,0.0,0.0,0.0,0.0,0.0,0.0,0.0,0.0,0.0,0.0,0.0,0.0,0.0,0.0,0.0,0.0,0.0,0.0,0.0,0.0,0.0,0.0,0.0,0.0,0.0,0.0,0.0,0.0,0.0,0.0,0.0,0.0,0.0,0.0,0.0,0.0,0.0,0.0,0.0,0.0,0.0,0.0,0.0,0.0,0.0,0.0,0.0,0.0,0.0,0.0,0.0,0.0,0.0,0.0,0.0,0.0,0.0,0.0,0.0,0.0,0.0,0.0,0.0,0.0,0.0,0.0,0.0,0.0,0.0,0.0,0.0,0.0,0.0,0.0,0.0,0.0,0.0,0.0,0.0,0.0,0.0,0.0,0.0,0.0,0.0,0.0,0.0,0.0,0.0,0.0,0.0,0.0,0.0,0.0,0.0,0.0,0.0,0.0,0.0,0.0,0.0,0.0,0.0,0.0,0.0,0.0,0.0,0.0,0.0,0.0,0.0,0.0,0.0,0.0,0.0,0.0,0.0,0.0,0.0,0.0,0.0,0.0,0.0,0.0,0.0,0.0,0.0,0.0,0.0,0.0,0.0,0.0,0.0,0.0,0.0,0.0,0.0,0.0,0.0,0.0,0.0,0.0,-0.0009,0.0,0.0,0.0,0.0,0.0,0.0,0.0,0.0,0.0,0.0,0.0,0.0,0.0,0.0,0.0,0.0,0.0,0.0,0.0,0.0,0.0,0.0,0.0,0.0,0.0,0.0,0.0,0.0,0.0,0.0,0.0,0.0,0.0,0.0,0.0,0.0,0.0,0.0,0.0,0.0,0.0,0.0,0.0,0.0,0.0,0.0,0.0,0.0,0.0,0.0,0.0,0.0,0.0,0.0,0.0,0.0,0.0,0.0,0.0,0.0,0.0,0.0,0.0,0.0,0.0,0.0,0.0,0.0,0.0,0.0,0.0,0.0,0.0,0.0,0.0,0.0,0.0,0.0,0.0,0.0,0.0,0.0,0.0,0.0,0.0,0.0,0.0,0.0,0.0,0.0,0.0,0.0,0.0,0.0,0.0,0.0,0.0,0.0,0.0,0.0,0.0,0.0,0.0,0.0,0.0,0.0,0.0,0.0,0.0,0.0,0.0,0.0,-0.0177,-0.0175,-0.0072,0.0,0.0,0.0,0.0,0.0,0.0,0.0,0.0,0.0,0.0,0.0,0.0,0.0,0.0,0.0,0.0,0.0,0.0,0.0,0.0,0.0,0.0,0.0,0.0,0.0,0.0,0.0,0.0,0.0,0.0,0.0,0.0,0.0,0.0,0.0,0.0,0.0,0.0,0.0,0.0,0.0,0.0,0.0,0.0,0.0,0.0,0.0,0.0,0.0,0.0,0.0,0.0,0.0,0.0,0.0,0.0,0.0,0.0,0.0,0.0,0.0,0.0,0.0,0.0,0.0,0.0,0.0,0.0,0.0,0.0,0.0,0.0,0.0,0.0,0.0,0.0,0.0,0.0,0.0,0.0,0.0,0.0,0.0,0.0,0.0,0.0,0.0,0.0,0.0,0.0,0.0,0.0,0.0,0.0,0.0,0.0,0.0,0.0,0.0,0.0,0.0,0.0,0.0,0.0,0.0,0.0,0.0,0.0,0.0,0.0,0.0,0.0,-0.3151,-0.4729,-0.1676,0.0,0.0,0.0,0.0,0.0,0.0,0.0,0.0,0.0,0.0,0.0,0.0,0.0,0.0,0.0,0.0,0.0,0.0,0.0,0.0,0.0,0.0,0.0,0.0,0.0,0.0,0.0,0.0,0.0,0.0,0.0,0.0,0.0,0.0,0.0,0.0,0.0,0.0,0.0,0.0,0.0,0.0,0.0,0.0,0.0,0.0,0.0,0.0,0.0,0.0,0.0,0.0,0.0,0.0,0.0,0.0,0.0,0.0,0.0,0.0,0.0,0.0,0.0,0.0,0.0,0.0,0.0,0.0,0.0,0.0,0.0,0.0,0.0,0.0,0.0,0.0,0.0,0.0,0.0,0.0,0.0,0.0,0.0,0.0,0.0,0.0,0.0,0.0,0.0,0.0,0.0,0.0,0.0,0.0,0.0,0.0,0.0,0.0,0.0,0.0,0.0,0.0,0.0,0.0,0.0,0.0,0.0,0.0,0.0,0.0,0.0,-0.3518,0.0,-0.5527,-0.2407,-0.0402,0.0,0.0,0.0,0.0,0.0,0.0,0.0,0.0,0.0,0.0,0.0,0.0,0.0,0.0,0.0,0.0,0.0,0.0,0.0,0.0,0.0,0.0,0.0,0.0,0.0,0.0,0.0,0.0,0.0,0.0,0.0,0.0,0.0,0.0,0.0,0.0,0.0,0.0,0.0,0.0,0.0,0.0,0.0,0.0,0.0,0.0,0.0,0.0,0.0,0.0,0.0,0.0,0.0,0.0,0.0,0.0,0.0,0.0,0.0,0.0,0.0,0.0,0.0,0.0,0.0,0.0,0.0,0.0,0.0,0.0,0.0,0.0,0.0,0.0,0.0,0.0,0.0,0.0,0.0,0.0,0.0,0.0,0.0,0.0,0.0,0.0,0.0,0.0,0.0,0.0,0.0,0.0,0.0,0.0,0.0,0.0,0.0,0.0,0.0,0.0,0.0,0.0,0.0,0.0,0.0,0.0,0.0,0.0,0.0,0.0,-0.2586,-0.282,-0.0851,-0.152,-0.1404,0.0,0.0,0.0,0.0,0.0,0.0,0.0,0.0,0.0,0.0,0.0,0.0,0.0,0.0,0.0,0.0,0.0,0.0,0.0,0.0,0.0,0.0,0.0,0.0,0.0,0.0,0.0,0.0,0.0,0.0,0.0,0.0,0.0,0.0,0.0,0.0,0.0,0.0,0.0,0.0,0.0,0.0,0.0,0.0,0.0,0.0,0.0,0.0,0.0,0.0,0.0,0.0,0.0,0.0,0.0,0.0,0.0,0.0,0.0,0.0,0.0,0.0,0.0,0.0,0.0,0.0,0.0,0.0,0.0,0.0,0.0,0.0,0.0,0.0,0.0,0.0,0.0,0.0,0.0,0.0,0.0,0.0,0.0,0.0,0.0,0.0,0.0,0.0,0.0,0.0,0.0,0.0,0.0,0.0,0.0,0.0,0.0,0.0,0.0,0.0,0.0,0.0,0.0,0.0,0.0,0.0,0.0,0.0,0.0,0.0,-0.0924,-0.1783,-0.2574,-0.4677,-0.4773,0.0,0.0,0.0,0.0,0.0,0.0,0.0,0.0,0.0,0.0,0.0,0.0,0.0,0.0,0.0,0.0,0.0,0.0,0.0,0.0,0.0,0.0,0.0,0.0,0.0,0.0,0.0,0.0,0.0,0.0,0.0,0.0,0.0,0.0,0.0,0.0,0.0,0.0,0.0,0.0,0.0,0.0,0.0,0.0,0.0,0.0,0.0,0.0,0.0,0.0,0.0,0.0,0.0,0.0,0.0,0.0,0.0,0.0,0.0,0.0,0.0,0.0,0.0,0.0,0.0,0.0,0.0,0.0,0.0,0.0,0.0,0.0,0.0,0.0,0.0,0.0,0.0,0.0,0.0,0.0,0.0,0.0,0.0,0.0,0.0,0.0,0.0,0.0,0.0,0.0,0.0,0.0,0.0,0.0,0.0,0.0,0.0,0.0,0.0,0.0,0.0,0.0,0.0,0.0,0.0,0.0,0.0,0.0,0.0,-0.1234,0.0,-0.1723,0.0,-0.4812,-0.4937,0.0,0.0,0.0,0.0,0.0,0.0,0.0,0.0,0.0,0.0,0.0,0.0,0.0,0.0,0.0,0.0,0.0,0.0,0.0,0.0,0.0,0.0,0.0,0.0,0.0,0.0,0.0,0.0,0.0,0.0,0.0,0.0,0.0,0.0,0.0,0.0,0.0,0.0,0.0,0.0,0.0,0.0,0.0,0.0,0.0,0.0,0.0,0.0,0.0,0.0,0.0,0.0,0.0,0.0,0.0,0.0,0.0,0.0,0.0,0.0,0.0,0.0,0.0,0.0,0.0,0.0,0.0,0.0,0.0,0.0,0.0,0.0,0.0,0.0,0.0,0.0,0.0,0.0,0.0,0.0,0.0,0.0,0.0,0.0,0.0,0.0,0.0,0.0,0.0,0.0,0.0,0.0,0.0,0.0,0.0,0.0,0.0,0.0,0.0,0.0,0.0,0.0,0.0,0.0,0.0,0.0,0.0,0.0,-0.3752,-0.3796,-0.3778,-0.266,-0.0228,-0.1474,-0.1428,0.0,0.0,0.0,0.0,0.0,0.0,0.0,0.0,0.0,0.0,0.0,0.0,0.0,0.0,0.0,0.0,0.0,0.0,0.0,0.0,0.0,0.0,0.0,0.0,0.0,0.0,0.0,0.0,0.0,0.0,0.0,0.0,0.0,0.0,0.0,0.0,0.0,0.0,0.0,0.0,0.0,0.0,0.0,0.0,0.0,0.0,0.0,0.0,0.0,0.0,0.0,0.0,0.0,0.0,0.0,0.0,0.0,0.0,0.0,0.0,0.0,0.0,0.0,0.0,0.0,0.0,0.0,0.0,0.0,0.0,0.0,0.0,0.0,0.0,0.0,0.0,0.0,0.0,0.0,0.0,0.0,0.0,0.0,0.0,0.0,0.0,0.0,0.0,0.0,0.0,0.0,0.0,0.0,0.0,0.0,0.0,0.0,0.0,0.0,0.0,0.0,0.0,0.0,0.0,0.0,0.0,0.0,0.0,0.0,-0.5074,-0.4261,-0.346,-0.2623,-0.1301,-0.0415,0.0,0.0,0.0,0.0,0.0,0.0,0.0,0.0,0.0,0.0,0.0,0.0,0.0,0.0,0.0,0.0,0.0,0.0,0.0,0.0,0.0,0.0,0.0,0.0,0.0,0.0,0.0,0.0,0.0,0.0,0.0,0.0,0.0,0.0,0.0,0.0,0.0,0.0,0.0,0.0,0.0,0.0,0.0,0.0,0.0,0.0,0.0,0.0,0.0,0.0,0.0,0.0,0.0,0.0,0.0,0.0,0.0,0.0,0.0,0.0,0.0,0.0,0.0,0.0,0.0,0.0,0.0,0.0,0.0,0.0,0.0,0.0,0.0,0.0,0.0,0.0,0.0,0.0,0.0,0.0,0.0,0.0,0.0,0.0,0.0,0.0,0.0,0.0,0.0,0.0,0.0,0.0,0.0,0.0,0.0,0.0,0.0,0.0,0.0,0.0,0.0,0.0,0.0,0.0,0.0,0.0,0.0,0.0,0.0,-0.5325,-0.4813,-0.4273,-0.3825,-0.2244,-0.0968,0.0,0.0,0.0,0.0,0.0,0.0,0.0,0.0,0.0,0.0,0.0,0.0,0.0,0.0,0.0,0.0,0.0,0.0,0.0,0.0,0.0,0.0,0.0,0.0,0.0,0.0,0.0,0.0,0.0,0.0,0.0,0.0,0.0,0.0,0.0,0.0,0.0,0.0,0.0,0.0,0.0,0.0,0.0,0.0,0.0,0.0,0.0,0.0,0.0,0.0,0.0,0.0,0.0,0.0,0.0,0.0,0.0,0.0,0.0,0.0,0.0,0.0,0.0,0.0,0.0,0.0,0.0,0.0,0.0,0.0,0.0,0.0,0.0,0.0,0.0,0.0,0.0,0.0,0.0,0.0,0.0,0.0,0.0,0.0,0.0,0.0,0.0,0.0,0.0,0.0,0.0,0.0,0.0,0.0,0.0,0.0,0.0,0.0,0.0,0.0,0.0,0.0,0.0,0.0,0.0,0.0,0.0,0.0,0.0,-0.4844,-0.5475,-0.5194,-0.3978,-0.381,-0.2664,0.0,0.0,0.0,0.0,0.0,0.0,0.0,0.0,0.0,0.0,0.0,0.0,0.0,0.0,0.0,0.0,0.0,0.0,0.0,0.0,0.0,0.0,0.0,0.0,0.0,0.0,0.0,0.0,0.0,0.0,0.0,0.0,0.0,0.0,0.0,0.0,0.0,0.0,0.0,0.0,0.0,0.0,0.0,0.0,0.0,0.0,0.0,0.0,0.0,0.0,0.0,0.0,0.0,0.0,0.0,0.0,0.0,0.0,0.0,0.0,0.0,0.0,0.0,0.0,0.0,0.0,0.0,0.0,0.0,0.0,0.0,0.0,0.0,0.0,0.0,0.0,0.0,0.0,0.0,0.0,0.0,0.0,0.0,0.0,0.0,0.0,0.0,0.0,0.0,0.0,0.0,0.0,0.0,0.0,0.0,0.0,0.0,0.0,0.0,0.0,0.0,0.0,0.0,0.0,0.0,0.0,0.0,0.0,0.0,-0.5386,-0.648,-0.6498,-0.5243,-0.4296,-0.3494,0.0,0.0,0.0,0.0,0.0,0.0,0.0,0.0,0.0,0.0,0.0,0.0,0.0,0.0,0.0,0.0,0.0,0.0,0.0,0.0,0.0,0.0,0.0,0.0,0.0,0.0,0.0,0.0,0.0,0.0,0.0,0.0,0.0,0.0,0.0,0.0,0.0,0.0,0.0,0.0,0.0,0.0,0.0,0.0,0.0,0.0,0.0,0.0,0.0,0.0,0.0,0.0,0.0,0.0,0.0,0.0,0.0,0.0,0.0,0.0,0.0,0.0,0.0,0.0,0.0,0.0,0.0,0.0,0.0,0.0,0.0,0.0,0.0,0.0,0.0,0.0,0.0,0.0,0.0,0.0,0.0,0.0,0.0,0.0,0.0,0.0,0.0,0.0,0.0,0.0,0.0,0.0,0.0,0.0,0.0,0.0,0.0,0.0,0.0,0.0,0.0,0.0,0.0,0.0,0.0,0.0,0.0,0.0,-0.613,-0.5619,-0.6891,-0.7113,-0.6142,-0.5143,-0.4153,0.0,0.0,0.0,0.0,0.0,0.0,0.0,0.0,0.0,0.0,0.0,0.0,0.0,0.0,0.0,0.0,0.0,0.0,0.0,0.0,0.0,0.0,0.0,0.0,0.0,0.0,0.0,0.0,0.0,0.0,0.0,0.0,0.0,0.0,0.0,0.0,0.0,0.0,0.0,0.0,0.0,0.0,0.0,0.0,0.0,0.0,0.0,0.0,0.0,0.0,0.0,0.0,0.0,0.0,0.0,0.0,0.0,0.0,0.0,0.0,0.0,0.0,0.0,0.0,0.0,0.0,0.0,0.0,0.0,0.0,0.0,0.0,0.0,0.0,0.0,0.0,0.0,0.0,0.0,0.0,0.0,0.0,0.0,0.0,0.0,0.0,0.0,0.0,0.0,0.0,0.0,0.0,0.0,0.0,0.0,0.0,0.0,0.0,0.0,0.0,0.0,0.0,0.0,0.0,0.0,0.0,0.0,0.0,-0.6166,-0.5847,-0.6976,-0.7344,-0.6806,-0.6144,-0.4767,0.0,0.0,0.0,0.0,0.0,0.0,0.0,0.0,0.0,0.0,0.0,0.0,0.0,0.0,0.0,0.0,0.0,0.0,0.0,0.0,0.0,0.0,0.0,0.0,0.0,0.0,0.0,0.0,0.0,0.0,0.0,0.0,0.0,0.0,0.0,0.0,0.0,0.0,0.0,0.0,0.0,0.0,0.0,0.0,0.0,0.0,0.0,0.0,0.0,0.0,0.0,0.0,0.0,0.0,0.0,0.0,0.0,0.0,0.0,0.0,0.0,0.0,0.0,0.0,0.0,0.0,0.0,0.0,0.0,0.0,0.0,0.0,0.0,0.0,0.0,0.0,0.0,0.0,0.0,0.0,0.0,0.0,0.0,0.0,0.0,0.0,0.0,0.0,0.0,0.0,0.0,0.0,0.0,0.0,0.0,0.0,0.0,0.0,0.0,0.0,0.0,0.0,0.0,0.0,0.0,0.0,0.0,0.0,-0.6049,-0.648,-0.7236,-0.754,-0.7409,-0.6822,-0.5242,0.0,0.0,0.0,0.0,0.0,0.0,0.0,0.0,0.0,0.0,0.0,0.0,0.0,0.0,0.0,0.0,0.0,0.0,0.0,0.0,0.0,0.0,0.0,0.0,0.0,0.0,0.0,0.0,0.0,0.0,0.0,0.0,0.0,0.0,0.0,0.0,0.0,0.0,0.0,0.0,0.0,0.0,0.0,0.0,0.0,0.0,0.0,0.0,0.0,0.0,0.0,0.0,0.0,0.0,0.0,0.0,0.0,0.0,0.0,0.0,0.0,0.0,0.0,0.0,0.0,0.0,0.0,0.0,0.0,0.0,0.0,0.0,0.0,0.0,0.0,0.0,0.0,0.0,0.0,0.0,0.0,0.0,0.0,0.0,0.0,0.0,0.0,0.0,0.0,0.0,0.0,0.0,0.0,0.0,0.0,0.0,0.0,0.0,0.0,0.0,0.0,0.0,0.0,0.0,0.0,0.0,0.0,0.0,-0.6026,-0.6675,-0.7286,-0.7597,-0.7589,-0.7294,-0.5853,0.0,0.0,0.0,0.0,0.0,0.0,0.0,0.0,0.0,0.0,0.0,0.0,0.0,0.0,0.0,0.0,0.0,0.0,0.0,0.0,0.0,0.0,0.0,0.0,0.0,0.0,0.0,0.0,0.0,0.0,0.0,0.0,0.0,0.0,0.0,0.0,0.0,0.0,0.0,0.0,0.0,0.0,0.0,0.0,0.0,0.0,0.0,0.0,0.0,0.0,0.0,0.0,0.0,0.0,0.0,0.0,0.0,0.0,0.0,0.0,0.0,0.0,0.0,0.0,0.0,0.0,0.0,0.0,0.0,0.0,0.0,0.0,0.0,0.0,0.0,0.0,0.0,0.0,0.0,0.0,0.0,0.0,0.0,0.0,0.0,0.0,0.0,0.0,0.0,0.0,0.0,0.0,0.0,0.0,0.0,0.0,0.0,0.0,0.0,0.0,0.0,0.0,0.0,0.0,0.0,0.0,0.0,-0.5538,-0.606,-0.6794,-0.7323,-0.7538,-0.7458,-0.7436,-0.6203,-0.3636,0.0,0.0,0.0,0.0,0.0,0.0,0.0,0.0,0.0,0.0,0.0,0.0,0.0,0.0,0.0,0.0,0.0,0.0,0.0,0.0,0.0,0.0,0.0,0.0,0.0,0.0,0.0,0.0,0.0,0.0,0.0,0.0,0.0,0.0,0.0,0.0,0.0,0.0,0.0,0.0,0.0,0.0,0.0,0.0,0.0,0.0,0.0,0.0,0.0,0.0,0.0,0.0,0.0,0.0,0.0,0.0,0.0,0.0,0.0,0.0,0.0,0.0,0.0,0.0,0.0,0.0,0.0,0.0,0.0,0.0,0.0,0.0,0.0,0.0,0.0,0.0,0.0,0.0,0.0,0.0,0.0,0.0,0.0,0.0,0.0,0.0,0.0,0.0,0.0,0.0,0.0,0.0,0.0,0.0,0.0,0.0,0.0,0.0,0.0,0.0,0.0,0.0,0.0,0.0,0.0,-0.6005,-0.5762,-0.6187,-0.7328,-0.7455,-0.7291,-0.6785,-0.6708,-0.5456,-0.2992,0.0,0.0,0.0,0.0,0.0,0.0,0.0,0.0,0.0,0.0,0.0,0.0,0.0,0.0,0.0,0.0,0.0,0.0,0.0,0.0,0.0,0.0,0.0,0.0,0.0,0.0,0.0,0.0,0.0,0.0,0.0,0.0,0.0,0.0,0.0,0.0,0.0,0.0,0.0,0.0,0.0,0.0,0.0,0.0,0.0,0.0,0.0,0.0,0.0,0.0,0.0,0.0,0.0,0.0,0.0,0.0,0.0,0.0,0.0,0.0,0.0,0.0,0.0,0.0,0.0,0.0,0.0,0.0,0.0,0.0,0.0,0.0,0.0,0.0,0.0,0.0,0.0,0.0,0.0,0.0,0.0,0.0,0.0,0.0,0.0,0.0,0.0,0.0,0.0,0.0,0.0,0.0,0.0,0.0,0.0,0.0,0.0,0.0,0.0,0.0,0.0,0.0,0.0,0.0,0.0,-0.5714,-0.5592,-0.6094,-0.7297,-0.7381,-0.7093,-0.6485,-0.645,-0.5391,0.0,0.0,0.0,0.0,0.0,0.0,0.0,0.0,0.0,0.0,0.0,0.0,0.0,0.0,0.0,0.0,0.0,0.0,0.0,0.0,0.0,0.0,0.0,0.0,0.0,0.0,0.0,0.0,0.0,0.0,0.0,0.0,0.0,0.0,0.0,0.0,0.0,0.0,0.0,0.0,0.0,0.0,0.0,0.0,0.0,0.0,0.0,0.0,0.0,0.0,0.0,0.0,0.0,0.0,0.0,0.0,0.0,0.0,0.0,0.0,0.0,0.0,0.0,0.0,0.0,0.0,0.0,0.0,0.0,0.0,0.0,0.0,0.0,0.0,0.0,0.0,0.0,0.0,0.0,0.0,0.0,0.0,0.0,0.0,0.0,0.0,0.0,0.0,0.0,0.0,0.0,0.0,0.0,0.0,0.0,0.0,0.0,0.0,0.0,0.0,0.0,0.0,0.0,0.0,0.0,0.0,-0.5151,-0.5302,-0.5901,-0.696,-0.713,-0.6857,-0.6112,-0.6222,-0.5326,0.0,0.0,0.0,0.0,0.0,0.0,0.0,0.0,0.0,0.0,0.0,0.0,0.0,0.0,0.0,0.0,0.0,0.0,0.0,0.0,0.0,0.0,0.0,0.0,0.0,0.0,0.0,0.0,0.0,0.0,0.0,0.0,0.0,0.0,0.0,0.0,0.0,0.0,0.0,0.0,0.0,0.0,0.0,0.0,0.0,0.0,0.0,0.0,0.0,0.0,0.0,0.0,0.0,0.0,0.0,0.0,0.0,0.0,0.0,0.0,0.0,0.0,0.0,0.0,0.0,0.0,0.0,0.0,0.0,0.0,0.0,0.0,0.0,0.0,0.0,0.0,0.0,0.0,0.0,0.0,0.0,0.0,0.0,0.0,0.0,0.0,0.0,0.0,0.0,0.0,0.0,0.0,0.0,0.0,0.0,0.0,0.0,0.0,0.0,0.0,0.0,0.0,0.0,0.0,0.0,0.0,-0.4507,-0.4997,-0.5568,-0.6294,-0.6732,-0.6441,-0.5376,-0.5741,-0.4789,0.0,0.0,0.0,0.0,0.0,0.0,0.0,0.0,0.0,0.0,0.0,0.0,0.0,0.0,0.0,0.0,0.0,0.0,0.0,0.0,0.0,0.0,0.0,0.0,0.0,0.0,0.0,0.0,0.0,0.0,0.0,0.0,0.0,0.0,0.0,0.0,0.0,0.0,0.0,0.0,0.0,0.0,0.0,0.0,0.0,0.0,0.0,0.0,0.0,0.0,0.0,0.0,0.0,0.0,0.0,0.0,0.0,0.0,0.0,0.0,0.0,0.0,0.0,0.0,0.0,0.0,0.0,0.0,0.0,0.0,0.0,0.0,0.0,0.0,0.0,0.0,0.0,0.0,0.0,0.0,0.0,0.0,0.0,0.0,0.0,0.0,0.0,0.0,0.0,0.0,0.0,0.0,0.0,0.0,0.0,0.0,0.0,0.0,0.0,0.0,0.0,0.0,0.0,0.0,0.0,-0.3759,-0.4712,-0.4927,-0.5483,-0.6346,-0.6604,-0.6191,-0.5074,-0.5475,-0.4566,0.0,0.0,0.0,0.0,0.0,0.0,0.0,0.0,0.0,0.0,0.0,0.0,0.0,0.0,0.0,0.0,0.0,0.0,0.0,0.0,0.0,0.0,0.0,0.0,0.0,0.0,0.0,0.0,0.0,0.0,0.0,0.0,0.0,0.0,0.0,0.0,0.0,0.0,0.0,0.0,0.0,0.0,0.0,0.0,0.0,0.0,0.0,-0.1463,-0.147,0.0,0.0,0.0,0.0,0.0,0.0,0.0,0.0,0.0,0.0,0.0,0.0,0.0,0.0,0.0,0.0,0.0,0.0,0.0,0.0,0.0,0.0,0.0,0.0,0.0,0.0,0.0,0.0,0.0,0.0,0.0,0.0,0.0,0.0,0.0,0.0,0.0,0.0,0.0,0.0,0.0,0.0,0.0,0.0,0.0,0.0,0.0,0.0,0.0,0.0,0.0,0.0,0.0,0.0,0.0,0.0,0.0,-0.4715,-0.4832,-0.5317,-0.6249,-0.6481,-0.6054,-0.495,-0.5168,0.0,0.0,0.0,0.0,0.0,0.0,0.0,0.0,0.0,0.0,0.0,0.0,0.0,0.0,0.0,0.0,0.0,0.0,0.0,0.0,0.0,0.0,0.0,0.0,0.0,0.0,0.0,0.0,0.0,0.0,0.0,0.0,0.0,0.0,0.0,0.0,0.0,0.0,0.0,0.0,0.0,0.0,-0.0159,-0.0582,-0.066,-0.0642,0.0,0.0,-0.2656,-0.2632,-0.1521,-0.0503,0.0,0.0,0.0,0.0,0.0,0.0,0.0,0.0,0.0,0.0,0.0,0.0,0.0,0.0,0.0,0.0,0.0,0.0,0.0,0.0,0.0,0.0,0.0,0.0,0.0,0.0,0.0,0.0,0.0,0.0,0.0,0.0,0.0,0.0,0.0,0.0,0.0,0.0,0.0,0.0,0.0,0.0,0.0,0.0,0.0,0.0,0.0,0.0,0.0,0.0,0.0,0.0,0.0,0.0,0.0,-0.4059,-0.456,-0.5091,-0.566,-0.6228,-0.5998,-0.4931,-0.4609,-0.368,0.0,0.0,0.0,0.0,0.0,0.0,0.0,0.0,0.0,0.0,0.0,0.0,0.0,0.0,0.0,0.0,0.0,0.0,0.0,0.0,0.0,0.0,0.0,0.0,0.0,0.0,0.0,0.0,0.0,0.0,0.0,0.0,0.0,0.0,0.0,0.0,0.0,0.0,0.0,0.0,0.0,-0.0597,-0.2201,-0.2417,-0.2417,0.0,0.0,-0.2849,-0.2724,-0.2552,-0.1875,-0.0255,0.0,0.0,0.0,0.0,0.0,0.0,0.0,0.0,0.0,0.0,0.0,0.0,0.0,0.0,0.0,0.0,0.0,0.0,0.0,0.0,0.0,0.0,0.0,0.0,0.0,0.0,0.0,0.0,0.0,0.0,0.0,0.0,0.0,0.0,0.0,0.0,0.0,0.0,0.0,0.0,0.0,0.0,0.0,0.0,0.0,0.0,0.0,0.0,0.0,0.0,0.0,0.0,0.0,-0.3612,-0.4486,-0.4686,-0.5207,-0.5993,-0.6263,-0.6018,-0.5296,-0.462,-0.3543,0.0,0.0,0.0,0.0,0.0,0.0,0.0,0.0,0.0,0.0,0.0,0.0,0.0,0.0,0.0,0.0,0.0,0.0,0.0,0.0,0.0,0.0,0.0,0.0,0.0,0.0,0.0,0.0,0.0,0.0,0.0,0.0,0.0,0.0,0.0,0.0,0.0,0.0,0.0,0.0,0.0,-0.208,-0.2691,-0.2781,0.0,0.0,-0.2885,-0.2932,-0.2852,-0.2704,-0.2257,-0.1214,-0.136,0.0,0.0,0.0,0.0,0.0,0.0,0.0,0.0,0.0,0.0,0.0,0.0,0.0,0.0,0.0,0.0,0.0,0.0,0.0,0.0,0.0,0.0,0.0,0.0,0.0,0.0,0.0,0.0,0.0,0.0,0.0,0.0,0.0,0.0,0.0,0.0,0.0,0.0,0.0,0.0,0.0,0.0,0.0,0.0,0.0,0.0,0.0,0.0,0.0,0.0,0.0,0.0,-0.4039,-0.4787,-0.4951,-0.5423,-0.6283,-0.6283,-0.6064,-0.55,-0.4909,-0.3844,0.0,0.0,0.0,0.0,0.0,0.0,0.0,0.0,0.0,0.0,0.0,0.0,0.0,0.0,0.0,0.0,0.0,0.0,0.0,0.0,0.0,0.0,0.0,0.0,0.0,0.0,0.0,0.0,0.0,0.0,0.0,0.0,0.0,0.0,0.0,0.0,0.0,0.0,0.0,0.0,0.0,-0.299,-0.2918,-0.2957,-0.2994,-0.2989,-0.3029,-0.3042,-0.2978,-0.2813,-0.2518,-0.2068,0.0,0.0,0.0,0.0,0.0,0.0,0.0,0.0,0.0,0.0,0.0,0.0,0.0,0.0,0.0,0.0,0.0,0.0,0.0,0.0,0.0,0.0,0.0,0.0,0.0,0.0,0.0,0.0,0.0,0.0,0.0,0.0,0.0,0.0,0.0,0.0,0.0,0.0,0.0,0.0,0.0,0.0,0.0,0.0,0.0,0.0,0.0,0.0,0.0,0.0,0.0,0.0,0.0,0.0,-0.4787,-0.5247,-0.5748,-0.6271,-0.6283,-0.6047,-0.5536,-0.5469,-0.4586,-0.2745,0.0,0.0,0.0,0.0,0.0,0.0,0.0,0.0,0.0,0.0,0.0,0.0,0.0,0.0,0.0,0.0,0.0,0.0,0.0,0.0,0.0,0.0,0.0,0.0,0.0,0.0,0.0,0.0,0.0,0.0,0.0,0.0,0.0,0.0,0.0,0.0,0.0,0.0,0.0,-0.3143,-0.3053,-0.2922,-0.3067,-0.3185,-0.3181,-0.3202,-0.3169,-0.3091,-0.2983,-0.2838,0.0,0.0,0.0,0.0,0.0,0.0,0.0,0.0,0.0,0.0,0.0,0.0,0.0,0.0,0.0,0.0,0.0,0.0,0.0,0.0,0.0,0.0,0.0,0.0,0.0,0.0,0.0,-0.4451,-0.493,0.0,0.0,0.0,0.0,0.0,0.0,0.0,0.0,0.0,0.0,0.0,-0.6924,-0.6786,0.0,0.0,0.0,0.0,0.0,0.0,0.0,0.0,0.0,0.0,0.0,0.0,-0.4528,-0.4799,-0.5252,-0.576,-0.6262,-0.6283,-0.6211,-0.6035,-0.5696,-0.4647,-0.2811,0.0,0.0,0.0,0.0,0.0,0.0,0.0,0.0,0.0,0.0,0.0,0.0,0.0,0.0,0.0,0.0,0.0,0.0,0.0,0.0,0.0,0.0,0.0,0.0,0.0,0.0,0.0,0.0,0.0,0.0,0.0,0.0,0.0,0.0,0.0,0.0,0.0,-0.2797,-0.3155,-0.3173,-0.3137,-0.3095,-0.3158,-0.3203,0.0,0.0,0.0,0.0,0.0,0.0,0.0,0.0,0.0,0.0,0.0,0.0,0.0,0.0,-0.2106,-0.2688,-0.2366,-0.1574,-0.0257,0.0,0.0,0.0,0.0,0.0,0.0,0.0,0.0,0.0,0.0,0.0,0.0,0.0,0.0,0.0,0.0,-0.5814,0.0,0.0,0.0,0.0,0.0,0.0,0.0,0.0,-0.8856,-0.8861,-0.8455,-0.8158,-0.7822,0.0,-0.7962,-0.7605,0.0,0.0,0.0,0.0,0.0,0.0,0.0,0.0,-0.4977,-0.5027,-0.5519,-0.5951,-0.6271,-0.6283,-0.6283,-0.6283,-0.5718,-0.4681,-0.32,-0.2111,-0.1794,0.0,0.0,0.0,0.0,0.0,0.0,0.0,0.0,0.0,0.0,0.0,0.0,0.0,0.0,0.0,0.0,0.0,0.0,0.0,0.0,0.0,0.0,0.0,0.0,0.0,0.0,0.0,0.0,0.0,0.0,0.0,0.0,0.0,-0.1279,-0.2321,-0.3203,-0.3203,-0.3203,-0.3203,-0.3203,0.0,0.0,0.0,0.0,0.0,0.0,0.0,-0.3081,-0.2925,-0.2794,-0.2713,-0.2694,-0.1748,-0.1447,-0.2766,0.0,0.0,-0.291,-0.2992,-0.2633,-0.1282,-0.133,-0.1918,-0.2978,-0.3203,-0.3203,0.0,0.0,0.0,0.0,0.0,0.0,0.0,0.0,-0.7768,-0.8221,0.0,-0.7585,0.0,0.0,0.0,0.0,0.0,0.0,0.0,0.0,-0.9778,-0.9797,-0.9687,-0.9146,-0.8803,-0.8693,-0.9219,-0.9141,-0.8406,-0.7256,0.0,0.0,0.0,0.0,0.0,0.0,-0.6088,-0.5443,-0.6022,-0.6319,-0.6307,-0.6283,-0.6283,-0.6283,-0.5591,-0.4782,-0.3902,-0.3484,-0.2979,-0.2315,-0.2264,0.0,0.0,0.0,0.0,0.0,0.0,0.0,0.0,0.0,0.0,0.0,0.0,0.0,0.0,0.0,0.0,0.0,0.0,0.0,0.0,0.0,0.0,0.0,0.0,0.0,0.0,0.0,0.0,0.0,0.0,0.0,-0.3119,-0.3206,-0.3235,-0.3271,0.0,0.0,0.0,0.0,-0.4023,-0.5963,-0.4569,-0.3228,-0.3112,-0.3139,-0.3133,-0.2919,0.0,0.0,-0.2733,-0.281,-0.2913,-0.3146,-0.3185,-0.314,-0.2961,-0.3067,-0.3096,-0.2852,-0.2198,-0.2065,-0.2922,-0.3203,-0.3203,-1.4302,0.0,0.0,0.0,0.0,-1.1505,-1.1266,-1.0759,-1.0607,-1.095,-1.1536,-1.0276,0.0,0.0,0.0,0.0,0.0,0.0,-0.9782,-1.0767,-1.0883,-1.0732,-1.0369,-1.0498,-1.0331,-0.99,-0.996,-0.9913,-0.9731,-0.903,-0.7978,-0.6655,0.0,0.0,0.0,0.0,-0.6615,-0.5603,-0.639,-0.6688,-0.6295,-0.6283,-0.6283,-0.6283,-0.5726,-0.5282,-0.5016,-0.4189,-0.364,-0.3422,-0.3055,0.0,0.0,0.0,0.0,0.0,0.0,0.0,0.0,0.0,0.0,0.0,0.0,0.0,0.0,0.0,0.0,0.0,0.0,0.0,0.0,0.0,0.0,0.0,0.0,0.0,0.0,0.0,0.0,0.0,0.0,0.0,-0.3199,-0.3614,-0.4011,0.0,0.0,-0.348,-0.425,-0.4947,-0.5624,-0.6223,0.0,0.0,0.0,-0.3085,-0.3073,-0.2926,-0.2903,-0.2868,-0.2784,-0.2886,-0.3026,-0.3167,-0.3203,-0.3181,-0.3131,-0.3166,-0.3161,-0.2985,-0.2799,-0.2762,-0.3101,-0.3203,-0.3203,-1.6935,-1.5166,-1.5075,-1.4275,-1.3113,-1.3294,-1.2816,-1.1901,-1.2135,-1.2665,-1.3332,-1.2427,-1.2142,-1.2244,-1.0907,0.0,0.0,0.0,-1.0978,-1.1926,-1.1716,-1.1614,-1.1575,-1.1627,-1.1454,-1.1071,-1.0964,-1.0951,-1.1004,-1.0491,-0.9883,-0.9146,0.0,0.0,-0.707,-0.7538,-0.7428,-0.6754,-0.7166,-0.7193,-0.6748,-0.6451,-0.6283,-0.6283,-0.5975,-0.5636,-0.5235,-0.4585,-0.4036,-0.3594,-0.3164,-0.2837,0.0,0.0,0.0,0.0,0.0,0.0,0.0,0.0,0.0,0.0,0.0,0.0,0.0,0.0,0.0,0.0,0.0,0.0061,0.018,0.0239,0.0,0.0,0.0,0.0,0.0,0.0,0.0,-0.3601,-0.3386,-0.3348,-0.3716,-0.4507,-0.512,-0.5363,-0.4491,-0.4081,-0.4709,0.0,-0.6283,-0.6283,-0.5796,-0.5134,-0.4381,-0.3579,-0.3028,-0.2946,-0.2967,-0.2949,-0.2896,-0.2974,-0.3076,-0.3176,-0.3203,-0.3203,-0.3203,-0.3203,-0.3185,-0.3088,-0.311,-0.316,-0.3199,-0.3203,-0.3203,-1.8597,-1.895,-1.7904,-1.6205,-1.4271,-1.4729,-1.3997,-1.249,-1.3069,-1.384,-1.4689,-1.4223,-1.4236,-1.448,-1.2831,0.0,0.0,-1.1812,-1.2309,-1.2875,-1.2335,-1.238,-1.2892,-1.2459,-1.2207,-1.2109,-1.2051,-1.2051,-1.2099,-1.1681,-1.1469,-1.1375,-0.9743,-0.8814,-0.8587,-0.8417,-0.8391,-0.8498,-0.8138,-0.7803,-0.7433,-0.6727,-0.6358,-0.6367,-0.6319,-0.5848,-0.4927,-0.4754,-0.4221,-0.3221,-0.2886,-0.282,-0.2967,0.0,0.0,0.0,0.0,0.0,0.0,0.0,0.0,0.0,0.0,0.0,0.0,0.0,0.0,0.0,-0.0237,0.0,0.0197,0.0335,0.0,0.0,0.0,-0.218,-0.2914,-0.2985,-0.3423,-0.4493,0.0,0.0,0.0,0.0,-0.629,-0.6286,-0.5515,-0.492,-0.4913,-0.5724,-0.6283,-0.6283,-0.6283,-0.6266,-0.5958,-0.4416,-0.3131,-0.3035,-0.3067,-0.3072,-0.3026,-0.3053,-0.313,-0.3199,-0.3203,-0.3203,-0.3203,-0.3203,-0.3203,-0.3194,-0.3203,-0.3203,-0.3203,-0.3203,-0.3203,-2.0151,-2.0242,-1.9967,-1.9025,-1.7708,-1.7826,-1.7146,-1.6049,-1.6611,-1.6532,-1.597,-1.5826,-1.5361,-1.4537,-1.3265,-1.286,-1.315,-1.2361,-1.2322,-1.2875,-1.2771,-1.2565,-1.2333,-1.2639,-1.2618,-1.2263,-1.2194,-1.2209,-1.2313,-1.2263,-1.2021,-1.1534,-1.1078,-1.0312,-0.9309,-0.9424,-0.9193,-0.8583,-0.8536,-0.8272,-0.7803,-0.7205,-0.6904,-0.6904,-0.6499,-0.5996,-0.5352,-0.4938,-0.4387,-0.3741,-0.3202,-0.2951,-0.2985,-0.29,0.0,0.0,0.0,0.0,0.0,0.0,0.0,0.0,0.0,-0.0644,-0.217,0.0,-0.2283,0.0,-0.2305,-0.2256,-0.2175,-0.213,0.0,0.0,-0.3419,-0.2784,-0.298,-0.2985,-0.3686,-0.5448,-0.4128,-0.3134,-0.3359,-0.4955,-0.6126,-0.6278,-0.61,-0.5944,-0.5968,-0.6124,-0.6283,-0.6283,-0.6283,-0.6286,-0.6182,-0.4876,-0.361,-0.3146,-0.309,-0.3105,-0.3137,-0.3163,-0.3173,-0.3203,-0.3203,-0.3203,-0.3203,-0.3203,-0.3203,-0.3203,-0.3203,-0.3203,-0.3203,-0.3203,-0.3203,-2.1104,-2.104,-2.0817,-2.0332,-1.9643,-1.912,-1.8257,-1.7264,-1.7839,-1.7578,-1.6754,-1.6754,-1.6245,-1.5388,-1.476,-1.4354,-1.4118,-1.3461,-1.3213,-1.3307,-1.3307,-1.3124,-1.2867,-1.3198,-1.3245,-1.3017,-1.3006,-1.3084,-1.3238,-1.3055,-1.2827,-1.2484,-1.1858,-1.112,-1.0283,-0.9983,-0.9603,-0.9096,-0.8839,-0.8561,-0.8236,-0.7481,-0.7107,-0.7095,-0.6571,-0.6047,-0.5517,-0.5177,-0.4769,-0.4244,-0.3661,-0.3236,-0.3022,-0.2877,-0.1885,0.0,0.0,0.0,0.0,0.0,0.0,0.0,0.0,0.0,0.0,0.0,-0.2985,0.0,-0.2985,0.0,-0.2985,-0.3806,-0.4781,-0.5883,-0.5006,-0.433,-0.4325,-0.4336,-0.4766,-0.5851,-0.5028,-0.4336,-0.437,-0.5295,-0.6036,-0.6162,-0.6242,-0.6283,-0.6283,-0.6283,-0.6283,-0.6283,-0.6283,-0.6283,-0.6283,-0.5568,-0.4651,-0.3794,-0.3341,-0.3148,-0.3203,-0.3203,-0.3203,-0.3203,-0.3203,-0.3203,-0.3203,-0.3203,-0.3203,-0.3203,-0.3182,-0.3173,-0.3199,-0.3203,-0.3203,-2.172,-2.1472,-2.1001,-2.0777,-2.062,-1.9551,-1.8479,-1.746,-1.8061,-1.7944,-1.7316,-1.7316,-1.7016,-1.6513,-1.6428,-1.5826,-1.4833,-1.4742,-1.4415,-1.3922,-1.3896,-1.3853,-1.3791,-1.3791,-1.3838,-1.3924,-1.398,-1.4098,-1.4273,-1.391,-1.3654,-1.3529,-1.243,-1.167,-1.1294,-1.0376,-0.9824,-0.9671,-0.9093,-0.8815,-0.879,-0.7745,-0.7203,-0.7181,-0.6619,-0.6047,-0.5532,-0.5434,-0.5154,-0.4637,-0.414,-0.3616,-0.304,-0.2793,-0.1735,0.0,-0.0833,0.0,0.0,0.0,0.0,0.0,0.0,0.0,0.0,-0.2985,-0.3065,-0.3169,-0.3327,-0.3395,-0.3395,-0.4971,-0.6018,-0.6018,-0.6018,-0.6018,-0.5998,-0.6018,-0.6018,-0.6018,-0.6018,-0.6018,-0.594,-0.6018,-0.6018,-0.6036,-0.6153,-0.6242,-0.6286,-0.6283,-0.6283,-0.6283,-0.6283,-0.6283,-0.6286,-0.6218,-0.5718,-0.4568,-0.3944,-0.3398,-0.323,-0.3203,-0.3203,-0.3203,-0.3203,-0.3203,-0.3203,-0.3203,-0.3203,-0.3203,-0.3139,-0.3134,-0.3169,-0.3194,-0.3203,-2.2273,-2.1511,-2.1407,-2.1106,-2.0686,-2.0463,-1.9679,-1.8623,-1.9224,-1.8898,-1.7957,-1.7931,-1.7625,-1.7029,-1.6598,-1.6271,-1.6023,-1.5571,-1.5021,-1.4441,-1.4459,-1.4223,-1.3804,-1.3791,-1.3858,-1.3967,-1.4,-1.4098,-1.4316,-1.431,-1.4024,-1.3449,-1.3247,-1.2777,0.0,0.0,0.0,0.0,-0.9403,-0.9354,-0.9318,-0.8297,-0.7756,-0.7732,-0.6792,0.0,-0.5528,-0.5434,-0.5142,-0.4649,-0.4451,0.0,0.0,0.0,0.0,0.0,0.0,0.0,0.0,0.0,0.0,0.0,-0.4507,-0.475,-0.3169,-0.2985,-0.3345,-0.4143,-0.4956,-0.5437,-0.544,-0.5769,-0.6018,-0.6018,-0.6018,-0.6018,-0.6018,-0.6018,-0.6018,-0.6018,-0.6018,-0.6018,-0.6018,-0.6018,-0.6018,-0.6018,-0.6025,-0.6126,-0.6281,-0.6286,-0.6295,-0.6283,-0.6286,-0.6283,-0.6283,-0.629,-0.6006,-0.5252,-0.5026,-0.4461,-0.3511,-0.3247,-0.322,-0.322,-0.3203,-0.3203,-0.3203,-0.3203,-0.3199,-0.3203,-0.3164,-0.3109,-0.313,-0.3118,-0.3134,-2.3098,0.0,-2.172,-2.1342,0.0,-2.0805,-2.0347,-1.9823,-2.0111,-1.9577,-1.8493,-1.8218,-1.7761,-1.7173,-1.6911,-1.665,-1.6388,-1.6075,-1.5617,-1.5047,-1.4742,-1.4454,-1.4167,-1.3918,-1.3858,-1.3947,-1.3967,-1.4098,-1.4303,-1.4449,-1.4302,-1.395,-1.3691,-1.3255,-1.2663,-1.1307,-1.0197,-0.9418,-0.9433,-0.9458,-0.9436,-0.8694,-0.8273,-0.8226,0.0,0.0,0.0,0.0,0.0,0.0,0.0,0.0,0.0,0.0,0.0,-0.3862,-0.4787,-0.3907,-0.096,-0.2345,-0.3748,-0.4448,-0.5428,-0.5585,-0.4548,-0.448,-0.448,-0.4516,-0.543,-0.6018,-0.6018,-0.6018,-0.6018,-0.6018,-0.6018,-0.6018,-0.6018,-0.6018,-0.6018,-0.6018,-0.6018,-0.6018,-0.6018,-0.6018,-0.6018,-0.6018,-0.6018,-0.6057,-0.6144,-0.6251,-0.629,-0.6254,-0.629,-0.6278,-0.6254,-0.629,-0.6086,-0.5533,-0.5568,-0.5239,-0.4197,-0.3997,-0.3824,-0.3355,-0.3203,-0.3203,-0.3203,-0.3173,-0.3143,-0.3155,-0.3094,-0.3042,-0.3012,-0.3028,-0.3081,-2.3875,-2.3132,-2.2073,-2.1603,-2.1459,-2.0948,-2.0699,-2.0699,0.0,0.0,0.0,-1.8597,-1.8009,-1.7369,-1.7356,-1.7055,-1.6558,-1.6532,-1.6225,-1.5649,-1.5029,-1.4689,-1.4589,-1.4066,-1.3825,-1.3904,-1.3947,-1.4065,-1.427,-1.4388,-1.4452,-1.441,-1.3939,-1.3498,-1.2971,-1.1459,-1.0232,-0.9466,-0.9388,-0.9408,-0.9371,-0.8908,-0.8633,-0.8609,-0.7682,-0.7122,-0.7039,-0.65,-0.6206,-0.6135,-0.5694,-0.5585,-0.5922,-0.4752,-0.462,-0.5825,-0.5285,-0.3558,-0.0753,-0.2839,-0.476,-0.5925,-0.6018,-0.6018,-0.6018,-0.6018,-0.5666,-0.4837,-0.5517,-0.6018,-0.6018,-0.6018,-0.6018,-0.6018,-0.6018,-0.6018,-0.6018,-0.6018,-0.6018,-0.6018,-0.6018,-0.6018,-0.6018,-0.6018,-0.6018,-0.602,-0.6156,-0.6121,-0.605,-0.6144,-0.6207,-0.6174,-0.621,-0.6224,-0.6218,-0.6245,-0.6067,-0.5685,-0.5883,-0.5854,-0.527,-0.5029,-0.4519,-0.332,-0.3163,-0.3176,-0.3199,-0.3146,-0.312,-0.3172,-0.3077,-0.2994,-0.2982,-0.2979,-0.298,-2.4419,-2.3143,-2.2544,-2.1982,-2.1446,-2.0923,-2.0699,-2.0699,-2.0699,-2.0308,-1.9682,-1.9603,-1.8953,-1.797,-1.797,-1.7656,-1.7094,-1.7081,-1.6794,0.0,-1.5676,-1.5095,-1.4589,-1.4053,-1.3838,-1.3891,-1.3908,-1.4023,-1.4203,-1.4287,-1.4303,-1.4254,-1.4157,-1.3544,-1.2446,-1.1597,-1.0762,-0.9912,-0.9523,-0.9341,-0.9383,-0.8832,-0.8547,-0.8573,-0.7923,-0.753,-0.7484,-0.699,-0.6694,-0.6683,-0.6183,-0.594,-0.5986,-0.5768,-0.5768,-0.5966,-0.5861,-0.5569,-0.5059,-0.5496,-0.5787,-0.5986,-0.6018,-0.6018,-0.6018,-0.6018,-0.5929,-0.5803,-0.5917,-0.6018,-0.6018,-0.6032,-0.6041,-0.6066,-0.6029,-0.6018,-0.6018,-0.6018,-0.6032,-0.6087,-0.6018,-0.6064,-0.6029,-0.6043,-0.6101,-0.6123,-0.6555,-0.6714,-0.6257,-0.6027,-0.6045,-0.6036,-0.6045,-0.609,-0.6156,-0.6203,-0.6142,-0.613,-0.5988,-0.5925,-0.5866,-0.5745,-0.5086,-0.3395,-0.3242,-0.3213,-0.3251,-0.3092,-0.3211,-0.3445,-0.3269,-0.3069,-0.3292,-0.3111,-0.288,-2.4927,-2.3832,-2.2905,-2.2311,-2.193,-2.1053,-2.0699,-2.0699,-2.0699,-2.0347,-1.9826,-1.9812,-1.9342,-1.8545,-1.8218,-1.7944,-1.7669,-1.7342,-1.7055,-1.6767,-1.5937,-1.5343,-1.5016,-1.421,-1.3821,-1.3854,-1.3838,-1.3908,-1.4023,-1.4095,-1.4095,-1.404,-1.3874,-1.3385,-1.2609,-1.1691,-1.1015,-1.0537,-0.9699,-0.9247,-0.9274,-0.9064,-0.8921,-0.8921,-0.833,-0.8015,-0.798,-0.7496,-0.7232,-0.7221,-0.6819,-0.6417,-0.6041,-0.6018,-0.6018,-0.6018,-0.6018,-0.6018,-0.6018,-0.705,-0.7692,-0.7692,-0.768,-0.7669,-0.7692,-0.6638,-0.6009,-0.6018,-0.6018,-0.6478,-0.7485,-0.6683,-0.6452,-0.76,-0.6729,-0.602,-0.6018,-0.6018,-0.6215,-0.6796,-0.7359,-0.7255,-0.6133,-0.6499,-0.6864,-0.69,-0.7208,-0.7197,-0.6934,-0.7347,-0.7233,-0.6272,-0.6018,-0.6039,-0.6093,-0.6102,-0.6084,-0.6048,-0.5891,-0.5834,-0.5898,-0.5797,-0.5263,-0.4443,-0.4355,-0.4373,-0.4019,-0.3735,-0.3761,-0.3805,-0.3732,-0.3629,-0.3685,-0.3308,-0.2894,-2.5287,-2.4301,-2.3177,-2.2418,-2.1957,-2.1079,-2.0699,-2.0699,-2.0699,-2.0438,-2.0035,-1.9995,-1.9669,-1.9081,-1.8532,-1.8218,-1.8035,-1.7473,-1.7199,-1.7094,-1.6153,-1.5683,-1.5591,-1.4668,-1.4118,-1.4001,-1.3988,-1.3973,-1.3904,-1.3947,-1.3914,-1.3791,-1.3527,-1.3237,-1.2883,-1.1867,-1.1238,-1.0953,-0.9906,-0.9294,-0.9217,-0.9232,-0.9245,-0.9168,-0.8793,-0.8535,-0.8462,-0.8014,-0.7761,-0.7726,-0.7403,-0.6943,-0.6406,-0.6133,-0.6066,-0.6226,-0.6534,-0.6706,-0.6786,-0.8162,-0.9092,-0.9092,-0.9092,-0.9092,-0.8968,-0.7657,-0.6626,-0.6522,-0.6704,-0.7417,-0.8518,-0.7738,-0.7348,-0.8807,-0.7703,-0.6865,-0.6729,-0.6694,-0.698,-0.7887,-0.8635,-0.8335,-0.7037,-0.7081,-0.7577,-0.7692,-0.768,-0.7657,-0.7968,-0.867,-0.8289,-0.721,-0.635,-0.6101,-0.6123,-0.6066,-0.5975,-0.5863,-0.5752,-0.5695,-0.5667,-0.5555,-0.5347,-0.5104,-0.5433,-0.5349,-0.4723,-0.4495,-0.437,-0.4277,-0.4027,-0.3923,-0.3925,-0.3396,-0.2909,-2.542,-2.4096,-2.3299,-2.2126,-2.0922,-2.0751,-2.0699,-2.0699,-2.0699,-2.0686,-2.0594,-2.0633,-2.0281,-1.9682,-1.9094,-1.8571,-1.81,-1.7473,-1.7212,-1.7146,-1.6584,-1.631,-1.6238,-1.5604,-1.5055,-1.4572,-1.4511,-1.4284,-1.3957,-1.3904,-1.3791,-1.3547,-1.3442,-1.3237,-1.2839,-1.2135,-1.1503,-1.1001,-1.0187,-0.9586,-0.9213,-0.9149,-0.9124,-0.9191,-0.9089,-0.9025,-0.8979,-0.852,-0.8232,-0.8198,-0.7819,-0.7531,-0.7369,-0.6545,-0.6314,-0.6988,-0.8106,-0.8817,-0.8794,-0.8991,-0.9092,-0.9092,-0.9092,-0.9092,-0.9092,-0.8897,-0.8531,-0.8082,-0.8415,-0.8782,-0.9071,-0.8817,-0.8725,-0.8966,-0.8817,-0.8805,-0.8668,-0.8818,-0.8864,-0.8933,-0.9002,-0.8682,-0.7715,-0.7623,-0.7818,-0.821,-0.7991,-0.8026,-0.8658,-0.8933,-0.9058,-0.8449,-0.7325,-0.6367,-0.6482,-0.6295,-0.5963,-0.576,-0.5603,-0.5547,-0.5555,-0.5547,-0.5426,-0.5282,-0.5301,-0.5322,-0.5169,-0.5094,-0.4951,-0.4532,-0.4207,-0.3867,-0.3784,-0.3476,-0.3096,-2.5562,-2.4641,-2.3407,-2.206,-2.0777,-2.0699,-2.0699,-2.0699,-2.0699,-2.0699,-2.0699,-2.0699,-2.0568,-2.0268,-1.9352,-1.878,-1.8519,-1.763,-1.7212,-1.7146,-1.6637,-1.6388,-1.6323,-1.5793,-1.5356,-1.5095,-1.4786,-1.4498,-1.4267,-1.3931,-1.3628,-1.3442,-1.334,-1.3151,-1.2871,-1.2246,-1.176,-1.1451,-1.0443,-0.9785,-0.9563,-0.9258,-0.9108,-0.9147,-0.9133,-0.9092,-0.9081,-0.8901,-0.8773,-0.8761,-0.8589,-0.8336,-0.8037,-0.7899,-0.7784,-0.7772,-0.8566,-0.9092,-0.9092,-0.9092,-0.9092,-0.9092,-0.9092,-0.9092,-0.9092,-0.9092,-0.8968,-0.8784,-0.8945,-0.9092,-0.9092,-0.9092,-0.9092,-0.9092,-0.9092,-0.9092,-0.9092,-0.9092,-0.9092,-0.9092,-0.9092,-0.8979,-0.8601,-0.8498,-0.8566,-0.8738,-0.8566,-0.8681,-0.9046,-0.9092,-0.9092,-0.8975,-0.815,-0.718,-0.6542,-0.6134,-0.5874,-0.5622,-0.5301,-0.5166,-0.5386,-0.55,-0.5454,-0.5349,-0.5214,-0.5098,-0.4933,-0.4971,-0.4924,-0.4677,-0.474,-0.4499,-0.4165,-0.4215,-0.4044,-2.5549,-2.4709,-2.3111,-2.1851,-2.0909,-2.0764,-2.0699,-2.0699,-2.0699,-2.0699,-2.0699,-2.0699,-2.0699,-2.0555,-1.9614,-1.9068,-1.878,-1.7891,-1.7356,-1.7173,-1.6794,-1.6624,-1.6558,-1.6179,-1.5879,-1.5702,-1.5317,-1.4925,-1.4585,-1.3968,-1.3564,-1.3421,-1.325,-1.3077,-1.2824,-1.2321,-1.1945,-1.1671,-1.079,-1.0263,-1.0003,-0.954,-0.9232,-0.9104,-0.9092,-0.9092,-0.9092,-0.9092,-0.9092,-0.9092,-0.9092,-0.8922,-0.8566,-0.8886,-0.8876,-0.8486,-0.883,-0.9092,-0.9092,-0.9092,-0.9092,-0.9092,-0.9092,-0.9092,-0.9092,-0.9092,-0.9092,-0.9069,-0.9092,-0.9092,-0.9092,-0.9092,-0.9092,-0.9092,-0.9092,-0.9092,-0.9092,-0.9092,-0.9092,-0.9092,-0.9092,-0.9092,-0.9081,-0.9046,-0.9035,-0.9046,-0.9058,-0.9092,-0.9092,-0.9092,-0.9092,-0.9079,-0.8786,-0.811,-0.6859,-0.6133,-0.5953,-0.5843,-0.5522,-0.5117,-0.5224,-0.533,-0.5416,-0.5262,-0.499,-0.4843,-0.4843,-0.4833,-0.4833,-0.4952,-0.4972,-0.4867,-0.4511,-0.4866,-0.4751,-2.5446,-2.3987,-2.2287,-2.1551,-2.142,-2.0909,-2.0699,-2.0699,-2.0699,-2.0699,-2.0699,-2.0699,-2.0699,-2.066,-2.0022,-1.9447,-1.8898,-1.8283,-1.7735,-1.7277,-1.7173,-1.716,-1.716,-1.712,-1.6833,-1.6362,-1.6205,-1.563,-1.4629,-1.4075,-1.3644,-1.3421,-1.3215,-1.3007,-1.2756,-1.2378,-1.2002,-1.1655,-1.1328,-1.1009,-1.0562,-1.0045,-0.9574,-0.9219,-0.9106,-0.9092,-0.9092,-0.9092,-0.9092,-0.9092,-0.9092,-0.9083,-0.9046,-0.9069,-0.9071,-0.9023,-0.9058,-0.9092,-0.9092,-0.9092,-0.9092,-0.9092,-0.9092,-0.9092,-0.9092,-0.9092,-0.9092,-0.9092,-0.9092,-0.9092,-0.9092,-0.9092,-0.9092,-0.9092,-0.9092,-0.9092,-0.9092,-0.9092,-0.9092,-0.9092,-0.9092,-0.9092,-0.9092,-0.9092,-0.9092,-0.9092,-0.9092,-0.9092,-0.9092,-0.9092,-0.9092,-0.9026,-0.885,-0.8604,-0.8476,-0.7275,-0.6444,-0.6339,-0.6065,-0.5391,-0.5244,-0.5175,-0.5204,-0.5185,-0.4951,-0.4822,-0.4793,-0.4793,-0.4793,-0.4843,-0.4853,-0.4741,-0.4667,-0.4739,-0.4676,-2.486,-2.3603,-2.2535,-2.1877,-2.1459,-2.0923,-2.0699,-2.0699,-2.0699,-2.0699,-2.0699,-2.0699,-2.0699,-2.0686,-2.0465,-2.0035,-1.942,-1.8532,-1.797,-1.7735,-1.7382,-1.7212,-1.7212,-1.7212,-1.712,-1.6885,-1.6558,-1.5793,-1.4703,-1.435,-1.3938,-1.3459,-1.321,-1.2938,-1.2615,-1.2437,-1.2188,-1.1914,-1.152,-1.1211,-1.1027,-1.0557,-1.0213,-1.0045,-0.9425,-0.9092,-0.9092,-0.9092,-0.9092,-0.9092,-0.9092,-0.9092,-0.9092,-0.9092,-0.9092,-0.9092,-0.9092,-0.9092,-0.9092,-0.9092,-0.9092,-0.9092,-0.9092,-0.9092,-0.9092,-0.9092,-0.9092,-0.9092,-0.9092,-0.9092,-0.9092,-0.9092,-0.9092,-0.9092,-0.9092,-0.9092,-0.9092,-0.9092,-0.9092,-0.9092,-0.9092,-0.9092,-0.9092,-0.9092,-0.9092,-0.9092,-0.9092,-0.9092,-0.9092,-0.9092,-0.9092,-0.9051,-0.8809,-0.8558,-0.8418,-0.7836,-0.7199,-0.7044,-0.673,-0.6134,-0.5818,-0.526,-0.5154,-0.502,-0.4832,-0.4885,-0.4903,-0.4974,-0.4938,-0.4921,-0.4912,-0.4965,-0.4793,-0.4847,-0.4829,-2.438,-2.3602,-2.2769,-2.2178,-2.1734,-2.1001,-2.0699,-2.0699,-2.0699,-2.0699,-2.0699,-2.0699,-2.0699,-2.0699,-2.0699,-2.0478,-1.9995,-1.9081,-1.8453,-1.8074,-1.7682,-1.7395,-1.7225,-1.7212,-1.7212,-1.712,-1.665,-1.5944,-1.5212,-1.4735,-1.4222,-1.3683,-1.3263,-1.2843,-1.2526,-1.2383,-1.2222,-1.2062,-1.1733,-1.1555,-1.1503,-1.1062,-1.0837,-1.0706,-0.9996,-0.9494,-0.9333,-0.9186,-0.9092,-0.9092,-0.9092,-0.9092,-0.9092,-0.9244,-0.9255,-0.9129,-0.9253,-0.9242,-0.9129,-0.9092,-0.9092,-0.9092,-0.9092,-0.9092,-0.9092,-0.9092,-0.9092,-0.9092,-0.9092,-0.9092,-0.9092,-0.9092,-0.9092,-0.9092,-0.9092,-0.9092,-0.9092,-0.9092,-0.9092,-0.9092,-0.9092,-0.9092,-0.9138,-0.9414,-0.9517,-0.9437,-0.9267,-0.9104,-0.9092,-0.9092,-0.9092,-0.9065,-0.8767,-0.8463,-0.8276,-0.7827,-0.7478,-0.7342,-0.7283,-0.6755,-0.6287,-0.5648,-0.5178,-0.4941,-0.4884,-0.4976,-0.5067,-0.5156,-0.5165,-0.5149,-0.5284,-0.542,-0.5193,-0.4947,-0.4938,-2.4112,-2.3916,-2.2872,-2.2388,-2.2178,-2.1158,-2.0699,-2.0699,-2.0699,-2.0699,-2.0699,-2.0699,-2.0699,-2.0699,-2.0699,-2.0673,-2.0515,-1.998,-1.9198,-1.8323,-1.81,-1.7748,-1.7303,-1.7225,-1.7212,-1.7186,-1.6676,-1.6388,-1.6179,-1.5259,-1.4554,-1.4092,-1.3368,-1.2881,-1.2508,-1.2294,-1.2131,-1.2102,-1.2026,-1.2038,-1.2026,-1.1572,-1.1314,-1.1268,-1.0849,-1.0378,-0.9873,-0.9382,-0.9115,-0.914,-0.9104,-0.9092,-0.915,-0.9448,-0.9586,-0.9439,-0.9612,-0.9506,-0.9161,-0.9092,-0.9092,-0.9092,-0.9092,-0.9092,-0.9092,-0.9092,-0.9092,-0.9092,-0.9092,-0.9092,-0.9104,-0.9324,-0.9287,-0.9092,-0.9092,-0.9092,-0.9092,-0.9161,-0.9104,-0.9152,-0.9163,-0.9131,-0.9301,-0.9896,-1.0305,-1.008,-0.9609,-0.9264,-0.9287,-0.9219,-0.9092,-0.9187,-0.9047,-0.8802,-0.8343,-0.7904,-0.769,-0.7516,-0.7511,-0.7274,-0.6966,-0.6447,-0.5988,-0.572,-0.557,-0.5653,-0.586,-0.5914,-0.5729,-0.5711,-0.5829,-0.579,-0.5611,-0.5365,-0.514,-2.4125,-2.3981,-2.2885,-2.2414,-2.2256,-2.1184,-2.0699,-2.0699,-2.0699,-2.0699,-2.0699,-2.0699,-2.0699,-2.0699,-2.0699,-2.0699,-2.0686,-2.0465,-2.0007,-1.9224,-1.8466,-1.8009,-1.7761,-1.7395,-1.7212,-1.7186,-1.7042,-1.6741,-1.6388,-1.5912,-1.5241,-1.4301,-1.3831,-1.3203,-1.255,-1.2377,-1.2269,-1.2113,-1.2084,-1.2084,-1.2084,-1.1946,-1.1836,-1.1842,-1.1687,-1.1377,-1.0837,-0.9724,-0.9301,-0.9549,-0.9264,-0.9092,-0.914,-0.9244,-0.9914,-1.0881,-0.9934,-0.9278,-0.9152,-0.9092,-0.9092,-0.9092,-0.9092,-0.9092,-0.9092,-0.9161,-0.915,-0.9115,-0.9092,-0.9092,-0.9301,-1.0432,-1.0497,-0.9255,-0.9092,-0.9196,-0.9416,-1.0302,-1.0371,-0.9402,-0.9508,-0.9577,-0.9485,-1.0171,-1.0878,-1.0775,-1.0225,-0.9884,-0.9999,-0.9646,-0.9705,-1.0404,-0.9909,-0.9081,-0.8431,-0.7961,-0.7738,-0.7587,-0.7577,-0.751,-0.7281,-0.7111,-0.6689,-0.6443,-0.6309,-0.6319,-0.6547,-0.6507,-0.6279,-0.6106,-0.6048,-0.6011,-0.5966,-0.5838,-0.5686,-2.4125,-2.3981,-2.2872,-2.2401,-2.2256,-2.1171,-2.0699,-2.0699,-2.0699,-2.0699,-2.0699,-2.0699,-2.0699,-2.0699,-2.0699,-2.0699,-2.0699,-2.0699,-2.0373,-1.9734,-1.8872,-1.8218,-1.7813,-1.7395,-1.7212,-1.7212,-1.7199,-1.7029,-1.6702,-1.6381,-1.5808,-1.4999,-1.4544,-1.3877,-1.3023,-1.2812,-1.2589,-1.222,-1.212,-1.2084,-1.2084,-1.2084,-1.2084,-1.2084,-1.2084,-1.1934,-1.1532,-1.0681,-1.0175,-1.008,-0.9807,-0.952,-0.9184,-0.9589,-1.0543,-1.1451,-1.098,-0.9968,-0.9267,-0.9092,-0.9092,-0.9092,-0.9092,-0.9506,-0.9968,-1.0221,-1.0026,-0.9232,-0.9816,-1.0221,-1.0451,-1.1233,-1.1417,-1.0417,-1.029,-1.021,-1.0421,-1.1307,-1.1572,-1.0624,-1.0428,-1.0344,-1.0504,-1.0785,-1.1457,-1.14,-1.1113,-1.0872,-1.0987,-1.067,-1.1001,-1.0981,-1.0232,-0.9358,-0.8453,-0.8033,-0.7765,-0.7657,-0.7596,-0.7469,-0.7295,-0.7238,-0.6998,-0.6942,-0.6821,-0.6767,-0.694,-0.6803,-0.6598,-0.6452,-0.637,-0.6507,-0.6589,-0.6552,-0.6456,-2.4125,-2.3968,-2.2911,-2.244,-2.227,-2.1237,-2.0777,-2.0699,-2.0699,-2.0699,-2.0699,-2.0699,-2.0699,-2.0699,-2.0699,-2.0699,-2.0699,-2.0699,-2.0386,-1.9812,-1.9172,-1.8427,-1.7395,-1.7225,-1.7212,-1.7212,-1.7212,-1.7186,-1.7081,-1.6715,-1.6342,-1.5956,-1.5383,-1.4714,-1.3914,-1.3555,-1.305,-1.2457,-1.2232,-1.2131,-1.2095,-1.2084,-1.2084,-1.2084,-1.2084,-1.2072,-1.1992,-1.1831,-1.144,-1.0734,-1.0493,-1.0137,-0.9715,-1.0454,-1.1308,-1.2015,-1.2049,-1.1014,-0.9738,-0.9391,-0.9414,-0.9563,-0.9669,-0.9991,-1.1503,-1.1635,-1.1141,-0.9888,-1.0939,-1.1888,-1.1877,-1.2026,-1.1992,-1.2049,-1.1739,-1.1791,-1.2003,-1.2067,-1.1877,-1.1842,-1.1566,-1.1331,-1.1739,-1.1934,-1.1992,-1.2003,-1.1923,-1.1865,-1.1854,-1.1576,-1.1553,-1.1069,-1.0332,-0.9762,-0.8885,-0.8681,-0.8404,-0.8092,-0.7996,-0.7844,-0.7414,-0.7279,-0.7249,-0.7211,-0.7196,-0.7196,-0.7159,-0.7004,-0.6967,-0.6913,-0.6977,-0.7159,-0.7132,-0.6995,-0.6958,-2.4125,-2.4034,-2.3302,-2.2753,-2.2323,-2.1564,-2.1053,-2.0713,-2.0699,-2.0699,-2.0699,-2.0699,-2.0699,-2.0699,-2.0699,-2.0699,-2.0699,-2.0699,-2.036,-1.9852,-1.9682,-1.8649,-1.7473,-1.7212,-1.7212,-1.7212,-1.7212,-1.7212,-1.7186,-1.699,-1.6688,-1.6329,-1.5989,-1.5479,-1.4765,-1.4094,-1.3563,-1.3074,-1.2542,-1.2233,-1.2113,-1.2084,-1.2084,-1.2084,-1.2084,-1.2084,-1.2084,-1.2084,-1.1624,-1.0711,-1.0596,-1.0883,-1.1141,-1.1182,-1.1446,-1.1923,-1.1652,-1.1457,-1.1198,-1.0585,-1.0555,-1.1221,-1.1112,-1.1549,-1.1969,-1.2095,-1.1819,-1.1382,-1.19,-1.2084,-1.2084,-1.2084,-1.2084,-1.2084,-1.2084,-1.2084,-1.2084,-1.2084,-1.2084,-1.2061,-1.19,-1.1934,-1.2003,-1.2084,-1.2084,-1.2084,-1.2084,-1.2084,-1.2084,-1.2048,-1.1822,-1.1023,-1.0342,-0.995,-0.9546,-0.9345,-0.906,-0.8681,-0.8527,-0.8472,-0.7856,-0.7225,-0.7211,-0.7196,-0.7196,-0.7196,-0.7214,-0.715,-0.7205,-0.7366,-0.7357,-0.7412,-0.7269,-0.7141,-0.715,-2.4125,-2.406,-2.3443,-2.3027,-2.2635,-2.1838,-2.1328,-2.1027,-2.0779,-2.0699,-2.0699,-2.0699,-2.0699,-2.0699,-2.0699,-2.0699,-2.0699,-2.0699,-2.036,-1.9839,-1.9525,-1.8702,-1.7761,-1.7382,-1.7212,-1.7212,-1.7212,-1.7055,-1.6885,-1.6872,-1.6545,-1.6153,-1.6199,-1.5853,-1.505,-1.4756,-1.4109,-1.3435,-1.2854,-1.244,-1.2118,-1.2084,-1.2084,-1.2084,-1.2084,-1.2084,-1.2084,-1.2084,-1.1796,-1.1359,-1.1279,-1.1509,-1.1969,-1.1762,-1.1698,-1.209,-1.1727,-1.1721,-1.19,-1.1532,-1.1532,-1.1946,-1.2084,-1.259,-1.3073,-1.3027,-1.2651,-1.2107,-1.2107,-1.2084,-1.2084,-1.2084,-1.2084,-1.2084,-1.2084,-1.2095,-1.2095,-1.2084,-1.2084,-1.2084,-1.2084,-1.2084,-1.2084,-1.2084,-1.2084,-1.2084,-1.2084,-1.2084,-1.2084,-1.2048,-1.1829,-1.1069,-1.04,-0.999,-0.9762,-0.9557,-0.9474,-0.9133,-0.8894,-0.8894,-0.8207,-0.7403,-0.7311,-0.7311,-0.7241,-0.7314,-0.7567,-0.7696,-0.7736,-0.781,-0.7727,-0.7702,-0.7684,-0.754,-0.7522,-2.4125,-2.4044,-2.3509,-2.3276,-2.3013,-2.2112,-2.1734,-2.1511,-2.1171,-2.0896,-2.0831,-2.0792,-2.0779,-2.0699,-2.0699,-2.0699,-2.0699,-2.0699,-2.0412,-1.9917,-1.9433,-1.8806,-1.8388,-1.7669,-1.7434,-1.7369,-1.7264,-1.6898,-1.6611,-1.6454,-1.6088,-1.58,-1.6062,-1.586,-1.5272,-1.5184,-1.4613,-1.3767,-1.3271,-1.2862,-1.2528,-1.2429,-1.2406,-1.2268,-1.2118,-1.2095,-1.2084,-1.2084,-1.2026,-1.2072,-1.2084,-1.2038,-1.2095,-1.2113,-1.2118,-1.2171,-1.2171,-1.2199,-1.2107,-1.2015,-1.2015,-1.2118,-1.2337,-1.3096,-1.4247,-1.3811,-1.2831,-1.2159,-1.2095,-1.2279,-1.2624,-1.2394,-1.2084,-1.2176,-1.2222,-1.2463,-1.236,-1.2222,-1.2084,-1.2084,-1.2084,-1.2084,-1.2084,-1.2084,-1.2084,-1.2084,-1.2084,-1.2084,-1.2084,-1.2066,-1.1748,-1.1193,-1.0593,-1.0049,-0.9861,-0.9704,-0.9677,-0.9519,-0.9234,-0.9023,-0.8399,-0.7787,-0.7567,-0.7574,-0.8069,-0.8353,-0.8508,-0.8536,-0.8378,-0.8231,-0.8148,-0.8295,-0.8406,-0.8203,-0.8095,-2.4125,-2.4112,-2.3952,-2.3626,-2.321,-2.2949,-2.2583,-2.2192,-2.2073,-2.1707,-2.1407,-2.1315,-2.1093,-2.0725,-2.0725,-2.0699,-2.0699,-2.0699,-2.0607,-2.0465,-1.9878,-1.959,-1.9198,-1.8427,-1.7931,-1.7787,-1.7408,-1.6924,-1.6519,-1.6336,-1.6088,-1.563,-1.5665,-1.564,-1.5587,-1.5172,-1.4829,-1.4436,-1.3976,-1.3526,-1.3268,-1.3187,-1.3027,-1.2739,-1.2371,-1.2141,-1.2095,-1.2084,-1.2084,-1.2095,-1.213,-1.2199,-1.2194,-1.2493,-1.2567,-1.2463,-1.2636,-1.2636,-1.2263,-1.2187,-1.213,-1.2383,-1.3521,-1.4626,-1.4786,-1.344,-1.2486,-1.2095,-1.2118,-1.2716,-1.39,-1.2935,-1.2475,-1.259,-1.3455,-1.4293,-1.4167,-1.3061,-1.2279,-1.2095,-1.2118,-1.2095,-1.2095,-1.2084,-1.2084,-1.2084,-1.2095,-1.2095,-1.2084,-1.2084,-1.1804,-1.14,-1.0956,-1.0438,-0.999,-0.9832,-0.9723,-0.9703,-0.9501,-0.9344,-0.872,-0.8309,-0.8152,-0.8546,-0.9216,-0.9344,-0.917,-0.9004,-0.8765,-0.8673,-0.8598,-0.8673,-0.8728,-0.8645,-0.8663,-2.4125,-2.4125,-2.4125,-2.39,-2.3587,-2.3313,-2.3041,-2.274,-2.2506,-2.223,-2.1917,-2.1668,-2.1328,-2.1053,-2.083,-2.0699,-2.0699,-2.0699,-2.0699,-2.0633,-2.0334,-2.0229,-2.0061,-1.9316,-1.8689,-1.8179,-1.7813,-1.7212,-1.6598,-1.6349,-1.6088,-1.5591,-1.5659,-1.5768,-1.5779,-1.5414,-1.5137,-1.4717,-1.4392,-1.403,-1.3854,-1.3661,-1.3532,-1.3268,-1.2958,-1.2808,-1.2831,-1.2831,-1.2728,-1.2647,-1.2693,-1.2544,-1.2275,-1.2624,-1.3035,-1.3521,-1.3084,-1.3409,-1.3271,-1.2716,-1.2539,-1.3417,-1.458,-1.427,-1.3902,-1.2601,-1.2222,-1.2084,-1.2256,-1.2869,-1.4741,-1.4396,-1.3578,-1.367,-1.4408,-1.5085,-1.4867,-1.373,-1.2555,-1.2337,-1.2344,-1.2268,-1.2222,-1.2176,-1.2544,-1.2709,-1.2199,-1.2153,-1.2084,-1.2084,-1.2041,-1.173,-1.133,-1.084,-1.0264,-0.9941,-0.9723,-0.9703,-0.9648,-0.9583,-0.9335,-0.9013,-0.8775,-0.9215,-0.9611,-0.9638,-0.9482,-0.9317,-0.9225,-0.9235,-0.917,-0.9078,-0.9069,-0.9161,-0.9207,-2.4125,-2.4125,-2.4125,-2.4112,-2.4034,-2.3576,-2.3352,-2.3276,-2.2872,-2.2701,-2.2452,-2.1942,-2.1786,-2.142,-2.1053,-2.083,-2.0712,-2.0699,-2.0699,-2.0673,-2.0646,-2.0594,-2.0451,-2.0046,-1.9381,-1.844,-1.8257,-1.763,-1.6853,-1.6487,-1.6205,-1.569,-1.5802,-1.5778,-1.5694,-1.5724,-1.5416,-1.4796,-1.4617,-1.4464,-1.4304,-1.4052,-1.3923,-1.3728,-1.3512,-1.3475,-1.3452,-1.3463,-1.3397,-1.3202,-1.3432,-1.3119,-1.2728,-1.2877,-1.3636,-1.4924,-1.404,-1.4017,-1.435,-1.3684,-1.3452,-1.505,-1.4637,-1.3857,-1.259,-1.2222,-1.2118,-1.2084,-1.2245,-1.2912,-1.4775,-1.4878,-1.4924,-1.4993,-1.505,-1.5119,-1.497,-1.4316,-1.3555,-1.2992,-1.2877,-1.2762,-1.2486,-1.236,-1.2881,-1.3214,-1.267,-1.2268,-1.2233,-1.2084,-1.2059,-1.195,-1.1553,-1.0973,-1.038,-0.9931,-0.9742,-0.9804,-0.9785,-0.9758,-0.9749,-0.9491,-0.9243,-0.9436,-0.9684,-0.9703,-0.9703,-0.9565,-0.9556,-0.9693,-0.9629,-0.9427,-0.9501,-0.9675,-0.9629,-2.4125,-2.4125,-2.4125,-2.4125,-2.4099,-2.3979,-2.39,-2.3926,-2.3757,-2.3524,-2.3093,-2.2949,-2.2322,-2.1721,-2.1446,-2.1119,-2.0766,-2.0699,-2.0699,-2.0699,-2.0699,-2.0699,-2.0646,-2.0517,-2.0061,-1.9551,-1.9068,-1.8257,-1.7369,-1.7016,-1.6624,-1.5749,-1.555,-1.55,-1.5467,-1.5281,-1.529,-1.502,-1.4923,-1.4878,-1.4832,-1.4752,-1.4545,-1.4258,-1.3969,-1.3765,-1.3684,-1.3659,-1.359,-1.3544,-1.357,-1.3532,-1.3498,-1.3834,-1.4419,-1.4832,-1.4787,-1.4706,-1.4591,-1.4649,-1.4626,-1.4695,-1.3707,-1.282,-1.2199,-1.213,-1.2222,-1.2371,-1.2463,-1.3027,-1.4878,-1.5119,-1.5119,-1.5119,-1.5119,-1.5119,-1.5062,-1.4867,-1.4649,-1.4212,-1.3785,-1.3233,-1.2889,-1.2766,-1.3248,-1.357,-1.3305,-1.2946,-1.2797,-1.244,-1.2066,-1.192,-1.1719,-1.1086,-1.0438,-1.0009,-0.973,-0.9942,-0.9969,-0.9914,-0.9868,-0.9739,-0.9703,-0.9703,-0.9703,-0.9703,-0.9703,-0.9703,-0.9703,-0.9703,-0.9703,-0.9703,-0.9703,-0.9703,-0.9703,-2.4125,-2.4083,-2.4037,-2.4008,-2.3966,-2.3878,-2.3907,-2.3979,-2.3995,-2.3868,-2.3597,-2.3326,-2.2949,-2.2348,-2.1668,-2.1211,-2.0818,-2.0699,-2.0699,-2.0699,-2.0699,-2.0699,-2.0699,-2.0699,-2.053,-2.0242,-1.9902,-1.9195,-1.8175,-1.7774,-1.7342,-1.6922,-1.639,-1.6033,-1.5802,-1.5669,-1.5354,-1.5232,-1.5108,-1.5108,-1.5119,-1.5119,-1.4947,-1.4752,-1.4556,-1.4396,-1.4373,-1.4385,-1.4396,-1.4396,-1.4396,-1.4385,-1.4442,-1.458,-1.4855,-1.5062,-1.5085,-1.4568,-1.3811,-1.3555,-1.3443,-1.3406,-1.2636,-1.2164,-1.2084,-1.2153,-1.259,-1.3371,-1.365,-1.4006,-1.5039,-1.5108,-1.5119,-1.5119,-1.5119,-1.5119,-1.5119,-1.5119,-1.5119,-1.5062,-1.435,-1.3673,-1.3214,-1.3294,-1.3684,-1.3822,-1.3822,-1.3661,-1.344,-1.2981,-1.2502,-1.205,-1.1845,-1.1273,-1.0645,-1.0152,-1.0116,-1.0327,-1.0318,-1.0263,-1.0015,-0.9905,-0.9776,-0.9703,-0.9703,-0.9703,-0.9703,-0.9703,-0.9703,-0.9703,-0.9703,-0.9703,-0.9703,-0.9703,-0.9703,-2.4083,-2.4067,-2.3949,-2.3891,-2.3832,-2.37,-2.373,-2.3861,-2.3891,-2.3966,-2.4018,-2.3642,-2.3354,-2.2936,-2.2073,-2.125,-2.0844,-2.0779,-2.0699,-2.0699,-2.0699,-2.0699,-2.0699,-2.0699,-2.066,-2.0607,-2.0568,-2.0137,-1.9159,-1.8689,-1.8375,-1.7822,-1.7372,-1.6884,-1.642,-1.6086,-1.569,-1.53,-1.5164,-1.5176,-1.5108,-1.5119,-1.5119,-1.5119,-1.5119,-1.505,-1.4993,-1.4982,-1.4993,-1.5005,-1.5039,-1.5073,-1.5096,-1.5108,-1.5119,-1.5119,-1.5119,-1.4144,-1.3406,-1.2981,-1.3328,-1.3363,-1.3328,-1.334,-1.3271,-1.3615,-1.3432,-1.4752,-1.5005,-1.4902,-1.5085,-1.5119,-1.5119,-1.5119,-1.5119,-1.5119,-1.5119,-1.5119,-1.5119,-1.4913,-1.4511,-1.4247,-1.3891,-1.3914,-1.4327,-1.4419,-1.4431,-1.4465,-1.4189,-1.3696,-1.3168,-1.2483,-1.1996,-1.1463,-1.0908,-1.0348,-1.0576,-1.1122,-1.1017,-1.0906,-1.0474,-1.0079,-1.0089,-1.0245,-0.9703,-0.9703,-0.9703,-0.9721,-0.9703,-0.9703,-0.9703,-0.9703,-0.9703,-0.9703,-0.9703,-2.4024,-2.392,-2.3878,-2.3789,-2.3628,-2.3599,-2.37,-2.3891,-2.3861,-2.3979,-2.4112,-2.3965,-2.3639,-2.3039,-2.2073,-2.1525,-2.1263,-2.0975,-2.0764,-2.0712,-2.0699,-2.0699,-2.0699,-2.0699,-2.0699,-2.0699,-2.0699,-2.0321,-1.976,-1.9551,-1.9028,-1.834,-1.7978,-1.7457,-1.6881,-1.6585,-1.5854,-1.53,-1.5369,-1.5345,-1.5131,-1.5119,-1.5119,-1.5119,-1.5119,-1.5119,-1.5131,-1.5154,-1.5177,-1.5119,-1.5142,-1.5142,-1.5119,-1.5119,-1.5119,-1.5119,-1.5085,-1.5005,-1.4626,-1.4672,-1.473,-1.5028,-1.5968,-1.7054,-1.6231,-1.536,-1.4936,-1.4936,-1.5131,-1.5119,-1.5119,-1.5119,-1.5119,-1.5119,-1.5119,-1.5119,-1.5119,-1.5119,-1.5119,-1.5096,-1.4798,-1.4867,-1.4741,-1.4844,-1.4959,-1.4993,-1.5005,-1.4993,-1.4789,-1.4156,-1.3466,-1.2699,-1.2245,-1.1769,-1.1509,-1.0901,-1.0995,-1.1702,-1.1605,-1.1448,-1.1108,-1.0805,-1.1118,-1.1072,-1.0447,-1.0043,-1.0208,-1.0153,-0.985,-0.9739,-0.9795,-0.9758,-0.9703,-0.9703,-0.9712,-2.3789,-2.373,-2.3641,-2.3582,-2.348,-2.336,-2.348,-2.3688,-2.373,-2.3878,-2.4083,-2.4112,-2.3757,-2.3156,-2.2595,-2.2113,-2.159,-2.1237,-2.0962,-2.0751,-2.0712,-2.0699,-2.0699,-2.0699,-2.0699,-2.0699,-2.0686,-2.0646,-2.0268,-1.993,-1.946,-1.9107,-1.8634,-1.8254,-1.753,-1.7302,-1.6866,-1.6374,-1.5951,-1.5533,-1.5223,-1.5131,-1.5131,-1.5131,-1.5142,-1.512,-1.5211,-1.5441,-1.536,-1.5326,-1.5556,-1.5624,-1.5418,-1.5624,-1.614,-1.6802,-1.6839,-1.6289,-1.5383,-1.6174,-1.6507,-1.6816,-1.7469,-1.7378,-1.6828,-1.6656,-1.6644,-1.6828,-1.5704,-1.5211,-1.5119,-1.5119,-1.5119,-1.5119,-1.5119,-1.5119,-1.5119,-1.5119,-1.5119,-1.5119,-1.5119,-1.5119,-1.5119,-1.5085,-1.505,-1.5062,-1.5073,-1.5051,-1.4744,-1.42,-1.347,-1.2714,-1.2397,-1.2119,-1.2006,-1.171,-1.1528,-1.1926,-1.1935,-1.1807,-1.1742,-1.1706,-1.1798,-1.1862,-1.1485,-1.1154,-1.0943,-1.0484,-1.0079,-0.9969,-0.9905,-0.9896,-0.9877,-0.9739,-0.9739,-2.3467,-2.3467,-2.342,-2.336,-2.33,-2.3168,-2.3258,-2.3539,-2.3599,-2.3776,-2.3995,-2.4083,-2.3822,-2.3459,-2.3195,-2.2673,-2.1955,-2.1629,-2.1276,-2.0988,-2.0777,-2.0699,-2.0699,-2.0699,-2.0699,-2.0699,-2.0699,-2.0673,-2.0568,-2.0294,-1.9995,-1.9812,-1.9246,-1.8761,-1.8344,-1.7913,-1.7436,-1.6965,-1.6381,-1.5936,-1.5624,-1.5556,-1.5521,-1.5463,-1.5372,-1.5337,-1.5498,-1.5635,-1.5624,-1.567,-1.6071,-1.6037,-1.5395,-1.5945,-1.6873,-1.7535,-1.7802,-1.7329,-1.6679,-1.6908,-1.7729,-1.8004,-1.7939,-1.7366,-1.5727,-1.6633,-1.7309,-1.6839,-1.5956,-1.5234,-1.5119,-1.5119,-1.5119,-1.5119,-1.5119,-1.5119,-1.5119,-1.5119,-1.5006,-1.4857,-1.4903,-1.5119,-1.5119,-1.5119,-1.5108,-1.5108,-1.5119,-1.5119,-1.4766,-1.4316,-1.3705,-1.3007,-1.2559,-1.2335,-1.2159,-1.2132,-1.2107,-1.2076,-1.2076,-1.2049,-1.1954,-1.1954,-1.2,-1.2039,-1.2076,-1.1902,-1.1513,-1.0897,-1.0325,-1.0447,-1.0465,-1.0208,-1.0079,-0.9951,-0.9804,-2.3138,-2.3138,-2.3343,-2.33,-2.3138,-2.3108,-2.3198,-2.342,-2.3552,-2.37,-2.3891,-2.4024,-2.4015,-2.3887,-2.3454,-2.3154,-2.296,-2.1955,-2.159,-2.1302,-2.0975,-2.0791,-2.0725,-2.0699,-2.0699,-2.0699,-2.0699,-2.0699,-2.0686,-2.0594,-2.0229,-1.9852,-1.9701,-1.9074,-1.8575,-1.8239,-1.7678,-1.7211,-1.6725,-1.652,-1.6369,-1.6346,-1.6358,-1.63,-1.6107,-1.6038,-1.6415,-1.6209,-1.6014,-1.6026,-1.653,-1.6518,-1.5991,-1.6415,-1.7332,-1.7882,-1.8111,-1.7787,-1.763,-1.7217,-1.7249,-1.7787,-1.7745,-1.6965,-1.5395,-1.5131,-1.5383,-1.5635,-1.5292,-1.52,-1.5119,-1.5119,-1.5119,-1.5119,-1.5119,-1.5119,-1.5119,-1.5119,-1.4971,-1.4674,-1.4674,-1.488,-1.5074,-1.5074,-1.5028,-1.5028,-1.5097,-1.5119,-1.5006,-1.4593,-1.4082,-1.3467,-1.2861,-1.2486,-1.2175,-1.2101,-1.2101,-1.2076,-1.2076,-1.2076,-1.2039,-1.2076,-1.2076,-1.2076,-1.2076,-1.2076,-1.2049,-1.1526,-1.1191,-1.1145,-1.0998,-1.0612,-1.0493,-1.0465,-1.0199,-2.3095,-2.3108,-2.321,-2.3168,-2.3095,-2.3095,-2.321,-2.3373,-2.345,-2.3569,-2.373,-2.376,-2.3776,-2.3728,-2.3742,-2.3407,-2.3069,-2.2789,-2.2164,-2.1629,-2.1263,-2.1014,-2.0869,-2.0751,-2.0699,-2.0725,-2.0687,-2.0438,-2.0177,-2.0635,-2.0321,-2.0023,-2.0169,-1.9909,-1.9396,-1.8658,-1.8005,-1.7436,-1.7125,-1.6968,-1.661,-1.6598,-1.6598,-1.6564,-1.6495,-1.6403,-1.6575,-1.6773,-1.6621,-1.6667,-1.7137,-1.7034,-1.685,-1.7263,-1.7618,-1.8015,-1.8073,-1.8084,-1.8084,-1.7733,-1.7752,-1.7573,-1.7022,-1.5968,-1.52,-1.5131,-1.5119,-1.5154,-1.5211,-1.5372,-1.5177,-1.5142,-1.5119,-1.5119,-1.5211,-1.5292,-1.5372,-1.5521,-1.5383,-1.5274,-1.4863,-1.4662,-1.4869,-1.5028,-1.4983,-1.4949,-1.5028,-1.5097,-1.4983,-1.4857,-1.4339,-1.3988,-1.343,-1.2803,-1.2471,-1.2298,-1.2101,-1.2101,-1.2101,-1.2076,-1.2076,-1.2076,-1.2076,-1.2076,-1.2076,-1.2076,-1.2076,-1.2076,-1.1899,-1.1568,-1.1219,-1.0883,-1.0864,-1.0961,-1.0769,-2.3095,-2.3095,-2.3095,-2.3095,-2.3095,-2.3095,-2.3168,-2.33,-2.336,-2.3492,-2.3599,-2.3586,-2.3586,-2.3658,-2.3704,-2.3667,-2.3308,-2.3069,-2.2659,-2.2229,-2.1864,-2.1564,-2.125,-2.1053,-2.1014,-2.0936,-2.0923,-2.0739,-2.0544,-2.0962,-2.1027,-2.091,-2.074,-2.0527,-1.9876,-1.9212,-1.8437,-1.7929,-1.7617,-1.7473,-1.7091,-1.7103,-1.7103,-1.7068,-1.6965,-1.6988,-1.7105,-1.7243,-1.7232,-1.732,-1.7641,-1.8008,-1.8066,-1.8111,-1.8084,-1.8084,-1.8084,-1.8084,-1.8084,-1.8084,-1.7802,-1.6919,-1.6071,-1.5486,-1.5406,-1.536,-1.52,-1.5853,-1.5911,-1.5945,-1.5922,-1.622,-1.6312,-1.6507,-1.6472,-1.653,-1.6484,-1.6514,-1.6199,-1.5944,-1.5611,-1.5491,-1.5304,-1.547,-1.5099,-1.4991,-1.4834,-1.4903,-1.4903,-1.48,-1.4628,-1.4326,-1.4069,-1.342,-1.2817,-1.2486,-1.22,-1.2175,-1.215,-1.2101,-1.2076,-1.2076,-1.2076,-1.2076,-1.2076,-1.2076,-1.2076,-1.2076,-1.1972,-1.177,-1.1504,-1.1292,-1.1393,-1.1513,-1.149,-2.3095,-2.3095,-2.3095,-2.3095,-2.3095,-2.3095,-2.3108,-2.3168,-2.3313,-2.345,-2.3539,-2.3526,-2.3556,-2.3569,-2.3611,-2.3594,-2.3583,-2.3254,-2.2976,-2.2799,-2.2436,-2.2335,-2.2021,-2.1694,-2.1394,-2.1472,-2.1459,-2.1394,-2.1303,-2.1773,-2.2008,-2.1904,-2.1511,-2.0979,-2.0016,-1.9198,-1.8747,-1.8536,-1.8205,-1.8016,-1.7878,-1.7832,-1.7809,-1.7756,-1.7553,-1.753,-1.7676,-1.7599,-1.7622,-1.7848,-1.7928,-1.8084,-1.8084,-1.8084,-1.8084,-1.8084,-1.8084,-1.8084,-1.8084,-1.8084,-1.7389,-1.6358,-1.5956,-1.5968,-1.6209,-1.6002,-1.5819,-1.6747,-1.7286,-1.7676,-1.7871,-1.7859,-1.7699,-1.7596,-1.7504,-1.7458,-1.7366,-1.7317,-1.6989,-1.645,-1.6704,-1.689,-1.6423,-1.6008,-1.5442,-1.5092,-1.4788,-1.4718,-1.4741,-1.4557,-1.4373,-1.435,-1.414,-1.3729,-1.3084,-1.2574,-1.2289,-1.2258,-1.216,-1.2002,-1.2026,-1.2076,-1.2076,-1.2076,-1.2076,-1.2076,-1.2076,-1.2076,-1.1991,-1.1917,-1.1991,-1.1908,-1.2,-1.1972,-1.1853,-2.3095,-2.3095,-2.3095,-2.3095,-2.3095,-2.3095,-2.3095,-2.3095,-2.3168,-2.3241,-2.3258,-2.3258,-2.3258,-2.3318,-2.342,-2.3522,-2.3518,-2.3585,-2.336,-2.2912,-2.2734,-2.2384,-2.2139,-2.1998,-2.1803,-2.1803,-2.1832,-2.1705,-2.1329,-2.2149,-2.21,-2.1851,-2.2021,-2.1302,-2.0219,-1.9396,-1.8987,-1.8721,-1.8425,-1.8236,-1.8123,-1.8146,-1.8134,-1.8146,-1.7928,-1.7917,-1.8061,-1.7848,-1.7939,-1.8088,-1.8111,-1.8084,-1.8084,-1.8084,-1.8084,-1.8084,-1.8084,-1.8084,-1.8084,-1.805,-1.7855,-1.7206,-1.6965,-1.7057,-1.7469,-1.7343,-1.7458,-1.7676,-1.8146,-1.8318,-1.8054,-1.8004,-1.7939,-1.7951,-1.7917,-1.7928,-1.7867,-1.789,-1.7648,-1.6909,-1.6782,-1.6866,-1.6597,-1.6367,-1.5886,-1.5368,-1.5042,-1.4568,-1.445,-1.4121,-1.3858,-1.4022,-1.3952,-1.3718,-1.3358,-1.2874,-1.2438,-1.2287,-1.202,-1.1728,-1.1803,-1.2002,-1.2026,-1.2002,-1.2051,-1.2076,-1.2076,-1.2076,-1.2076,-1.2067,-1.2076,-1.2076,-1.2073,-1.2055,-1.2036,-2.3095,-2.3095,-2.3095,-2.3095,-2.3095,-2.3095,-2.3095,-2.3095,-2.3095,-2.3095,-2.3095,-2.3095,-2.3095,-2.3138,-2.321,-2.3373,-2.3403,-2.3467,-2.3522,-2.3061,-2.3065,-2.2885,-2.2642,-2.2293,-2.2272,-2.2244,-2.2262,-2.2177,-2.2066,-2.2617,-2.2646,-2.2451,-2.2467,-2.1992,-2.109,-2.0476,-2.0047,-1.9785,-1.9519,-1.9146,-1.8909,-1.867,-1.8409,-1.8341,-1.8226,-1.8084,-1.8111,-1.8111,-1.8084,-1.8084,-1.8084,-1.8084,-1.8084,-1.8084,-1.8084,-1.8084,-1.8084,-1.8084,-1.8084,-1.8084,-1.7981,-1.7939,-1.8084,-1.8306,-1.8398,-1.8157,-1.8157,-1.8352,-1.8707,-1.8513,-1.8283,-1.826,-1.8084,-1.8084,-1.8057,-1.8057,-1.803,-1.803,-1.7755,-1.7071,-1.6591,-1.6658,-1.6705,-1.6574,-1.6297,-1.5798,-1.5306,-1.4818,-1.4363,-1.4105,-1.394,-1.4113,-1.4027,-1.3752,-1.3549,-1.3208,-1.2772,-1.2362,-1.2129,-1.1939,-1.1653,-1.1852,-1.1877,-1.1927,-1.2002,-1.2051,-1.2076,-1.2076,-1.2076,-1.2076,-1.2076,-1.2076,-1.2076,-1.2076,-1.2076,-2.3095,-2.3095,-2.3095,-2.3095,-2.3095,-2.3095,-2.3095,-2.3095,-2.3095,-2.3095,-2.3095,-2.3095,-2.3095,-2.3095,-2.3108,-2.321,-2.3343,-2.336,-2.3382,-2.3446,-2.3357,-2.3331,-2.322,-2.2939,-2.2732,-2.2751,-2.2795,-2.2824,-2.3021,-2.335,-2.3368,-2.3261,-2.321,-2.2828,-2.2325,-2.1975,-2.1461,-2.0952,-2.0391,-2.0022,-1.9735,-1.9275,-1.9011,-1.8827,-1.8581,-1.8341,-1.826,-1.818,-1.8134,-1.8084,-1.8084,-1.8096,-1.8096,-1.8084,-1.8084,-1.8084,-1.8084,-1.8084,-1.8084,-1.8084,-1.8084,-1.8084,-1.8084,-1.8685,-1.9114,-1.8971,-1.8983,-1.9074,-1.9333,-1.8914,-1.8593,-1.8324,-1.8057,-1.8041,-1.7986,-1.7986,-1.7959,-1.781,-1.7507,-1.7071,-1.662,-1.6545,-1.662,-1.656,-1.6454,-1.6266,-1.5842,-1.5637,-1.5175,-1.4685,-1.4568,-1.4687,-1.4459,-1.3923,-1.3635,-1.3394,-1.3003,-1.2529,-1.2714,-1.2559,-1.2202,-1.1724,-1.1653,-1.1728,-1.1902,-1.1977,-1.1952,-1.2002,-1.2026,-1.2026,-1.1977,-1.2051,-1.2051,-1.2076,-1.2076,-2.3095,-2.3095,-2.3095,-2.3095,-2.3095,-2.3095,-2.3095,-2.3095,-2.3095,-2.3095,-2.3095,-2.3095,-2.3095,-2.3095,-2.3095,-2.3138,-2.3168,-2.3198,-2.3185,-2.3258,-2.3288,-2.3258,-2.3182,-2.3098,-2.3005,-2.3052,-2.3124,-2.3204,-2.3301,-2.3743,-2.3923,-2.3848,-2.3744,-2.3629,-2.3519,-2.3446,-2.2644,-2.1854,-2.1231,-2.0858,-2.0462,-1.9942,-1.9663,-1.942,-1.9051,-1.8793,-1.8639,-1.8272,-1.8169,-1.8118,-1.8096,-1.8057,-1.7904,-1.8002,-1.8084,-1.8084,-1.8084,-1.8084,-1.8084,-1.8123,-1.8226,-1.8341,-1.8295,-1.8696,-1.9378,-1.9819,-1.9751,-1.9636,-1.9235,-1.8639,-1.8462,-1.8313,-1.8048,-1.7904,-1.7767,-1.7518,-1.7518,-1.7434,-1.7155,-1.6931,-1.6516,-1.6431,-1.6534,-1.6506,-1.6428,-1.6449,-1.6358,-1.6164,-1.5956,-1.5421,-1.5213,-1.5323,-1.5026,-1.4553,-1.3901,-1.3565,-1.3142,-1.2813,-1.2983,-1.2989,-1.252,-1.2034,-1.1618,-1.1502,-1.1678,-1.1753,-1.1778,-1.1852,-1.1902,-1.1843,-1.1794,-1.1927,-1.2026,-1.2051,-1.2076,-2.3095,-2.3095,-2.3095,-2.3095,-2.3095,-2.3095,-2.3095,-2.3095,-2.3095,-2.3095,-2.3095,-2.3095,-2.3095,-2.3095,-2.3095,-2.3095,-2.3095,-2.3138,-2.3125,-2.3125,-2.3095,-2.3125,-2.3095,-2.3095,-2.3088,-2.3168,-2.321,-2.3255,-2.3463,-2.37,-2.3923,-2.3969,-2.4054,-2.4083,-2.4031,-2.3897,-2.3518,-2.2815,-2.2196,-2.174,-2.1245,-2.0701,-2.0363,-2.0062,-1.9627,-1.9293,-1.9097,-1.8565,-1.8267,-1.8306,-1.8295,-1.803,-1.7933,-1.8068,-1.7951,-1.7979,-1.8447,-1.8349,-1.8279,-1.8627,-1.8879,-1.9195,-1.9223,-1.9161,-1.9557,-1.998,-1.975,-1.9508,-1.8759,-1.8176,-1.8256,-1.8274,-1.7995,-1.7739,-1.7351,-1.6959,-1.6931,-1.6931,-1.6828,-1.6687,-1.6545,-1.6431,-1.6402,-1.6402,-1.6402,-1.6402,-1.6402,-1.634,-1.6278,-1.6091,-1.5908,-1.5992,-1.5637,-1.5197,-1.4569,-1.399,-1.3633,-1.3353,-1.3269,-1.3179,-1.2769,-1.2477,-1.2135,-1.1757,-1.1452,-1.1571,-1.1701,-1.1696,-1.1744,-1.1713,-1.1741,-1.184,-1.1947,-1.2026,-1.2051,-2.3095,-2.3095,-2.3095,-2.3095,-2.3095,-2.3095,-2.3095,-2.3095,-2.3095,-2.3095,-2.3095,-2.3095,-2.3095,-2.3095,-2.3095,-2.3095,-2.3095,-2.3095,-2.3095,-2.3095,-2.3095,-2.3095,-2.3095,-2.3095,-2.3095,-2.3095,-2.3138,-2.3258,-2.342,-2.3641,-2.3789,-2.3878,-2.3936,-2.3995,-2.3995,-2.3995,-2.3706,-2.3398,-2.2997,-2.2623,-2.2285,-2.1729,-2.1032,-2.0708,-2.009,-1.9516,-1.9423,-1.9017,-1.8485,-1.8583,-1.8428,-1.8064,-1.7934,-1.8215,-1.7989,-1.8138,-1.8746,-1.9004,-1.8948,-1.9223,-1.9987,-2.058,-2.1155,-1.9916,-1.9638,-1.9451,-1.9088,-1.9163,-1.8566,-1.8248,-1.8259,-1.8035,-1.7745,-1.749,-1.7155,-1.679,-1.6648,-1.6648,-1.6602,-1.6488,-1.6488,-1.6402,-1.6402,-1.6402,-1.6402,-1.6402,-1.6402,-1.6402,-1.6402,-1.6402,-1.6402,-1.6402,-1.6085,-1.569,-1.5323,-1.4789,-1.4325,-1.4037,-1.3765,-1.3481,-1.316,-1.2928,-1.2714,-1.2126,-1.1524,-1.1567,-1.1636,-1.1782,-1.1912,-1.1903,-1.1903,-1.1822,-1.1896,-1.2032,-1.1963,-2.3095,-2.3095,-2.3095,-2.3095,-2.3095,-2.3095,-2.3095,-2.3095,-2.3095,-2.3095,-2.3095,-2.3095,-2.3095,-2.3095,-2.3095,-2.3095,-2.3095,-2.3095,-2.3095,-2.3095,-2.3095,-2.3095,-2.3095,-2.3095,-2.3095,-2.3095,-2.3138,-2.311,-2.3183,-2.3365,-2.3543,-2.3632,-2.3695,-2.3686,-2.3776,-2.3776,-2.37,-2.3522,-2.3138,-2.2763,-2.2378,-2.183,-2.1191,-2.0999,-2.0537,-2.0193,-2.009,-2.0011,-1.9452,-1.9149,-1.8458,-1.7928,-1.7484,-1.8232,-1.8887,-1.9275,-1.9196,-1.9467,-1.9863,-1.9908,-2.0259,-2.0794,-2.0885,-1.983,-1.9041,-1.8556,-1.8414,-1.8632,-1.8753,-1.8538,-1.8154,-1.7857,-1.7567,-1.7277,-1.713,-1.6806,-1.6547,-1.6547,-1.6537,-1.6402,-1.6402,-1.6402,-1.6402,-1.6454,-1.6402,-1.6402,-1.6402,-1.6402,-1.6402,-1.6402,-1.6402,-1.6402,-1.6402,-1.6095,-1.5817,-1.5459,-1.4951,-1.4359,-1.3932,-1.3722,-1.3511,-1.3048,-1.2569,-1.2064,-1.1636,-1.1919,-1.2142,-1.2169,-1.2241,-1.2147,-1.2104,-1.2079,-1.2087,-1.2192,-1.1999,-2.3095,-2.3095,-2.3095,-2.3095,-2.3095,-2.3095,-2.3095,-2.3095,-2.3095,-2.3095,-2.3095,-2.3095,-2.3095,-2.3095,-2.3095,-2.3095,-2.3095,-2.3095,-2.3095,-2.3095,-2.3095,-2.3095,-2.3095,-2.3095,-2.3095,-2.3083,-2.2794,-2.2715,-2.282,-2.2655,-2.2728,-2.3195,-2.3288,-2.3432,-2.356,-2.3582,-2.3505,-2.3241,-2.2836,-2.2445,-2.2118,-2.1514,-2.106,-2.088,-2.0771,-2.0497,-2.0296,-2.018,-1.9785,-1.9223,-1.8622,-1.8703,-1.8534,-1.8772,-1.926,-1.9618,-1.9746,-1.9761,-2.031,-2.0434,-2.024,-2.0595,-2.0711,-1.9649,-1.934,-1.8887,-1.8501,-1.8756,-1.9867,-1.9885,-1.853,-1.793,-1.7759,-1.7533,-1.7909,-1.803,-1.7937,-1.7926,-1.7283,-1.6402,-1.6402,-1.6402,-1.6519,-1.7015,-1.687,-1.6413,-1.6413,-1.6402,-1.6402,-1.6402,-1.6402,-1.6402,-1.6402,-1.6402,-1.6173,-1.5875,-1.5488,-1.4863,-1.421,-1.3872,-1.3601,-1.2943,-1.2363,-1.2321,-1.2423,-1.2723,-1.2877,-1.2689,-1.244,-1.229,-1.2315,-1.2331,-1.2372,-1.2423,-1.2301,-2.3095,-2.3095,-2.3095,-2.3095,-2.3095,-2.3095,-2.3095,-2.3095,-2.3095,-2.3095,-2.3095,-2.3095,-2.3095,-2.3095,-2.3095,-2.3095,-2.3095,-2.3095,-2.3095,-2.3095,-2.3095,-2.3095,-2.3095,-2.3095,-2.3095,-2.292,-2.2619,-2.246,-2.2376,-2.2375,-2.2571,-2.281,-2.306,-2.3309,-2.359,-2.365,-2.3538,-2.321,-2.2794,-2.2223,-2.1702,-2.1155,-2.0794,-2.0624,-2.0506,-2.0356,-2.002,-1.9749,-1.949,-1.9329,-1.896,-1.9048,-1.9199,-1.9233,-1.9351,-1.9684,-1.9749,-1.976,-1.9998,-2.0225,-2.0106,-2.0107,-2.002,-1.9824,-1.9442,-1.9156,-1.8754,-1.9154,-2.0288,-2.0378,-1.9045,-1.8221,-1.8086,-1.7826,-1.8364,-1.8932,-1.8953,-1.8953,-1.7937,-1.6786,-1.6703,-1.6703,-1.7077,-1.7564,-1.7367,-1.6869,-1.6496,-1.6423,-1.6402,-1.6402,-1.6402,-1.6402,-1.6402,-1.6374,-1.6384,-1.6202,-1.5846,-1.5342,-1.4715,-1.421,-1.3703,-1.3188,-1.2997,-1.3211,-1.3335,-1.3284,-1.3211,-1.3006,-1.2757,-1.2569,-1.2706,-1.2817,-1.28,-1.2826,-1.2774,-2.3095,-2.3095,-2.3095,-2.3095,-2.3095,-2.3095,-2.3095,-2.3095,-2.3095,-2.3095,-2.3095,-2.3095,-2.3095,-2.3095,-2.3095,-2.3095,-2.3095,-2.3095,-2.3095,-2.3095,-2.3095,-2.3095,-2.3145,-2.3221,-2.312,-2.2932,-2.2782,-2.2849,-2.2711,-2.2803,-2.3319,-2.4104,-2.4243,-2.435,-2.4375,-2.4199,-2.3785,-2.3418,-2.2805,-2.2193,-2.1682,-2.112,-2.0571,-2.0248,-1.9922,-1.9824,-1.9638,-1.9374,-1.9387,-1.9444,-1.9393,-1.9337,-1.9347,-1.9422,-1.9487,-1.9432,-1.9473,-1.9473,-1.9605,-1.9769,-1.9671,-1.9506,-1.9473,-1.9407,-1.921,-1.9199,-1.8972,-1.9037,-1.989,-2.0322,-1.9467,-1.8976,-1.8688,-1.8041,-1.8071,-1.8704,-1.9046,-1.9046,-1.8631,-1.8061,-1.7781,-1.7999,-1.8331,-1.859,-1.8559,-1.7937,-1.7128,-1.7004,-1.6663,-1.6539,-1.6547,-1.6423,-1.6433,-1.6402,-1.6402,-1.6384,-1.6087,-1.5643,-1.5108,-1.4449,-1.3902,-1.3571,-1.348,-1.348,-1.348,-1.3421,-1.3339,-1.3237,-1.3254,-1.3134,-1.3262,-1.3348,-1.328,-1.3202,-1.3117]},{"header":{"parameterUnit":"m.s-1","parameterCategory":1,"la1":31.0,"la2":29.5877,"lo1":-88.7671,"lo2":-86.6584,"dy":0.0162,"dx":0.0185,"nx":115,"ny":88,"refTime":"2026-05-14T12:00:00:Z","depth":0,"parameterNumber":3,"parameterNumberName":"V-component_of_WINDS"},"data":[0.0,0.0,0.0,0.0,0.0,0.0,0.0,0.0,0.0,0.0,0.0,0.0,0.0,0.0,0.0,0.0,0.0,0.0,0.0,0.0,0.0,0.0,0.0,0.0,0.0,0.0,0.0,0.0,0.0,0.0,0.0,0.0,0.0,0.0,0.0,0.0,0.0,0.0,0.0,0.0,0.0,0.0,0.0,0.0,0.0,0.0,0.0,0.0,0.0,0.0,0.0,0.0,0.0,0.0,0.0,0.0,0.0,0.0,0.0,0.0,0.0,0.0,0.0,0.0,0.0,0.0,0.0,0.0,0.0,0.0,0.0,0.0,0.0,0.0,0.0,0.0,0.0,0.0,0.0,0.0,0.0,0.0,0.0,0.0,0.0,0.0,0.0,0.0,0.0,0.0,0.0,0.0,0.0,0.0,0.0,0.0,0.0,0.0,0.0,0.0,0.0,0.0,0.0,0.0,0.0,0.0,0.0,0.0,0.0,0.0,0.0,0.0,0.0,0.0,0.0,0.0,0.0,0.0,0.0,0.0,0.0,0.0,0.0,0.0,0.0,0.0,0.0,0.0,0.0,0.0,0.0,0.0,0.0,0.0,0.0,0.0,0.0,0.0,0.0,0.0,0.0,0.0,0.0,0.0,0.0,0.0,0.0,0.0,0.0,0.0,0.0,0.0,0.0,0.0,0.0,0.0,0.0,0.0,0.0,0.0,0.0,0.0,0.0,0.0,0.0,0.0,0.0,0.0,0.0,0.0,0.0,0.0,0.0,0.0,0.0,0.0,0.0,0.0,0.0,0.0,0.0,0.0,0.0,0.0,0.0,0.0,0.0,0.0,0.0,0.0,0.0,0.0,0.0,0.0,0.0,0.0,0.0,0.0,0.0,0.0,0.0,0.0,0.0,0.0,0.0,0.0,0.0,0.0,0.0,0.0,0.0,0.0,0.0,0.0,0.0,0.0,0.0,0.0,0.0,0.0,0.0,0.0,0.0,0.0,0.0,0.0,0.0,0.0,0.0,0.0,0.0,0.0,0.0,0.0,0.0,0.0,0.0,0.0,0.0,0.0,0.0,0.0,0.0,0.0,0.0,0.0,0.0,0.0,0.0,0.0,0.0,0.0,0.0,0.0,0.0,0.0,0.0,0.0,0.0,0.0,0.0,0.0,0.0,0.0,0.0,0.0,0.0,0.0,0.0,0.0,0.0,0.0,0.0,0.0,0.0,0.0,0.0,0.0,0.0,0.0,0.0,0.0,0.0,0.0,0.0,0.0,0.0,0.0,0.0,0.0,0.0,0.0,0.0,0.0,0.0,0.0,0.0,0.0,0.0,0.0,0.0,0.0,0.0,0.0,0.0,0.0,0.0,0.0,0.0,0.0,0.0,0.0,0.0,0.0,0.0,0.0,0.0,0.0,0.0,0.0,0.0,0.0,0.0,0.0,0.0,0.0,0.0,0.0,0.0,0.0,0.0,0.0,0.0,0.0,0.0,0.0,0.0,0.0,0.0,0.0,0.0,0.0,0.0,0.0,0.0,0.0,0.0,0.0,0.0,0.0,0.0,0.0,0.0,0.0,0.0,0.0,0.0,0.0,0.0,0.0,0.0,0.0,0.0,0.0,0.0,0.0,0.0,0.0,0.0,0.0,0.0,0.0,0.0,0.0,0.0,0.0,0.0,0.0,0.0,0.0,0.0,0.0,0.0,0.0,0.0,0.0,0.0,0.0,0.0,0.0,0.0,0.0,0.0,0.0,0.0,0.0,0.0,0.0,0.0,0.0,0.0,0.0,0.0,0.0,0.0,0.0,0.0,0.0,0.0,0.0,0.0,0.0,0.0,0.0,0.0,0.0,0.0,0.0,0.0,0.0,0.0,0.0,0.0,0.0,0.0,0.0,0.0,0.0,0.0,0.0,0.0,0.0,0.0,0.0,0.0,0.0,0.0,0.0,0.0,0.0,0.0,0.0,0.0,0.0,0.0,0.0,0.0,0.0,0.0,0.0,0.0,0.0,0.0,0.0,0.0,0.0,0.0,0.0,0.0,0.0,0.0,0.0,0.0,0.0,0.0,0.0,0.0,0.0,0.0,0.0,0.0,0.0,0.0,0.0,0.0,0.0,0.0,0.0,0.0,0.0,0.0,0.0,0.0,0.0,0.0,0.0,0.0,0.0,0.0,0.0,0.0,0.0,0.0,0.0,0.0,0.0,0.0,0.0,0.0,0.0,0.0,0.0,0.0,0.0,0.0,0.0,0.0,0.0,0.0,0.0,0.0,0.0,0.0,0.0,0.0,0.0,0.0,0.0,0.0,0.0,0.0,0.0,0.0,0.0,0.0,0.0,0.0,0.0,0.0,0.0,0.0,0.0,0.0,0.0,0.0,0.0,0.0,0.0,0.0,0.0,0.0,0.0,0.0,0.0,0.0,0.0,0.0,0.0,0.0,0.0,0.0,0.0,0.0,0.0,0.0,0.0,0.0,0.0,0.0,0.0,0.0,0.0,0.0,0.0,0.0,0.0,0.0,0.0,0.0,0.0,0.0,0.0,0.0,0.0,0.0,0.0,0.0,0.0,0.0,0.0,0.0,0.0,0.0,0.0,0.0,0.0,0.0,0.0,0.0,0.0,0.0,0.0,0.0,0.0,0.0,0.0,0.0,0.0,0.0,0.0,0.0,0.0,0.0,0.0,0.0,0.0,0.0,0.0,0.0,0.0,0.0,0.0,0.0,0.0,0.0,0.0,0.0,0.0,0.0,0.0,0.0,0.0,0.0,0.0,0.0,0.0,0.0,0.0,0.0,0.0,0.0,0.0,0.0,0.0,0.0,0.0,0.0,0.0,0.0,0.0,0.0,0.0,0.0,0.0,0.0,0.0,0.0,0.0,0.0,0.0,0.0,0.0,0.0,0.0,0.0,0.0,0.0,0.0,0.0,0.0,0.0,0.0,0.0,0.0,0.0,0.0,0.0,0.0,0.0,0.0,0.0,0.0,0.0,0.0,0.0,0.0,0.0,0.0,0.0,0.0,0.0,0.0,0.0,0.0,0.0,0.0,0.0,0.0,0.0,0.0,0.0,0.0,0.0,0.0,0.0,0.0,0.0,0.0,0.0,0.0,0.0,0.0,0.0,0.0,0.0,0.0,0.0,0.0,0.0,0.0,0.0,0.0,0.0,0.0,0.0,0.0,0.0,0.0,0.0,0.0,0.0,0.0,0.0,0.0,0.0,0.0,0.0,0.0,0.0,0.0,0.0,0.0,0.0,0.0,0.0,0.0,0.0,0.0,0.0,0.0,0.0,0.0,0.0,0.0,0.0,0.0,0.0,0.0,0.0,0.0,0.0,0.0,0.0,0.0,0.0,0.0,0.0,0.0,0.0,0.0,0.0,0.0,0.0,0.0,0.0,0.0,0.0,0.0,0.0,0.0,0.0,0.0,0.0,0.0,0.0,0.0,0.0,0.0,0.0,0.0,0.0,0.0,0.0,0.0,0.0,0.0,0.0,0.0,0.0,0.0,0.0,0.0,0.0,0.0,0.0,0.0,0.0,0.0,0.0,0.0,0.0,0.0,0.0,0.0,0.0,0.0,0.0,0.0,0.0,0.0,0.0,0.0,0.0,0.0,0.0,0.0,0.0,0.0,0.0,0.0,0.0,0.0,0.0,0.0,0.0,0.0,0.0,0.0,0.0,0.0,0.0,0.0,0.0,0.0,0.0,0.0,0.0,0.0,0.0,0.0,0.0,0.0,0.0,0.0,0.0,0.0,0.0,0.0,0.0,0.0,0.0,0.0,0.0,0.0,0.0,0.0,0.0,0.0,0.0,0.0,0.0,0.0,0.0,0.0,0.0,0.0,0.0,0.0,0.0,0.0,0.0,0.0,0.0,0.0,0.0,0.0,0.0,0.0,0.0,0.0,0.0,0.0,0.0,0.0,0.0,0.0,0.0,0.0,0.0,0.0,0.0,0.0,0.0,0.0,0.0,0.0,0.0,0.0,0.0,0.0,0.0,0.0,0.0,0.0,0.0,0.0,0.0,0.0,0.0,0.0,0.0,0.0,0.0,0.0,0.0,0.0,0.0,0.0,0.0,0.0,0.0,0.0,0.0,0.0,0.0,0.0,0.0,0.0,0.0,0.0,0.0,0.0,0.0,0.0,0.0,0.0,0.0,0.0,0.0,0.0,0.0,0.0,0.0,0.0,0.0,0.0,0.0,0.0,0.0,0.0,0.0,0.0,0.0,0.0,0.0,0.0,0.0,0.0,0.0,0.0,0.0,0.0,0.0,0.0,0.0,0.0,0.0,0.0,0.0,0.0,0.0,0.0,0.0,0.0,0.0,0.0,0.0,0.0,0.0,0.0,0.0,0.0,0.0,0.0,0.0,0.0,0.0,0.0,0.0,0.0,0.0,0.0,0.0,0.0,0.0,0.0,0.0,0.0,0.0,0.0,0.0,0.0,0.0,0.0,0.0,0.0,0.0,0.0,0.0,0.0,0.0,0.0,0.0,0.0,0.0,0.0,0.0,0.0,0.0,0.0,0.0,0.0,0.0,0.0,0.0,0.0,0.0,0.0,0.0,0.0,0.0,0.0,0.0,0.0,0.0,0.0,0.0,0.0,0.0,0.0,0.0,0.0,0.0,0.0,0.0,0.0,0.0,0.0,0.0,0.0,0.0,0.0,0.0,0.0,0.0,0.0,0.0,0.0,0.0,0.0,0.0,0.0,0.0,0.0,0.0,0.0,0.0,0.0,0.0,0.0,0.0,0.0,0.0,0.0,0.0,0.0,0.0,0.0,0.0,0.0,0.0,0.0,0.0,0.0,0.0,0.0,0.0,0.0,0.0,0.0,0.0,0.0,0.0,0.0,0.0,0.0,0.0,0.0,0.0,0.0,0.0,0.0,0.0,0.0,0.0,0.0,0.0,0.0,0.0,0.0,0.0,0.0,0.0,0.0,0.0,0.0,0.0,0.0,0.0,0.0,0.0,0.0,0.0,0.0,0.0,0.0,0.0,0.0,0.0,0.0,0.0,0.0,0.0,0.0,0.0,0.0,0.0,0.0,0.0,0.0,0.0,0.0,0.0,0.0,0.0,0.0,0.0,0.0,0.0,0.0,0.0,0.0,0.0,0.0,0.0,0.0,0.0,0.0,0.0,0.0,0.0,0.0,0.0,0.0,0.0,0.0,0.0,0.0,0.0,0.0,0.0,0.0,0.0,0.0,0.0,0.0,0.0,0.0,0.0,0.0,0.0,0.0,0.0,0.0,0.0,0.0,0.0,0.0,0.0,0.0,0.0,0.0,0.0,0.0,0.0391,0.0,0.0,0.0,0.0,0.0,0.0,0.0,0.0,0.0,0.0,0.0,0.0,0.0,0.0,0.0,0.0,0.0,0.0,0.0,0.0,0.0,0.0,0.0,0.0,0.0,0.0,0.0,0.0,0.0,0.0,0.0,0.0,0.0,0.0,0.0,0.0,0.0,0.0,0.0,0.0,0.0,0.0,0.0,0.0,0.0,0.0,0.0,0.0,0.0,0.0,0.0,0.0,0.0,0.0,0.0,0.0,0.0,0.0,0.0,0.0,0.0,0.0,0.0,0.0,0.0,0.0,0.0,0.0,0.0,0.0,0.0,0.0,0.0,0.0,0.0,0.0,0.0,0.0,0.0,0.0,0.0,0.0,0.0,0.0,0.0,0.0,0.0,0.0,0.0,0.0,0.0,0.0,0.0,0.0,0.0,0.0,0.0,0.0,0.0,0.0,0.0,0.0,0.0,0.0,0.0,0.0,0.0,0.0,0.0,0.0,0.0,0.0,0.4645,0.4586,0.1619,0.0,0.0,0.0,0.0,0.0,0.0,0.0,0.0,0.0,0.0,0.0,0.0,0.0,0.0,0.0,0.0,0.0,0.0,0.0,0.0,0.0,0.0,0.0,0.0,0.0,0.0,0.0,0.0,0.0,0.0,0.0,0.0,0.0,0.0,0.0,0.0,0.0,0.0,0.0,0.0,0.0,0.0,0.0,0.0,0.0,0.0,0.0,0.0,0.0,0.0,0.0,0.0,0.0,0.0,0.0,0.0,0.0,0.0,0.0,0.0,0.0,0.0,0.0,0.0,0.0,0.0,0.0,0.0,0.0,0.0,0.0,0.0,0.0,0.0,0.0,0.0,0.0,0.0,0.0,0.0,0.0,0.0,0.0,0.0,0.0,0.0,0.0,0.0,0.0,0.0,0.0,0.0,0.0,0.0,0.0,0.0,0.0,0.0,0.0,0.0,0.0,0.0,0.0,0.0,0.0,0.0,0.0,0.0,0.0,0.0,0.0,0.0,0.466,0.5972,0.2111,0.0,0.0,0.0,0.0,0.0,0.0,0.0,0.0,0.0,0.0,0.0,0.0,0.0,0.0,0.0,0.0,0.0,0.0,0.0,0.0,0.0,0.0,0.0,0.0,0.0,0.0,0.0,0.0,0.0,0.0,0.0,0.0,0.0,0.0,0.0,0.0,0.0,0.0,0.0,0.0,0.0,0.0,0.0,0.0,0.0,0.0,0.0,0.0,0.0,0.0,0.0,0.0,0.0,0.0,0.0,0.0,0.0,0.0,0.0,0.0,0.0,0.0,0.0,0.0,0.0,0.0,0.0,0.0,0.0,0.0,0.0,0.0,0.0,0.0,0.0,0.0,0.0,0.0,0.0,0.0,0.0,0.0,0.0,0.0,0.0,0.0,0.0,0.0,0.0,0.0,0.0,0.0,0.0,0.0,0.0,0.0,0.0,0.0,0.0,0.0,0.0,0.0,0.0,0.0,0.0,0.0,0.0,0.0,0.0,0.0,0.0,0.2978,0.0,0.5902,0.2926,0.0804,0.0,0.0,0.0,0.0,0.0,0.0,0.0,0.0,0.0,0.0,0.0,0.0,0.0,0.0,0.0,0.0,0.0,0.0,0.0,0.0,0.0,0.0,0.0,0.0,0.0,0.0,0.0,0.0,0.0,0.0,0.0,0.0,0.0,0.0,0.0,0.0,0.0,0.0,0.0,0.0,0.0,0.0,0.0,0.0,0.0,0.0,0.0,0.0,0.0,0.0,0.0,0.0,0.0,0.0,0.0,0.0,0.0,0.0,0.0,0.0,0.0,0.0,0.0,0.0,0.0,0.0,0.0,0.0,0.0,0.0,0.0,0.0,0.0,0.0,0.0,0.0,0.0,0.0,0.0,0.0,0.0,0.0,0.0,0.0,0.0,0.0,0.0,0.0,0.0,0.0,0.0,0.0,0.0,0.0,0.0,0.0,0.0,0.0,0.0,0.0,0.0,0.0,0.0,0.0,0.0,0.0,0.0,0.0,0.0,0.0,0.2175,0.389,0.5086,0.4414,0.2748,0.0,0.0,0.0,0.0,0.0,0.0,0.0,0.0,0.0,0.0,0.0,0.0,0.0,0.0,0.0,0.0,0.0,0.0,0.0,0.0,0.0,0.0,0.0,0.0,0.0,0.0,0.0,0.0,0.0,0.0,0.0,0.0,0.0,0.0,0.0,0.0,0.0,0.0,0.0,0.0,0.0,0.0,0.0,0.0,0.0,0.0,0.0,0.0,0.0,0.0,0.0,0.0,0.0,0.0,0.0,0.0,0.0,0.0,0.0,0.0,0.0,0.0,0.0,0.0,0.0,0.0,0.0,0.0,0.0,0.0,0.0,0.0,0.0,0.0,0.0,0.0,0.0,0.0,0.0,0.0,0.0,0.0,0.0,0.0,0.0,0.0,0.0,0.0,0.0,0.0,0.0,0.0,0.0,0.0,0.0,0.0,0.0,0.0,0.0,0.0,0.0,0.0,0.0,0.0,0.0,0.0,0.0,0.0,0.0,0.0,0.0782,0.2073,0.3871,0.5092,0.4589,0.0,0.0,0.0,0.0,0.0,0.0,0.0,0.0,0.0,0.0,0.0,0.0,0.0,0.0,0.0,0.0,0.0,0.0,0.0,0.0,0.0,0.0,0.0,0.0,0.0,0.0,0.0,0.0,0.0,0.0,0.0,0.0,0.0,0.0,0.0,0.0,0.0,0.0,0.0,0.0,0.0,0.0,0.0,0.0,0.0,0.0,0.0,0.0,0.0,0.0,0.0,0.0,0.0,0.0,0.0,0.0,0.0,0.0,0.0,0.0,0.0,0.0,0.0,0.0,0.0,0.0,0.0,0.0,0.0,0.0,0.0,0.0,0.0,0.0,0.0,0.0,0.0,0.0,0.0,0.0,0.0,0.0,0.0,0.0,0.0,0.0,0.0,0.0,0.0,0.0,0.0,0.0,0.0,0.0,0.0,0.0,0.0,0.0,0.0,0.0,0.0,0.0,0.0,0.0,0.0,0.0,0.0,0.0,0.0,0.1111,0.0,0.1471,0.0,0.4019,0.4143,0.0,0.0,0.0,0.0,0.0,0.0,0.0,0.0,0.0,0.0,0.0,0.0,0.0,0.0,0.0,0.0,0.0,0.0,0.0,0.0,0.0,0.0,0.0,0.0,0.0,0.0,0.0,0.0,0.0,0.0,0.0,0.0,0.0,0.0,0.0,0.0,0.0,0.0,0.0,0.0,0.0,0.0,0.0,0.0,0.0,0.0,0.0,0.0,0.0,0.0,0.0,0.0,0.0,0.0,0.0,0.0,0.0,0.0,0.0,0.0,0.0,0.0,0.0,0.0,0.0,0.0,0.0,0.0,0.0,0.0,0.0,0.0,0.0,0.0,0.0,0.0,0.0,0.0,0.0,0.0,0.0,0.0,0.0,0.0,0.0,0.0,0.0,0.0,0.0,0.0,0.0,0.0,0.0,0.0,0.0,0.0,0.0,0.0,0.0,0.0,0.0,0.0,0.0,0.0,0.0,0.0,0.0,0.0,0.3393,0.3403,0.3335,0.2328,0.0183,0.1251,0.1215,0.0,0.0,0.0,0.0,0.0,0.0,0.0,0.0,0.0,0.0,0.0,0.0,0.0,0.0,0.0,0.0,0.0,0.0,0.0,0.0,0.0,0.0,0.0,0.0,0.0,0.0,0.0,0.0,0.0,0.0,0.0,0.0,0.0,0.0,0.0,0.0,0.0,0.0,0.0,0.0,0.0,0.0,0.0,0.0,0.0,0.0,0.0,0.0,0.0,0.0,0.0,0.0,0.0,0.0,0.0,0.0,0.0,0.0,0.0,0.0,0.0,0.0,0.0,0.0,0.0,0.0,0.0,0.0,0.0,0.0,0.0,0.0,0.0,0.0,0.0,0.0,0.0,0.0,0.0,0.0,0.0,0.0,0.0,0.0,0.0,0.0,0.0,0.0,0.0,0.0,0.0,0.0,0.0,0.0,0.0,0.0,0.0,0.0,0.0,0.0,0.0,0.0,0.0,0.0,0.0,0.0,0.0,0.0,0.0,0.4639,0.382,0.3075,0.2341,0.1153,0.0356,0.0,0.0,0.0,0.0,0.0,0.0,0.0,0.0,0.0,0.0,0.0,0.0,0.0,0.0,0.0,0.0,0.0,0.0,0.0,0.0,0.0,0.0,0.0,0.0,0.0,0.0,0.0,0.0,0.0,0.0,0.0,0.0,0.0,0.0,0.0,0.0,0.0,0.0,0.0,0.0,0.0,0.0,0.0,0.0,0.0,0.0,0.0,0.0,0.0,0.0,0.0,0.0,0.0,0.0,0.0,0.0,0.0,0.0,0.0,0.0,0.0,0.0,0.0,0.0,0.0,0.0,0.0,0.0,0.0,0.0,0.0,0.0,0.0,0.0,0.0,0.0,0.0,0.0,0.0,0.0,0.0,0.0,0.0,0.0,0.0,0.0,0.0,0.0,0.0,0.0,0.0,0.0,0.0,0.0,0.0,0.0,0.0,0.0,0.0,0.0,0.0,0.0,0.0,0.0,0.0,0.0,0.0,0.0,0.0,0.5337,0.4518,0.3865,0.3399,0.2003,0.0851,0.0,0.0,0.0,0.0,0.0,0.0,0.0,0.0,0.0,0.0,0.0,0.0,0.0,0.0,0.0,0.0,0.0,0.0,0.0,0.0,0.0,0.0,0.0,0.0,0.0,0.0,0.0,0.0,0.0,0.0,0.0,0.0,0.0,0.0,0.0,0.0,0.0,0.0,0.0,0.0,0.0,0.0,0.0,0.0,0.0,0.0,0.0,0.0,0.0,0.0,0.0,0.0,0.0,0.0,0.0,0.0,0.0,0.0,0.0,0.0,0.0,0.0,0.0,0.0,0.0,0.0,0.0,0.0,0.0,0.0,0.0,0.0,0.0,0.0,0.0,0.0,0.0,0.0,0.0,0.0,0.0,0.0,0.0,0.0,0.0,0.0,0.0,0.0,0.0,0.0,0.0,0.0,0.0,0.0,0.0,0.0,0.0,0.0,0.0,0.0,0.0,0.0,0.0,0.0,0.0,0.0,0.0,0.0,0.0,0.5572,0.538,0.4739,0.355,0.3416,0.2383,0.0,0.0,0.0,0.0,0.0,0.0,0.0,0.0,0.0,0.0,0.0,0.0,0.0,0.0,0.0,0.0,0.0,0.0,0.0,0.0,0.0,0.0,0.0,0.0,0.0,0.0,0.0,0.0,0.0,0.0,0.0,0.0,0.0,0.0,0.0,0.0,0.0,0.0,0.0,0.0,0.0,0.0,0.0,0.0,0.0,0.0,0.0,0.0,0.0,0.0,0.0,0.0,0.0,0.0,0.0,0.0,0.0,0.0,0.0,0.0,0.0,0.0,0.0,0.0,0.0,0.0,0.0,0.0,0.0,0.0,0.0,0.0,0.0,0.0,0.0,0.0,0.0,0.0,0.0,0.0,0.0,0.0,0.0,0.0,0.0,0.0,0.0,0.0,0.0,0.0,0.0,0.0,0.0,0.0,0.0,0.0,0.0,0.0,0.0,0.0,0.0,0.0,0.0,0.0,0.0,0.0,0.0,0.0,0.0,0.5469,0.6109,0.5889,0.4773,0.3868,0.3125,0.0,0.0,0.0,0.0,0.0,0.0,0.0,0.0,0.0,0.0,0.0,0.0,0.0,0.0,0.0,0.0,0.0,0.0,0.0,0.0,0.0,0.0,0.0,0.0,0.0,0.0,0.0,0.0,0.0,0.0,0.0,0.0,0.0,0.0,0.0,0.0,0.0,0.0,0.0,0.0,0.0,0.0,0.0,0.0,0.0,0.0,0.0,0.0,0.0,0.0,0.0,0.0,0.0,0.0,0.0,0.0,0.0,0.0,0.0,0.0,0.0,0.0,0.0,0.0,0.0,0.0,0.0,0.0,0.0,0.0,0.0,0.0,0.0,0.0,0.0,0.0,0.0,0.0,0.0,0.0,0.0,0.0,0.0,0.0,0.0,0.0,0.0,0.0,0.0,0.0,0.0,0.0,0.0,0.0,0.0,0.0,0.0,0.0,0.0,0.0,0.0,0.0,0.0,0.0,0.0,0.0,0.0,0.0,0.5568,0.5344,0.6356,0.6461,0.5555,0.4651,0.3993,0.0,0.0,0.0,0.0,0.0,0.0,0.0,0.0,0.0,0.0,0.0,0.0,0.0,0.0,0.0,0.0,0.0,0.0,0.0,0.0,0.0,0.0,0.0,0.0,0.0,0.0,0.0,0.0,0.0,0.0,0.0,0.0,0.0,0.0,0.0,0.0,0.0,0.0,0.0,0.0,0.0,0.0,0.0,0.0,0.0,0.0,0.0,0.0,0.0,0.0,0.0,0.0,0.0,0.0,0.0,0.0,0.0,0.0,0.0,0.0,0.0,0.0,0.0,0.0,0.0,0.0,0.0,0.0,0.0,0.0,0.0,0.0,0.0,0.0,0.0,0.0,0.0,0.0,0.0,0.0,0.0,0.0,0.0,0.0,0.0,0.0,0.0,0.0,0.0,0.0,0.0,0.0,0.0,0.0,0.0,0.0,0.0,0.0,0.0,0.0,0.0,0.0,0.0,0.0,0.0,0.0,0.0,0.0,0.5528,0.5299,0.635,0.6642,0.6101,0.5581,0.4872,0.0,0.0,0.0,0.0,0.0,0.0,0.0,0.0,0.0,0.0,0.0,0.0,0.0,0.0,0.0,0.0,0.0,0.0,0.0,0.0,0.0,0.0,0.0,0.0,0.0,0.0,0.0,0.0,0.0,0.0,0.0,0.0,0.0,0.0,0.0,0.0,0.0,0.0,0.0,0.0,0.0,0.0,0.0,0.0,0.0,0.0,0.0,0.0,0.0,0.0,0.0,0.0,0.0,0.0,0.0,0.0,0.0,0.0,0.0,0.0,0.0,0.0,0.0,0.0,0.0,0.0,0.0,0.0,0.0,0.0,0.0,0.0,0.0,0.0,0.0,0.0,0.0,0.0,0.0,0.0,0.0,0.0,0.0,0.0,0.0,0.0,0.0,0.0,0.0,0.0,0.0,0.0,0.0,0.0,0.0,0.0,0.0,0.0,0.0,0.0,0.0,0.0,0.0,0.0,0.0,0.0,0.0,0.0,0.5483,0.5822,0.6529,0.6834,0.6716,0.6142,0.5254,0.0,0.0,0.0,0.0,0.0,0.0,0.0,0.0,0.0,0.0,0.0,0.0,0.0,0.0,0.0,0.0,0.0,0.0,0.0,0.0,0.0,0.0,0.0,0.0,0.0,0.0,0.0,0.0,0.0,0.0,0.0,0.0,0.0,0.0,0.0,0.0,0.0,0.0,0.0,0.0,0.0,0.0,0.0,0.0,0.0,0.0,0.0,0.0,0.0,0.0,0.0,0.0,0.0,0.0,0.0,0.0,0.0,0.0,0.0,0.0,0.0,0.0,0.0,0.0,0.0,0.0,0.0,0.0,0.0,0.0,0.0,0.0,0.0,0.0,0.0,0.0,0.0,0.0,0.0,0.0,0.0,0.0,0.0,0.0,0.0,0.0,0.0,0.0,0.0,0.0,0.0,0.0,0.0,0.0,0.0,0.0,0.0,0.0,0.0,0.0,0.0,0.0,0.0,0.0,0.0,0.0,0.0,0.0,0.545,0.5984,0.659,0.6916,0.6954,0.664,0.5995,0.0,0.0,0.0,0.0,0.0,0.0,0.0,0.0,0.0,0.0,0.0,0.0,0.0,0.0,0.0,0.0,0.0,0.0,0.0,0.0,0.0,0.0,0.0,0.0,0.0,0.0,0.0,0.0,0.0,0.0,0.0,0.0,0.0,0.0,0.0,0.0,0.0,0.0,0.0,0.0,0.0,0.0,0.0,0.0,0.0,0.0,0.0,0.0,0.0,0.0,0.0,0.0,0.0,0.0,0.0,0.0,0.0,0.0,0.0,0.0,0.0,0.0,0.0,0.0,0.0,0.0,0.0,0.0,0.0,0.0,0.0,0.0,0.0,0.0,0.0,0.0,0.0,0.0,0.0,0.0,0.0,0.0,0.0,0.0,0.0,0.0,0.0,0.0,0.0,0.0,0.0,0.0,0.0,0.0,0.0,0.0,0.0,0.0,0.0,0.0,0.0,0.0,0.0,0.0,0.0,0.0,0.0,0.5086,0.5529,0.6144,0.6666,0.6922,0.6894,0.6889,0.658,0.5904,0.0,0.0,0.0,0.0,0.0,0.0,0.0,0.0,0.0,0.0,0.0,0.0,0.0,0.0,0.0,0.0,0.0,0.0,0.0,0.0,0.0,0.0,0.0,0.0,0.0,0.0,0.0,0.0,0.0,0.0,0.0,0.0,0.0,0.0,0.0,0.0,0.0,0.0,0.0,0.0,0.0,0.0,0.0,0.0,0.0,0.0,0.0,0.0,0.0,0.0,0.0,0.0,0.0,0.0,0.0,0.0,0.0,0.0,0.0,0.0,0.0,0.0,0.0,0.0,0.0,0.0,0.0,0.0,0.0,0.0,0.0,0.0,0.0,0.0,0.0,0.0,0.0,0.0,0.0,0.0,0.0,0.0,0.0,0.0,0.0,0.0,0.0,0.0,0.0,0.0,0.0,0.0,0.0,0.0,0.0,0.0,0.0,0.0,0.0,0.0,0.0,0.0,0.0,0.0,0.0,0.5674,0.542,0.5794,0.6804,0.6983,0.6844,0.6355,0.638,0.6073,0.5398,0.0,0.0,0.0,0.0,0.0,0.0,0.0,0.0,0.0,0.0,0.0,0.0,0.0,0.0,0.0,0.0,0.0,0.0,0.0,0.0,0.0,0.0,0.0,0.0,0.0,0.0,0.0,0.0,0.0,0.0,0.0,0.0,0.0,0.0,0.0,0.0,0.0,0.0,0.0,0.0,0.0,0.0,0.0,0.0,0.0,0.0,0.0,0.0,0.0,0.0,0.0,0.0,0.0,0.0,0.0,0.0,0.0,0.0,0.0,0.0,0.0,0.0,0.0,0.0,0.0,0.0,0.0,0.0,0.0,0.0,0.0,0.0,0.0,0.0,0.0,0.0,0.0,0.0,0.0,0.0,0.0,0.0,0.0,0.0,0.0,0.0,0.0,0.0,0.0,0.0,0.0,0.0,0.0,0.0,0.0,0.0,0.0,0.0,0.0,0.0,0.0,0.0,0.0,0.0,0.0,0.5554,0.5483,0.5976,0.7093,0.7174,0.691,0.6331,0.6311,0.6,0.0,0.0,0.0,0.0,0.0,0.0,0.0,0.0,0.0,0.0,0.0,0.0,0.0,0.0,0.0,0.0,0.0,0.0,0.0,0.0,0.0,0.0,0.0,0.0,0.0,0.0,0.0,0.0,0.0,0.0,0.0,0.0,0.0,0.0,0.0,0.0,0.0,0.0,0.0,0.0,0.0,0.0,0.0,0.0,0.0,0.0,0.0,0.0,0.0,0.0,0.0,0.0,0.0,0.0,0.0,0.0,0.0,0.0,0.0,0.0,0.0,0.0,0.0,0.0,0.0,0.0,0.0,0.0,0.0,0.0,0.0,0.0,0.0,0.0,0.0,0.0,0.0,0.0,0.0,0.0,0.0,0.0,0.0,0.0,0.0,0.0,0.0,0.0,0.0,0.0,0.0,0.0,0.0,0.0,0.0,0.0,0.0,0.0,0.0,0.0,0.0,0.0,0.0,0.0,0.0,0.0,0.5207,0.5442,0.6058,0.7098,0.7287,0.7008,0.6288,0.629,0.5928,0.0,0.0,0.0,0.0,0.0,0.0,0.0,0.0,0.0,0.0,0.0,0.0,0.0,0.0,0.0,0.0,0.0,0.0,0.0,0.0,0.0,0.0,0.0,0.0,0.0,0.0,0.0,0.0,0.0,0.0,0.0,0.0,0.0,0.0,0.0,0.0,0.0,0.0,0.0,0.0,0.0,0.0,0.0,0.0,0.0,0.0,0.0,0.0,0.0,0.0,0.0,0.0,0.0,0.0,0.0,0.0,0.0,0.0,0.0,0.0,0.0,0.0,0.0,0.0,0.0,0.0,0.0,0.0,0.0,0.0,0.0,0.0,0.0,0.0,0.0,0.0,0.0,0.0,0.0,0.0,0.0,0.0,0.0,0.0,0.0,0.0,0.0,0.0,0.0,0.0,0.0,0.0,0.0,0.0,0.0,0.0,0.0,0.0,0.0,0.0,0.0,0.0,0.0,0.0,0.0,0.0,0.477,0.5382,0.5971,0.6575,0.7235,0.6999,0.5829,0.6049,0.5644,0.0,0.0,0.0,0.0,0.0,0.0,0.0,0.0,0.0,0.0,0.0,0.0,0.0,0.0,0.0,0.0,0.0,0.0,0.0,0.0,0.0,0.0,0.0,0.0,0.0,0.0,0.0,0.0,0.0,0.0,0.0,0.0,0.0,0.0,0.0,0.0,0.0,0.0,0.0,0.0,0.0,0.0,0.0,0.0,0.0,0.0,0.0,0.0,0.0,0.0,0.0,0.0,0.0,0.0,0.0,0.0,0.0,0.0,0.0,0.0,0.0,0.0,0.0,0.0,0.0,0.0,0.0,0.0,0.0,0.0,0.0,0.0,0.0,0.0,0.0,0.0,0.0,0.0,0.0,0.0,0.0,0.0,0.0,0.0,0.0,0.0,0.0,0.0,0.0,0.0,0.0,0.0,0.0,0.0,0.0,0.0,0.0,0.0,0.0,0.0,0.0,0.0,0.0,0.0,0.0,0.4392,0.535,0.5706,0.6336,0.7268,0.7613,0.7169,0.5915,0.6161,0.5677,0.0,0.0,0.0,0.0,0.0,0.0,0.0,0.0,0.0,0.0,0.0,0.0,0.0,0.0,0.0,0.0,0.0,0.0,0.0,0.0,0.0,0.0,0.0,0.0,0.0,0.0,0.0,0.0,0.0,0.0,0.0,0.0,0.0,0.0,0.0,0.0,0.0,0.0,0.0,0.0,0.0,0.0,0.0,0.0,0.0,0.0,0.0,0.2561,0.2534,0.0,0.0,0.0,0.0,0.0,0.0,0.0,0.0,0.0,0.0,0.0,0.0,0.0,0.0,0.0,0.0,0.0,0.0,0.0,0.0,0.0,0.0,0.0,0.0,0.0,0.0,0.0,0.0,0.0,0.0,0.0,0.0,0.0,0.0,0.0,0.0,0.0,0.0,0.0,0.0,0.0,0.0,0.0,0.0,0.0,0.0,0.0,0.0,0.0,0.0,0.0,0.0,0.0,0.0,0.0,0.0,0.0,0.5656,0.5888,0.6551,0.7631,0.7845,0.7311,0.6045,0.6091,0.0,0.0,0.0,0.0,0.0,0.0,0.0,0.0,0.0,0.0,0.0,0.0,0.0,0.0,0.0,0.0,0.0,0.0,0.0,0.0,0.0,0.0,0.0,0.0,0.0,0.0,0.0,0.0,0.0,0.0,0.0,0.0,0.0,0.0,0.0,0.0,0.0,0.0,0.0,0.0,0.0,0.0,0.0269,0.1017,0.113,0.114,0.0,0.0,0.4465,0.4479,0.2595,0.0882,0.0,0.0,0.0,0.0,0.0,0.0,0.0,0.0,0.0,0.0,0.0,0.0,0.0,0.0,0.0,0.0,0.0,0.0,0.0,0.0,0.0,0.0,0.0,0.0,0.0,0.0,0.0,0.0,0.0,0.0,0.0,0.0,0.0,0.0,0.0,0.0,0.0,0.0,0.0,0.0,0.0,0.0,0.0,0.0,0.0,0.0,0.0,0.0,0.0,0.0,0.0,0.0,0.0,0.0,0.0,0.5057,0.5682,0.6357,0.7052,0.7674,0.7357,0.6035,0.5591,0.5076,0.0,0.0,0.0,0.0,0.0,0.0,0.0,0.0,0.0,0.0,0.0,0.0,0.0,0.0,0.0,0.0,0.0,0.0,0.0,0.0,0.0,0.0,0.0,0.0,0.0,0.0,0.0,0.0,0.0,0.0,0.0,0.0,0.0,0.0,0.0,0.0,0.0,0.0,0.0,0.0,0.0,0.1031,0.3803,0.4197,0.4175,0.0,0.0,0.4345,0.4401,0.43,0.3248,0.0462,0.0,0.0,0.0,0.0,0.0,0.0,0.0,0.0,0.0,0.0,0.0,0.0,0.0,0.0,0.0,0.0,0.0,0.0,0.0,0.0,0.0,0.0,0.0,0.0,0.0,0.0,0.0,0.0,0.0,0.0,0.0,0.0,0.0,0.0,0.0,0.0,0.0,0.0,0.0,0.0,0.0,0.0,0.0,0.0,0.0,0.0,0.0,0.0,0.0,0.0,0.0,0.0,0.0,0.4613,0.5665,0.5931,0.659,0.7636,0.7945,0.7617,0.6718,0.5808,0.529,0.0,0.0,0.0,0.0,0.0,0.0,0.0,0.0,0.0,0.0,0.0,0.0,0.0,0.0,0.0,0.0,0.0,0.0,0.0,0.0,0.0,0.0,0.0,0.0,0.0,0.0,0.0,0.0,0.0,0.0,0.0,0.0,0.0,0.0,0.0,0.0,0.0,0.0,0.0,0.0,0.0,0.3026,0.4214,0.4365,0.0,0.0,0.4297,0.4265,0.4319,0.4391,0.3861,0.2118,0.235,0.0,0.0,0.0,0.0,0.0,0.0,0.0,0.0,0.0,0.0,0.0,0.0,0.0,0.0,0.0,0.0,0.0,0.0,0.0,0.0,0.0,0.0,0.0,0.0,0.0,0.0,0.0,0.0,0.0,0.0,0.0,0.0,0.0,0.0,0.0,0.0,0.0,0.0,0.0,0.0,0.0,0.0,0.0,0.0,0.0,0.0,0.0,0.0,0.0,0.0,0.0,0.0,0.5147,0.61,0.6294,0.6941,0.8079,0.8079,0.7779,0.7104,0.6326,0.5794,0.0,0.0,0.0,0.0,0.0,0.0,0.0,0.0,0.0,0.0,0.0,0.0,0.0,0.0,0.0,0.0,0.0,0.0,0.0,0.0,0.0,0.0,0.0,0.0,0.0,0.0,0.0,0.0,0.0,0.0,0.0,0.0,0.0,0.0,0.0,0.0,0.0,0.0,0.0,0.0,0.0,0.4201,0.4275,0.4272,0.4246,0.4249,0.4197,0.4187,0.4233,0.4321,0.416,0.3519,0.0,0.0,0.0,0.0,0.0,0.0,0.0,0.0,0.0,0.0,0.0,0.0,0.0,0.0,0.0,0.0,0.0,0.0,0.0,0.0,0.0,0.0,0.0,0.0,0.0,0.0,0.0,0.0,0.0,0.0,0.0,0.0,0.0,0.0,0.0,0.0,0.0,0.0,0.0,0.0,0.0,0.0,0.0,0.0,0.0,0.0,0.0,0.0,0.0,0.0,0.0,0.0,0.0,0.0,0.61,0.6732,0.7406,0.8063,0.8079,0.7792,0.715,0.7079,0.6565,0.5506,0.0,0.0,0.0,0.0,0.0,0.0,0.0,0.0,0.0,0.0,0.0,0.0,0.0,0.0,0.0,0.0,0.0,0.0,0.0,0.0,0.0,0.0,0.0,0.0,0.0,0.0,0.0,0.0,0.0,0.0,0.0,0.0,0.0,0.0,0.0,0.0,0.0,0.0,0.0,0.4087,0.4155,0.4272,0.4193,0.4104,0.4108,0.4116,0.4092,0.4102,0.423,0.4328,0.0,0.0,0.0,0.0,0.0,0.0,0.0,0.0,0.0,0.0,0.0,0.0,0.0,0.0,0.0,0.0,0.0,0.0,0.0,0.0,0.0,0.0,0.0,0.0,0.0,0.0,0.0,0.5866,0.6483,0.0,0.0,0.0,0.0,0.0,0.0,0.0,0.0,0.0,0.0,0.0,0.7589,0.7687,0.0,0.0,0.0,0.0,0.0,0.0,0.0,0.0,0.0,0.0,0.0,0.0,0.5782,0.6115,0.6753,0.7422,0.807,0.8079,0.7986,0.7777,0.7323,0.6353,0.4759,0.0,0.0,0.0,0.0,0.0,0.0,0.0,0.0,0.0,0.0,0.0,0.0,0.0,0.0,0.0,0.0,0.0,0.0,0.0,0.0,0.0,0.0,0.0,0.0,0.0,0.0,0.0,0.0,0.0,0.0,0.0,0.0,0.0,0.0,0.0,0.0,0.0,0.3565,0.4029,0.4089,0.4117,0.4173,0.4125,0.409,0.0,0.0,0.0,0.0,0.0,0.0,0.0,0.0,0.0,0.0,0.0,0.0,0.0,0.0,0.3174,0.4169,0.3516,0.2212,0.0344,0.0,0.0,0.0,0.0,0.0,0.0,0.0,0.0,0.0,0.0,0.0,0.0,0.0,0.0,0.0,0.0,0.7179,0.0,0.0,0.0,0.0,0.0,0.0,0.0,0.0,0.9581,0.9523,0.9127,0.9001,0.8726,0.0,0.902,0.8787,0.0,0.0,0.0,0.0,0.0,0.0,0.0,0.0,0.6299,0.6334,0.7064,0.7669,0.8063,0.8079,0.8079,0.8079,0.7503,0.6473,0.5048,0.5003,0.4813,0.0,0.0,0.0,0.0,0.0,0.0,0.0,0.0,0.0,0.0,0.0,0.0,0.0,0.0,0.0,0.0,0.0,0.0,0.0,0.0,0.0,0.0,0.0,0.0,0.0,0.0,0.0,0.0,0.0,0.0,0.0,0.0,0.0,0.1652,0.297,0.409,0.409,0.409,0.409,0.409,0.0,0.0,0.0,0.0,0.0,0.0,0.0,0.4135,0.4246,0.4334,0.4362,0.4396,0.2777,0.2062,0.3905,0.0,0.0,0.4304,0.4223,0.3616,0.1844,0.1785,0.2417,0.382,0.409,0.409,0.0,0.0,0.0,0.0,0.0,0.0,0.0,0.0,0.934,0.9776,0.0,0.8881,0.0,0.0,0.0,0.0,0.0,0.0,0.0,0.0,1.0349,1.0278,1.0275,0.9765,0.9523,0.9571,1.0149,1.0219,0.9799,0.8571,0.0,0.0,0.0,0.0,0.0,0.0,0.7586,0.6751,0.7638,0.8125,0.8109,0.8079,0.8079,0.8079,0.7574,0.6975,0.6336,0.5699,0.5045,0.4366,0.448,0.0,0.0,0.0,0.0,0.0,0.0,0.0,0.0,0.0,0.0,0.0,0.0,0.0,0.0,0.0,0.0,0.0,0.0,0.0,0.0,0.0,0.0,0.0,0.0,0.0,0.0,0.0,0.0,0.0,0.0,0.0,0.3983,0.4113,0.414,0.4186,0.0,0.0,0.0,0.0,0.516,0.7684,0.5874,0.417,0.4111,0.4091,0.412,0.4179,0.0,0.0,0.4395,0.4276,0.4112,0.411,0.4104,0.4139,0.4269,0.4193,0.4099,0.4131,0.3039,0.2625,0.374,0.409,0.409,1.6059,0.0,0.0,0.0,0.0,1.347,1.3161,1.2514,1.2337,1.2737,1.3418,1.1952,0.0,0.0,0.0,0.0,0.0,0.0,1.0746,1.175,1.167,1.1383,1.0974,1.1307,1.1249,1.0876,1.1111,1.118,1.0975,1.0161,0.9058,0.7724,0.0,0.0,0.0,0.0,0.7936,0.6797,0.8069,0.858,0.8094,0.8079,0.8079,0.8079,0.7497,0.7074,0.6857,0.5792,0.508,0.4876,0.4465,0.0,0.0,0.0,0.0,0.0,0.0,0.0,0.0,0.0,0.0,0.0,0.0,0.0,0.0,0.0,0.0,0.0,0.0,0.0,0.0,0.0,0.0,0.0,0.0,0.0,0.0,0.0,0.0,0.0,0.0,0.0,0.4094,0.4637,0.5145,0.0,0.0,0.4444,0.5404,0.6346,0.7231,0.8001,0.0,0.0,0.0,0.4131,0.4116,0.4198,0.4214,0.4262,0.4317,0.4249,0.4175,0.4118,0.409,0.4108,0.4146,0.4144,0.4148,0.4156,0.3809,0.3616,0.3996,0.409,0.409,1.8891,1.7067,1.6965,1.6135,1.492,1.5125,1.4582,1.3541,1.3777,1.4378,1.5169,1.417,1.3875,1.3993,1.2464,0.0,0.0,0.0,1.2166,1.3072,1.2814,1.2564,1.2413,1.2578,1.2472,1.2161,1.2257,1.2269,1.2195,1.15,1.0786,1.0004,0.0,0.0,0.7852,0.8768,0.8912,0.8303,0.9049,0.9227,0.8657,0.8294,0.8079,0.8079,0.77,0.7246,0.6716,0.5935,0.5248,0.4726,0.4365,0.4235,0.0,0.0,0.0,0.0,0.0,0.0,0.0,0.0,0.0,0.0,0.0,0.0,0.0,0.0,0.0,0.0,0.0,0.0543,0.1886,0.2017,0.0,0.0,0.0,0.0,0.0,0.0,0.0,0.4867,0.4443,0.4324,0.4854,0.5847,0.6583,0.6864,0.5736,0.5189,0.5987,0.0,0.8079,0.8079,0.7418,0.6646,0.5894,0.4859,0.4149,0.4208,0.4169,0.4182,0.4243,0.4188,0.4138,0.4111,0.409,0.409,0.409,0.409,0.4104,0.4154,0.4137,0.4099,0.4094,0.409,0.409,2.0654,2.1046,1.9885,1.7998,1.585,1.6358,1.5545,1.3932,1.4515,1.5371,1.6314,1.5762,1.5776,1.6082,1.4282,0.0,0.0,1.3176,1.3701,1.4268,1.373,1.3689,1.4069,1.3538,1.3292,1.3302,1.3355,1.3355,1.3232,1.2581,1.2245,1.2145,1.0517,0.9725,0.977,0.9943,1.027,1.066,1.0347,0.9965,0.9535,0.8649,0.8193,0.8186,0.8125,0.7502,0.6263,0.6126,0.5501,0.4274,0.4249,0.427,0.4217,0.0,0.0,0.0,0.0,0.0,0.0,0.0,0.0,0.0,0.0,0.0,0.0,0.0,0.0,0.0,0.0335,0.0,0.4742,0.5028,0.0,0.0,0.0,0.4608,0.423,0.4204,0.4755,0.6199,0.0,0.0,0.0,0.0,0.8123,0.8101,0.7043,0.6269,0.6274,0.7326,0.8079,0.8079,0.8079,0.8092,0.7836,0.5941,0.434,0.4216,0.4145,0.4142,0.4175,0.4155,0.4098,0.4094,0.409,0.409,0.409,0.409,0.409,0.4097,0.409,0.409,0.409,0.409,0.409,2.233,2.2432,2.2127,2.1083,1.9667,1.9798,1.9043,1.7824,1.8448,1.8361,1.7737,1.7577,1.7023,1.611,1.4732,1.4282,1.4573,1.3759,1.3715,1.4268,1.4152,1.3864,1.3548,1.3823,1.371,1.3267,1.3278,1.3237,1.306,1.2838,1.2502,1.2049,1.1674,1.1107,1.0384,1.101,1.1127,1.0718,1.0804,1.0564,0.9965,0.9242,0.8857,0.8857,0.8356,0.7708,0.6897,0.6378,0.5718,0.4909,0.4458,0.4205,0.4204,0.424,0.0,0.0,0.0,0.0,0.0,0.0,0.0,0.0,0.0,0.0908,0.3035,0.0,0.3194,0.0,0.3202,0.3542,0.4328,0.4416,0.0,0.0,0.5647,0.4317,0.4208,0.4204,0.512,0.7533,0.5668,0.4314,0.4633,0.6757,0.8223,0.8108,0.7825,0.7625,0.7656,0.7856,0.8079,0.8079,0.8079,0.8101,0.7984,0.65,0.4958,0.4232,0.4128,0.4092,0.4117,0.4122,0.4089,0.409,0.409,0.409,0.409,0.409,0.409,0.409,0.409,0.409,0.409,0.409,0.409,2.3285,2.3316,2.3018,2.2482,2.1815,2.1235,2.0277,1.9174,1.9812,1.9522,1.8608,1.8608,1.8042,1.7052,1.6356,1.5907,1.5646,1.495,1.4674,1.4747,1.4747,1.4544,1.4197,1.453,1.4486,1.4113,1.407,1.397,1.3798,1.3431,1.3081,1.276,1.2279,1.1795,1.1346,1.1663,1.165,1.1282,1.1162,1.0909,1.0518,0.9597,0.9096,0.9081,0.8449,0.7792,0.7141,0.6762,0.6286,0.5606,0.4993,0.4505,0.4226,0.4255,0.3709,0.0,0.0,0.0,0.0,0.0,0.0,0.0,0.0,0.0,0.0,0.0,0.4204,0.0,0.4204,0.0,0.4204,0.5298,0.6642,0.8135,0.6937,0.6028,0.6008,0.6023,0.6605,0.8109,0.6969,0.6023,0.6071,0.7355,0.8289,0.8196,0.8135,0.8079,0.8079,0.8079,0.8079,0.8079,0.8079,0.8079,0.8079,0.7323,0.6228,0.4967,0.4354,0.4084,0.409,0.409,0.409,0.409,0.409,0.409,0.409,0.409,0.409,0.409,0.4082,0.4089,0.4094,0.409,0.409,2.3807,2.3847,2.3273,2.2975,2.2801,2.1714,2.0524,1.9391,2.0059,1.9928,1.9232,1.9232,1.8898,1.8299,1.8245,1.7577,1.6474,1.6372,1.601,1.5428,1.5399,1.5385,1.5283,1.5283,1.5268,1.5162,1.5058,1.4921,1.478,1.4124,1.3774,1.3677,1.2732,1.2297,1.2407,1.2149,1.2024,1.2023,1.1509,1.1231,1.1226,0.9936,0.9219,0.9212,0.851,0.7792,0.7129,0.7179,0.6901,0.6239,0.5659,0.4977,0.4261,0.4311,0.4564,0.0,0.3856,0.0,0.0,0.0,0.0,0.0,0.0,0.0,0.0,0.4204,0.4267,0.4433,0.4632,0.4727,0.4727,0.689,0.8302,0.8302,0.8302,0.8302,0.8293,0.8302,0.8302,0.8302,0.8302,0.8302,0.8214,0.8302,0.8302,0.8289,0.8203,0.8135,0.8101,0.8079,0.8079,0.8079,0.8079,0.8079,0.8101,0.8104,0.7503,0.5899,0.5048,0.4359,0.4144,0.409,0.409,0.409,0.409,0.409,0.409,0.409,0.409,0.409,0.4091,0.4094,0.4092,0.4097,0.409,2.4042,2.3891,2.3775,2.3389,2.2873,2.2627,2.1808,2.0683,2.1351,2.0988,1.9943,1.9914,1.9532,1.8912,1.8433,1.8071,1.7795,1.7255,1.6646,1.6039,1.6023,1.5762,1.5298,1.5283,1.5223,1.5043,1.5013,1.4921,1.4793,1.4498,1.4177,1.3866,1.3599,1.3347,0.0,0.0,0.0,0.0,1.2036,1.2,1.1953,1.0644,0.9927,0.9896,0.8772,0.0,0.7156,0.7179,0.6886,0.6254,0.6085,0.0,0.0,0.0,0.0,0.0,0.0,0.0,0.0,0.0,0.0,0.0,0.6261,0.6568,0.4433,0.4204,0.4668,0.5729,0.6853,0.7517,0.7539,0.7976,0.8302,0.8302,0.8302,0.8302,0.8302,0.8302,0.8302,0.8302,0.8302,0.8302,0.8302,0.8302,0.8302,0.8302,0.8273,0.8223,0.813,0.8101,0.8094,0.8079,0.8101,0.8079,0.8079,0.8123,0.7774,0.6753,0.6433,0.571,0.4494,0.4156,0.4102,0.4102,0.409,0.409,0.409,0.409,0.4094,0.409,0.4096,0.4089,0.4098,0.4082,0.4094,2.4661,0.0,2.4176,2.3702,0.0,2.3055,2.2548,2.1968,2.2287,2.1743,2.0538,2.0233,1.9725,1.9072,1.8782,1.8491,1.8201,1.7853,1.7345,1.6675,1.6372,1.6053,1.5734,1.5458,1.5223,1.5088,1.5043,1.4921,1.4779,1.4608,1.4396,1.4195,1.3902,1.3726,1.3669,1.3151,1.2677,1.2246,1.221,1.2216,1.2159,1.1152,1.0613,1.06,0.0,0.0,0.0,0.0,0.0,0.0,0.0,0.0,0.0,0.0,0.0,0.6475,0.7301,0.6923,0.5146,0.522,0.5623,0.6207,0.7523,0.7723,0.6304,0.6209,0.6209,0.6231,0.7474,0.8302,0.8302,0.8302,0.8302,0.8302,0.8302,0.8302,0.8302,0.8302,0.8302,0.8302,0.8302,0.8302,0.8302,0.8302,0.8302,0.8302,0.8302,0.8298,0.8209,0.8128,0.8123,0.815,0.8123,0.8108,0.815,0.8123,0.7861,0.7227,0.7273,0.6812,0.5371,0.5081,0.4894,0.4294,0.409,0.409,0.409,0.4089,0.4087,0.4103,0.4125,0.4139,0.4137,0.4149,0.4135,2.5325,2.5691,2.4568,2.3992,2.3833,2.3163,2.2888,2.2888,0.0,0.0,0.0,2.0654,2.0001,1.929,1.9275,1.8941,1.839,1.8361,1.798,1.7342,1.6692,1.6314,1.6168,1.5588,1.5253,1.5207,1.5088,1.4951,1.481,1.4641,1.4578,1.4537,1.4123,1.4008,1.4155,1.3535,1.295,1.2505,1.2318,1.2205,1.2184,1.1505,1.115,1.1194,1.0034,0.9429,0.9491,0.8845,0.8503,0.8483,0.7837,0.7723,0.8227,0.6996,0.6849,0.8128,0.7744,0.6889,0.5771,0.6433,0.7295,0.8249,0.8302,0.8302,0.8302,0.8302,0.7834,0.6673,0.7628,0.8302,0.8302,0.8302,0.8302,0.8302,0.8302,0.8302,0.8302,0.8302,0.8302,0.8302,0.8302,0.8302,0.8302,0.8302,0.8302,0.8325,0.8492,0.8444,0.8327,0.8209,0.8162,0.8211,0.8184,0.8149,0.8178,0.8157,0.7925,0.7528,0.7843,0.7768,0.6837,0.6481,0.5863,0.4346,0.4122,0.4111,0.4094,0.411,0.4178,0.4286,0.4235,0.4246,0.4349,0.4304,0.4208,2.5508,2.5759,2.5038,2.4413,2.3871,2.3186,2.2888,2.2888,2.2888,2.2504,2.1859,2.1772,2.1096,1.9957,1.9957,1.9609,1.8985,1.897,1.8651,0.0,1.7371,1.6764,1.6168,1.5573,1.5268,1.5193,1.5178,1.5071,1.4902,1.4794,1.4779,1.4825,1.4756,1.4716,1.467,1.4132,1.3651,1.3244,1.2609,1.2256,1.22,1.1588,1.124,1.1172,1.0586,1.0246,1.023,0.9599,0.9235,0.9219,0.8569,0.8214,0.8277,0.8049,0.8049,0.8268,0.8198,0.8046,0.7846,0.7978,0.8132,0.8277,0.8302,0.8302,0.8302,0.8302,0.8198,0.8024,0.8182,0.8302,0.8302,0.834,0.8334,0.8388,0.8318,0.8302,0.8302,0.8302,0.834,0.8397,0.8302,0.8365,0.8318,0.8356,0.8435,0.8467,0.9022,0.9221,0.8612,0.8296,0.8282,0.8289,0.8282,0.8249,0.8225,0.8214,0.8113,0.8098,0.8204,0.8249,0.7856,0.78,0.7048,0.4727,0.4525,0.4352,0.4227,0.415,0.4523,0.4955,0.4745,0.455,0.5081,0.4756,0.43,2.5588,2.5951,2.5106,2.4616,2.4302,2.3331,2.2888,2.2888,2.2888,2.2548,2.2019,2.2004,2.1481,2.0596,2.0233,1.9928,1.9624,1.9261,1.8941,1.8622,1.7661,1.704,1.6677,1.5747,1.5283,1.5253,1.5268,1.5178,1.5071,1.495,1.495,1.5056,1.5208,1.533,1.5398,1.4534,1.3973,1.3825,1.2842,1.2327,1.2307,1.2001,1.1839,1.1839,1.1257,1.0956,1.0933,1.0294,0.9931,0.9939,0.9386,0.8833,0.8334,0.8302,0.8302,0.8302,0.8302,0.8302,0.8302,0.9725,1.0563,1.0587,1.0571,1.0579,1.0587,0.9179,0.8309,0.8302,0.8302,0.8958,1.0302,0.9219,0.888,1.046,0.9283,0.8325,0.8302,0.8302,0.8594,0.9354,1.0128,0.9986,0.846,0.8966,0.9426,0.9496,0.9876,0.9884,0.9544,1.0089,0.9978,0.8673,0.8302,0.8311,0.8272,0.8265,0.8278,0.8305,0.8393,0.8409,0.8364,0.8434,0.797,0.7058,0.658,0.6117,0.5506,0.5396,0.5615,0.5749,0.5774,0.5724,0.5827,0.5118,0.4362,2.5398,2.5889,2.4908,2.4465,2.4278,2.3308,2.2888,2.2888,2.2888,2.2649,2.2251,2.2207,2.1844,2.1191,2.0582,2.0233,2.003,1.9406,1.9101,1.8985,1.794,1.7417,1.7316,1.6255,1.5646,1.5515,1.5501,1.5383,1.5207,1.5088,1.5118,1.5283,1.5492,1.574,1.5981,1.4918,1.432,1.4146,1.3176,1.256,1.2399,1.2363,1.2353,1.2362,1.191,1.164,1.162,1.098,1.0633,1.061,1.012,0.9513,0.8817,0.846,0.8388,0.8609,0.9014,0.9251,0.9362,1.1235,1.2514,1.2514,1.2514,1.2514,1.2315,1.0539,0.914,0.8998,0.9228,1.0231,1.1724,1.0626,1.0137,1.2094,1.0627,0.9449,0.9283,0.9235,0.9607,1.0831,1.1857,1.1472,0.9686,0.9702,1.0381,1.0538,1.0523,1.0491,1.0917,1.1879,1.1408,0.9923,0.8761,0.8435,0.8467,0.8388,0.8357,0.8412,0.8488,0.8503,0.8522,0.8595,0.8704,0.86,0.8488,0.7912,0.7086,0.6955,0.6942,0.6862,0.6603,0.6529,0.6437,0.5293,0.4375,2.4763,2.4952,2.4498,2.3779,2.3134,2.2946,2.2888,2.2888,2.2888,2.2873,2.2772,2.2815,2.2475,2.1859,2.1206,2.0625,2.0103,1.9406,1.9116,1.9043,1.8419,1.8114,1.7995,1.733,1.6721,1.6184,1.6081,1.576,1.5265,1.5207,1.5283,1.5448,1.5566,1.574,1.5891,1.5428,1.4856,1.4208,1.3673,1.3073,1.245,1.2449,1.2443,1.2393,1.2396,1.2394,1.2331,1.1699,1.1305,1.1257,1.0688,1.0317,1.0097,0.903,0.8691,0.9553,1.1131,1.2135,1.2104,1.2347,1.2514,1.2514,1.2514,1.2514,1.2514,1.2246,1.1715,1.1124,1.1582,1.2088,1.2457,1.2135,1.2009,1.2341,1.2135,1.2119,1.193,1.211,1.2173,1.2268,1.2362,1.1895,1.0594,1.0444,1.0712,1.1248,1.0949,1.0996,1.1889,1.2268,1.2467,1.163,1.0105,0.8845,0.9003,0.8704,0.8438,0.846,0.8587,0.8624,0.8595,0.8624,0.8747,0.8812,0.88,0.8558,0.856,0.8605,0.8281,0.7712,0.7269,0.6766,0.6521,0.5658,0.4813,2.501,2.5294,2.4612,2.376,2.2975,2.2888,2.2888,2.2888,2.2888,2.2888,2.2888,2.2888,2.2743,2.2461,2.1446,2.0857,2.0567,1.958,1.9116,1.9043,1.8477,1.8201,1.8129,1.7502,1.7055,1.6764,1.6385,1.6066,1.5775,1.5472,1.5403,1.5566,1.5653,1.5812,1.5966,1.5465,1.5052,1.4822,1.3921,1.3315,1.3042,1.2684,1.2479,1.2475,1.2485,1.2514,1.2499,1.2195,1.2047,1.2031,1.1794,1.1447,1.1012,1.0847,1.0713,1.0625,1.1762,1.2514,1.2514,1.2514,1.2514,1.2514,1.2514,1.2514,1.2514,1.2514,1.2315,1.2062,1.2283,1.2514,1.2514,1.2514,1.2514,1.2514,1.2514,1.2514,1.2514,1.2514,1.2514,1.2514,1.2514,1.2331,1.1785,1.1643,1.1762,1.1999,1.1762,1.192,1.2451,1.2514,1.2514,1.2382,1.1532,1.0375,0.9343,0.858,0.8428,0.8575,0.88,0.888,0.8725,0.8654,0.8729,0.8794,0.8852,0.8919,0.8945,0.8991,0.8838,0.8394,0.8314,0.7912,0.7495,0.7174,0.673,2.5107,2.5309,2.4622,2.3846,2.3171,2.296,2.2888,2.2888,2.2888,2.2888,2.2888,2.2888,2.2888,2.2728,2.1736,2.1177,2.0857,1.987,1.9275,1.9072,1.8651,1.8462,1.839,1.7969,1.7635,1.74,1.7011,1.6576,1.6198,1.565,1.5433,1.561,1.5755,1.5899,1.5978,1.563,1.5428,1.5244,1.4417,1.3933,1.3736,1.3131,1.2678,1.253,1.2514,1.2514,1.2514,1.2514,1.2514,1.2514,1.2514,1.2252,1.1762,1.223,1.2189,1.1627,1.2126,1.2514,1.2514,1.2514,1.2514,1.2514,1.2514,1.2514,1.2514,1.2514,1.2514,1.2483,1.2514,1.2514,1.2514,1.2514,1.2514,1.2514,1.2514,1.2514,1.2514,1.2514,1.2514,1.2514,1.2514,1.2514,1.2499,1.2451,1.2435,1.2451,1.2467,1.2514,1.2514,1.2514,1.2514,1.2524,1.2636,1.1939,0.998,0.882,0.8682,0.8827,0.9077,0.8908,0.8846,0.8783,0.873,0.8823,0.898,0.906,0.906,0.9066,0.9066,0.8979,0.8878,0.8736,0.833,0.8579,0.8375,2.4681,2.484,2.4215,2.3934,2.3789,2.3171,2.2888,2.2888,2.2888,2.2888,2.2888,2.2888,2.2888,2.2844,2.2236,2.1598,2.0988,2.0306,1.9696,1.9188,1.9072,1.9058,1.9058,1.9014,1.8695,1.8172,1.7998,1.7359,1.6211,1.5632,1.5388,1.561,1.5784,1.5956,1.6108,1.6278,1.6072,1.5502,1.538,1.5153,1.4537,1.3826,1.3178,1.2688,1.2505,1.2514,1.2514,1.2514,1.2514,1.2514,1.2514,1.2473,1.2451,1.2483,1.2457,1.242,1.2467,1.2514,1.2514,1.2514,1.2514,1.2514,1.2514,1.2514,1.2514,1.2514,1.2514,1.2514,1.2514,1.2514,1.2514,1.2514,1.2514,1.2514,1.2514,1.2514,1.2514,1.2514,1.2514,1.2514,1.2514,1.2514,1.2514,1.2514,1.2514,1.2514,1.2514,1.2514,1.2514,1.2514,1.2514,1.2538,1.2639,1.2667,1.2162,1.0736,0.9553,0.96,0.9729,0.8951,0.888,0.8875,0.8858,0.8869,0.9002,0.9093,0.9087,0.9087,0.9087,0.906,0.9055,0.8916,0.8778,0.8961,0.8817,2.5298,2.5312,2.4755,2.4297,2.3833,2.3186,2.2888,2.2888,2.2888,2.2888,2.2888,2.2888,2.2888,2.2873,2.2678,2.2251,2.1569,2.0582,1.9957,1.9696,1.9304,1.9116,1.9116,1.9116,1.9014,1.8753,1.839,1.7502,1.6329,1.6042,1.5859,1.5654,1.5814,1.6012,1.6219,1.6355,1.6322,1.6137,1.582,1.5466,1.5213,1.4564,1.409,1.3826,1.2973,1.2514,1.2514,1.2514,1.2514,1.2514,1.2514,1.2514,1.2514,1.2514,1.2514,1.2514,1.2514,1.2514,1.2514,1.2514,1.2514,1.2514,1.2514,1.2514,1.2514,1.2514,1.2514,1.2514,1.2514,1.2514,1.2514,1.2514,1.2514,1.2514,1.2514,1.2514,1.2514,1.2514,1.2514,1.2514,1.2514,1.2514,1.2514,1.2514,1.2514,1.2514,1.2514,1.2514,1.2514,1.2514,1.2514,1.2544,1.2668,1.2839,1.2931,1.233,1.1577,1.1328,1.1063,1.0259,0.9902,0.9321,0.9179,0.8986,0.9088,0.9237,0.9294,0.9455,0.9386,0.9328,0.9311,0.9438,0.9087,0.9213,0.9178,2.603,2.5871,2.5177,2.4631,2.4138,2.3273,2.2888,2.2888,2.2888,2.2888,2.2888,2.2888,2.2888,2.2888,2.2888,2.2693,2.2207,2.1191,2.0494,2.0074,1.9638,1.9319,1.913,1.9116,1.9116,1.9014,1.8491,1.7708,1.6895,1.6509,1.6181,1.5951,1.5947,1.6038,1.6287,1.6396,1.6517,1.6489,1.6149,1.594,1.5833,1.526,1.4916,1.477,1.3789,1.3067,1.2846,1.2615,1.2514,1.2514,1.2514,1.2514,1.2514,1.2694,1.271,1.2536,1.2736,1.272,1.2536,1.2514,1.2514,1.2514,1.2514,1.2514,1.2514,1.2514,1.2514,1.2514,1.2514,1.2514,1.2514,1.2514,1.2514,1.2514,1.2514,1.2514,1.2514,1.2514,1.2514,1.2514,1.2514,1.2514,1.2578,1.2957,1.3099,1.2988,1.2726,1.253,1.2514,1.2514,1.2514,1.2534,1.2697,1.2878,1.3022,1.2773,1.2664,1.2495,1.2303,1.1526,1.0781,1.0111,0.9612,0.9318,0.9259,0.9432,0.9605,0.9801,0.9818,0.976,1.0043,1.0302,0.987,0.9403,0.9386,2.6779,2.6562,2.5346,2.481,2.4631,2.3447,2.2888,2.2888,2.2888,2.2888,2.2888,2.2888,2.2888,2.2888,2.2888,2.2859,2.2685,2.2142,2.1322,2.0349,2.0103,1.9711,1.9217,1.913,1.9116,1.9087,1.8521,1.8201,1.7969,1.6984,1.6487,1.65,1.6216,1.6158,1.6301,1.6463,1.6583,1.6581,1.6515,1.6531,1.6515,1.5927,1.5608,1.5545,1.4932,1.4284,1.3589,1.2883,1.2546,1.2552,1.253,1.2514,1.2593,1.3004,1.3194,1.2962,1.3199,1.3083,1.2609,1.2514,1.2514,1.2514,1.2514,1.2514,1.2514,1.2514,1.2514,1.2514,1.2514,1.2514,1.253,1.2805,1.2783,1.2514,1.2514,1.2514,1.2514,1.2609,1.253,1.2568,1.2583,1.251,1.2773,1.3621,1.4216,1.3873,1.3226,1.2751,1.2783,1.2688,1.2514,1.288,1.3475,1.4053,1.3648,1.3252,1.3354,1.3386,1.3209,1.276,1.2036,1.1365,1.0972,1.0673,1.0532,1.0687,1.1108,1.1211,1.0889,1.0855,1.108,1.1034,1.0665,1.0198,0.9743,2.6794,2.6634,2.5361,2.4839,2.4718,2.3476,2.2888,2.2888,2.2888,2.2888,2.2888,2.2888,2.2888,2.2888,2.2888,2.2888,2.2873,2.2678,2.2171,2.1351,2.0509,2.0001,1.9725,1.9319,1.9116,1.9087,1.8927,1.8593,1.8201,1.7789,1.734,1.6707,1.6593,1.6451,1.6318,1.6425,1.6506,1.6596,1.6594,1.6594,1.6594,1.6404,1.6291,1.6262,1.6085,1.5659,1.4916,1.3384,1.2773,1.3173,1.2751,1.2514,1.2552,1.2694,1.3583,1.4908,1.3641,1.2741,1.2568,1.2514,1.2514,1.2514,1.2514,1.2514,1.2514,1.2609,1.2593,1.2546,1.2514,1.2514,1.2773,1.4293,1.4415,1.271,1.2514,1.2657,1.2931,1.4147,1.4241,1.2941,1.3057,1.3152,1.3026,1.4,1.5007,1.4865,1.4106,1.3605,1.3763,1.3247,1.3637,1.5103,1.5479,1.5301,1.464,1.3964,1.3642,1.3793,1.3776,1.3479,1.2868,1.2538,1.2192,1.1992,1.1865,1.1947,1.2379,1.2334,1.1902,1.1574,1.1494,1.1425,1.1339,1.1097,1.078,2.6794,2.6634,2.5346,2.4824,2.4718,2.3461,2.2888,2.2888,2.2888,2.2888,2.2888,2.2888,2.2888,2.2888,2.2888,2.2888,2.2888,2.2888,2.2577,2.1917,2.0959,2.0233,1.9783,1.9319,1.9116,1.9116,1.9101,1.8912,1.855,1.8313,1.7907,1.7369,1.7142,1.691,1.6594,1.6659,1.6706,1.6591,1.6567,1.6594,1.6594,1.6594,1.6594,1.6594,1.6594,1.6389,1.5908,1.4668,1.3973,1.3873,1.3468,1.3073,1.2641,1.3168,1.4478,1.5725,1.5078,1.3689,1.2726,1.2514,1.2514,1.2514,1.2514,1.3083,1.3689,1.4036,1.3768,1.2678,1.351,1.4036,1.4352,1.5425,1.5678,1.4304,1.4131,1.402,1.4277,1.5492,1.5855,1.4589,1.432,1.4237,1.4458,1.481,1.5769,1.569,1.5295,1.4964,1.5122,1.4652,1.5711,1.6669,1.7071,1.654,1.5568,1.4796,1.4008,1.4066,1.4211,1.3791,1.3263,1.3227,1.3024,1.2988,1.2897,1.2793,1.3121,1.2862,1.2507,1.2231,1.2075,1.2334,1.249,1.2421,1.2206,2.6794,2.662,2.539,2.4868,2.4679,2.3534,2.2975,2.2888,2.2888,2.2888,2.2888,2.2888,2.2888,2.2888,2.2888,2.2888,2.2888,2.2888,2.2591,2.2004,2.1293,2.0465,1.9319,1.913,1.9116,1.9116,1.9116,1.9087,1.897,1.8564,1.8269,1.8194,1.7735,1.7381,1.7106,1.7194,1.6968,1.6682,1.6606,1.6583,1.661,1.6594,1.6594,1.6594,1.6594,1.6578,1.6467,1.6246,1.571,1.4774,1.4442,1.3952,1.3341,1.4422,1.5564,1.6499,1.6546,1.5125,1.3373,1.2925,1.2957,1.3162,1.3278,1.372,1.576,1.5978,1.5299,1.3578,1.4987,1.6325,1.631,1.6515,1.6467,1.6546,1.612,1.6155,1.6483,1.6533,1.631,1.6262,1.5883,1.5596,1.612,1.6389,1.6467,1.6483,1.6373,1.6294,1.6278,1.6117,1.6731,1.7333,1.7805,1.7657,1.6666,1.6199,1.5439,1.4942,1.5038,1.4676,1.3798,1.3583,1.3598,1.3597,1.3605,1.3605,1.3536,1.3242,1.3173,1.307,1.319,1.3536,1.3484,1.3225,1.3156,2.6794,2.6692,2.5879,2.527,2.4737,2.3949,2.3331,2.2954,2.2888,2.2888,2.2888,2.2888,2.2888,2.2888,2.2888,2.2888,2.2888,2.2888,2.2562,2.2048,2.1859,2.0712,1.9406,1.9116,1.9116,1.9116,1.9116,1.9116,1.9087,1.8869,1.8615,1.8255,1.8112,1.7806,1.7441,1.7136,1.7013,1.6999,1.6643,1.6532,1.6596,1.6594,1.6594,1.6594,1.6594,1.6594,1.6594,1.6594,1.5962,1.4742,1.4584,1.4979,1.5299,1.539,1.5754,1.6373,1.6038,1.5769,1.5378,1.4569,1.4494,1.541,1.5224,1.5823,1.6436,1.661,1.6231,1.5631,1.6341,1.6594,1.6594,1.6594,1.6594,1.6594,1.6594,1.6594,1.6594,1.6594,1.6594,1.6562,1.6341,1.6389,1.6483,1.6594,1.6594,1.6594,1.6594,1.6594,1.6594,1.662,1.6805,1.7386,1.7822,1.8044,1.7907,1.7483,1.6905,1.6155,1.5994,1.5934,1.4736,1.3589,1.3597,1.3605,1.3605,1.3605,1.3639,1.3518,1.3622,1.389,1.3873,1.3977,1.3743,1.3501,1.3518,2.6794,2.6721,2.6094,2.5575,2.5139,2.4307,2.3688,2.3302,2.3026,2.2888,2.2888,2.2888,2.2888,2.2888,2.2888,2.2888,2.2888,2.2888,2.2562,2.2033,2.1685,2.077,1.9725,1.9304,1.9116,1.9116,1.9116,1.8941,1.8753,1.8738,1.8375,1.794,1.8109,1.7998,1.7583,1.7703,1.7501,1.7313,1.7019,1.6889,1.6641,1.6594,1.6594,1.6594,1.6594,1.6594,1.6594,1.6594,1.6199,1.5599,1.5489,1.5804,1.6436,1.6152,1.6101,1.6565,1.6104,1.6133,1.6341,1.5836,1.5836,1.6404,1.6594,1.7288,1.7952,1.7888,1.7413,1.6625,1.6625,1.6594,1.6594,1.6594,1.6594,1.6594,1.6594,1.661,1.661,1.6594,1.6594,1.6594,1.6594,1.6594,1.6594,1.6594,1.6594,1.6594,1.6594,1.6594,1.6594,1.662,1.6776,1.7333,1.7788,1.8022,1.8168,1.788,1.7725,1.7087,1.6639,1.6683,1.5434,1.3959,1.3787,1.3787,1.3691,1.3829,1.427,1.4511,1.4512,1.465,1.4495,1.4486,1.4451,1.4218,1.4184,2.6794,2.6762,2.6166,2.585,2.5614,2.4612,2.4138,2.3891,2.3461,2.3157,2.3084,2.3041,2.3026,2.2888,2.2888,2.2888,2.2888,2.2888,2.262,2.212,2.1583,2.0886,2.0422,1.9624,1.9362,1.929,1.9174,1.8767,1.8448,1.8274,1.7867,1.7548,1.7838,1.7966,1.7881,1.8338,1.8249,1.7821,1.7732,1.7501,1.7164,1.7067,1.7036,1.6846,1.6641,1.661,1.6594,1.6594,1.6515,1.6578,1.6594,1.6531,1.661,1.6596,1.6641,1.6675,1.6675,1.6752,1.6625,1.6499,1.6499,1.6641,1.6941,1.7983,1.9609,1.9009,1.762,1.6659,1.661,1.6862,1.7336,1.702,1.6594,1.672,1.6783,1.7115,1.6973,1.6783,1.6594,1.6594,1.6594,1.6594,1.6594,1.6594,1.6594,1.6594,1.6594,1.6594,1.6594,1.6607,1.6857,1.7277,1.7674,1.7989,1.8115,1.8155,1.8103,1.7855,1.7321,1.6925,1.5796,1.4684,1.427,1.4244,1.5176,1.571,1.596,1.6011,1.5675,1.5399,1.5244,1.552,1.5726,1.5347,1.5184,2.6794,2.6779,2.666,2.6297,2.5778,2.5487,2.5081,2.4592,2.4515,2.4109,2.3775,2.3673,2.3374,2.2917,2.2917,2.2888,2.2888,2.2888,2.2786,2.2678,2.2077,2.1757,2.1322,2.0465,1.9914,1.9754,1.9333,1.8796,1.8346,1.8143,1.7867,1.7359,1.7512,1.7795,1.8331,1.8323,1.8477,1.8686,1.8546,1.8321,1.822,1.8109,1.7888,1.7494,1.6988,1.6673,1.661,1.6594,1.6594,1.661,1.6657,1.6752,1.6707,1.7117,1.7257,1.7115,1.7352,1.7352,1.6801,1.6736,1.6657,1.7004,1.8567,2.0131,2.0352,1.8457,1.7146,1.661,1.6641,1.7462,1.9088,1.7762,1.7131,1.7288,1.8519,1.9672,1.9499,1.7936,1.6862,1.661,1.6641,1.661,1.661,1.6594,1.6594,1.6594,1.661,1.661,1.6594,1.6594,1.6818,1.7141,1.7406,1.7721,1.8022,1.8108,1.819,1.82,1.7821,1.7528,1.64,1.5668,1.5331,1.6072,1.7287,1.7528,1.7201,1.689,1.6442,1.6226,1.6044,1.6226,1.6329,1.6174,1.6165,2.6794,2.6794,2.6794,2.6602,2.6253,2.5948,2.5589,2.5255,2.494,2.4689,2.4341,2.4065,2.3688,2.3331,2.3033,2.2888,2.2888,2.2888,2.2888,2.2815,2.2533,2.2417,2.228,2.1452,2.0756,2.019,1.9783,1.9116,1.8433,1.8158,1.7867,1.7316,1.7544,1.8099,1.8681,1.8782,1.903,1.9136,1.9186,1.909,1.9025,1.8803,1.8583,1.822,1.7794,1.7588,1.762,1.762,1.7478,1.7367,1.7431,1.7225,1.6817,1.7336,1.7858,1.8567,1.7967,1.8456,1.8266,1.7462,1.718,1.8425,2.0067,1.9641,1.9135,1.7304,1.6783,1.6594,1.6831,1.7713,2.0289,1.9815,1.8646,1.8773,1.983,2.0763,2.0462,1.8898,1.7241,1.6941,1.6912,1.6846,1.6783,1.672,1.7225,1.7492,1.6752,1.6688,1.6594,1.6594,1.6649,1.6869,1.7117,1.7432,1.7822,1.8027,1.819,1.82,1.8097,1.7976,1.7511,1.6952,1.6503,1.7331,1.8028,1.808,1.7787,1.7476,1.7304,1.7277,1.7156,1.7028,1.7011,1.7139,1.7225,2.6794,2.6794,2.6794,2.6779,2.6692,2.6184,2.5992,2.585,2.5346,2.5212,2.4936,2.4423,2.4196,2.3789,2.3331,2.3033,2.2902,2.2888,2.2888,2.2859,2.283,2.2772,2.2664,2.2214,2.1525,2.048,2.0277,1.958,1.8676,1.827,1.7998,1.7464,1.7782,1.8271,1.8828,1.9461,1.9731,1.9591,1.9798,1.9862,1.9688,1.9341,1.912,1.8852,1.8598,1.8504,1.8473,1.8488,1.844,1.8171,1.8487,1.8015,1.7478,1.7683,1.8725,2.0541,1.9325,1.9293,1.9751,1.8835,1.8473,2.0715,2.0146,1.9072,1.7288,1.6783,1.6641,1.6594,1.6815,1.7731,2.0336,2.0478,2.0541,2.0636,2.0715,2.081,2.0605,1.9704,1.8615,1.7841,1.7683,1.7525,1.7146,1.6973,1.7729,1.8187,1.7399,1.6846,1.6799,1.6594,1.6636,1.6714,1.6968,1.7349,1.7755,1.8055,1.8179,1.839,1.8355,1.8304,1.8286,1.7804,1.7383,1.77,1.8166,1.82,1.82,1.7942,1.7924,1.8183,1.8062,1.7683,1.7821,1.8148,1.8062,2.6794,2.6794,2.6794,2.6794,2.6765,2.6689,2.6602,2.6631,2.6442,2.6126,2.5647,2.5487,2.4791,2.4123,2.3818,2.3455,2.3012,2.2888,2.2888,2.2888,2.2888,2.2888,2.283,2.2736,2.228,2.1714,2.1177,2.0277,1.929,1.8898,1.8462,1.7568,1.7614,1.8149,1.8889,1.934,1.9927,2.0253,2.0446,2.0478,2.0415,2.0304,2.002,1.9625,1.9183,1.8945,1.8835,1.8757,1.8662,1.8599,1.8677,1.8583,1.8536,1.904,1.9846,2.0415,2.04,2.0241,2.0083,2.0162,2.0131,2.0225,1.8866,1.7604,1.6752,1.6657,1.6783,1.6988,1.7115,1.7888,2.0478,2.081,2.081,2.081,2.081,2.081,2.0731,2.0462,2.0162,1.9562,1.893,1.8173,1.7699,1.7571,1.8234,1.8677,1.8313,1.7778,1.7573,1.7083,1.6607,1.6712,1.6853,1.7276,1.7721,1.8011,1.8252,1.8648,1.87,1.8597,1.851,1.8269,1.82,1.82,1.82,1.82,1.82,1.82,1.82,1.82,1.82,1.82,1.82,1.82,1.82,2.6794,2.6806,2.6873,2.6899,2.691,2.6989,2.6963,2.6925,2.6884,2.6683,2.6323,2.5963,2.5487,2.482,2.4118,2.3557,2.307,2.2888,2.2888,2.2888,2.2888,2.2888,2.2888,2.2888,2.2751,2.2432,2.2055,2.1272,2.0141,1.974,1.9261,1.8877,1.8566,1.8772,1.9297,1.9655,2.01,2.0679,2.0794,2.0794,2.081,2.081,2.0573,2.0304,1.9988,1.9815,1.9783,1.9799,1.9815,1.9815,1.9815,1.9799,1.9878,2.0067,2.0447,2.0731,2.0811,2.0052,1.9009,1.8615,1.8503,1.8409,1.7352,1.6704,1.6594,1.6688,1.7288,1.8362,1.8787,1.9277,2.0699,2.0794,2.081,2.081,2.081,2.081,2.081,2.081,2.081,2.0731,1.9751,1.8819,1.8187,1.8298,1.8835,1.9024,1.9024,1.8803,1.8457,1.7825,1.7207,1.7574,1.7854,1.8128,1.8346,1.8267,1.8976,1.9372,1.9355,1.9252,1.8786,1.8579,1.8338,1.82,1.82,1.82,1.82,1.82,1.82,1.82,1.82,1.82,1.82,1.82,1.82,2.6806,2.6846,2.6951,2.7003,2.7055,2.7144,2.7119,2.7029,2.7003,2.691,2.6733,2.6257,2.5937,2.5473,2.4515,2.3601,2.3099,2.3026,2.2888,2.2888,2.2888,2.2888,2.2888,2.2888,2.2844,2.2786,2.2743,2.2316,2.1278,2.0756,2.0407,1.988,1.9549,1.9509,1.9699,1.9821,2.0309,2.0629,2.0729,2.0745,2.0794,2.081,2.081,2.081,2.081,2.0715,2.0636,2.062,2.0636,2.0652,2.0699,2.0747,2.0778,2.0794,2.081,2.081,2.081,1.9467,1.8409,1.7825,1.8345,1.8392,1.8345,1.8361,1.8266,1.874,1.8487,2.0304,2.07,2.0558,2.0763,2.081,2.081,2.081,2.081,2.081,2.081,2.081,2.081,2.0526,1.9973,1.9609,1.9119,1.9151,1.972,1.9846,1.9862,1.9909,1.953,1.8851,1.8461,1.886,1.9151,1.9316,1.9231,1.8717,1.9682,2.0808,2.0665,2.0458,1.9648,1.8907,1.8924,1.9217,1.82,1.82,1.82,1.8235,1.82,1.82,1.82,1.82,1.82,1.82,1.82,2.6858,2.6977,2.6989,2.7067,2.7181,2.7207,2.7144,2.7003,2.7029,2.6925,2.6779,2.6675,2.6312,2.5643,2.4568,2.3958,2.3615,2.3244,2.296,2.2902,2.2888,2.2888,2.2888,2.2888,2.2888,2.2888,2.2888,2.2519,2.1946,2.1714,2.1133,2.0413,2.0186,1.9994,1.9897,2.0119,2.0156,2.0677,2.0675,2.0644,2.0778,2.081,2.081,2.081,2.081,2.081,2.0826,2.0857,2.0889,2.081,2.0842,2.0842,2.081,2.081,2.081,2.081,2.0763,2.0652,2.0131,2.0194,2.032,2.0732,2.2028,2.3581,2.2392,2.119,2.0557,2.0557,2.0826,2.081,2.081,2.081,2.081,2.081,2.081,2.081,2.081,2.081,2.081,2.0778,2.0368,2.0462,2.0289,2.0431,2.0589,2.0636,2.07,2.0684,2.0591,1.9891,1.9871,2.0323,2.0532,2.0696,2.0551,1.9973,2.041,2.1893,2.1768,2.1475,2.0837,2.0268,2.0854,2.0768,1.9596,1.8838,1.9148,1.9045,1.8476,1.8269,1.8373,1.8304,1.82,1.82,1.8217,2.7067,2.7119,2.7196,2.7248,2.731,2.7412,2.731,2.713,2.7119,2.6989,2.6806,2.6779,2.6442,2.5774,2.5149,2.4559,2.3978,2.3586,2.3229,2.2946,2.2902,2.2888,2.2888,2.2888,2.2888,2.2888,2.2873,2.283,2.2461,2.2135,2.1612,2.122,2.0831,2.0724,2.0525,2.0896,2.1299,2.1532,2.141,2.1088,2.0904,2.0826,2.0826,2.0826,2.0842,2.0858,2.0936,2.1252,2.1142,2.1094,2.141,2.1554,2.1269,2.1554,2.2266,2.3233,2.323,2.2471,2.1222,2.2313,2.2772,2.3199,2.41,2.3973,2.3214,2.2977,2.2961,2.3214,2.1665,2.0936,2.081,2.081,2.081,2.081,2.081,2.081,2.081,2.081,2.081,2.081,2.081,2.081,2.081,2.0763,2.0715,2.0731,2.0747,2.0763,2.0959,2.0954,2.1246,2.191,2.2024,2.2089,2.1884,2.1511,2.1454,2.2371,2.2388,2.2147,2.2026,2.1957,2.213,2.225,2.1544,2.0923,2.0527,1.9665,1.8907,1.87,1.8579,1.8562,1.8528,1.8269,1.8269,2.7295,2.7295,2.7361,2.7412,2.7463,2.7549,2.7473,2.7258,2.7207,2.7052,2.6884,2.6806,2.6515,2.6054,2.5818,2.5236,2.4437,2.4074,2.363,2.3258,2.2975,2.2888,2.2888,2.2888,2.2888,2.2888,2.2888,2.2859,2.2743,2.249,2.2207,2.2004,2.1516,2.1345,2.1525,2.1682,2.1969,2.226,2.2137,2.1834,2.1505,2.141,2.1412,2.1333,2.1206,2.1159,2.138,2.157,2.1505,2.1568,2.2171,2.2123,2.1238,2.1997,2.3278,2.4246,2.4559,2.3961,2.3009,2.3325,2.4515,2.4894,2.4748,2.3958,2.1696,2.2946,2.3879,2.323,2.2013,2.0968,2.081,2.081,2.081,2.081,2.081,2.081,2.081,2.081,2.0892,2.0974,2.0942,2.081,2.081,2.081,2.0794,2.0794,2.081,2.081,2.1039,2.1324,2.1721,2.2192,2.2426,2.2483,2.2512,2.246,2.2651,2.2712,2.2712,2.266,2.2423,2.2423,2.2509,2.2643,2.2712,2.2384,2.1595,2.0441,1.9418,1.9596,1.9631,1.9148,1.8907,1.8666,1.839,2.7575,2.7575,2.7452,2.7463,2.7575,2.76,2.7524,2.7361,2.7273,2.7144,2.7003,2.6858,2.6788,2.6588,2.6163,2.5828,2.5556,2.4437,2.3978,2.3606,2.3244,2.2989,2.2917,2.2888,2.2888,2.2888,2.2888,2.2888,2.2873,2.2772,2.2417,2.2048,2.2025,2.1798,2.1893,2.2224,2.2474,2.2736,2.2757,2.2738,2.2582,2.255,2.2566,2.2487,2.2169,2.2074,2.2645,2.236,2.2092,2.2058,2.2803,2.2787,2.206,2.2645,2.391,2.4669,2.4985,2.4594,2.4321,2.3752,2.385,2.4594,2.4479,2.3404,2.1238,2.0874,2.1222,2.157,2.1095,2.0921,2.081,2.081,2.081,2.081,2.081,2.081,2.081,2.081,2.0893,2.1103,2.1103,2.0958,2.0843,2.0843,2.0876,2.0876,2.0826,2.081,2.0892,2.1135,2.1479,2.1869,2.2276,2.2467,2.2659,2.2699,2.2699,2.2712,2.2712,2.2712,2.2643,2.2712,2.2712,2.2712,2.2712,2.2712,2.266,2.1677,2.0992,2.0906,2.063,1.9906,1.9682,1.9631,1.9131,2.7585,2.76,2.7539,2.7549,2.7585,2.7585,2.7539,2.7427,2.7335,2.7233,2.7119,2.7093,2.7052,2.6938,2.6718,2.6283,2.5904,2.5421,2.467,2.4022,2.3615,2.3287,2.3076,2.2946,2.2888,2.2917,2.2925,2.2649,2.2359,2.2867,2.2519,2.2287,2.2498,2.2702,2.281,2.3041,2.3358,2.3349,2.3409,2.3354,2.2914,2.2898,2.2898,2.2851,2.2756,2.2629,2.2866,2.3085,2.293,2.2993,2.3641,2.3499,2.3246,2.3815,2.4305,2.491,2.4989,2.5005,2.5005,2.4464,2.4546,2.4242,2.3483,2.2028,2.0969,2.0826,2.081,2.0857,2.0985,2.1206,2.0889,2.0842,2.081,2.081,2.0936,2.1095,2.1206,2.1412,2.1918,2.2539,2.1779,2.1135,2.099,2.0876,2.0909,2.0957,2.0876,2.0826,2.0909,2.0974,2.1308,2.154,2.1915,2.2287,2.2497,2.2592,2.2699,2.2699,2.2699,2.2712,2.2712,2.2712,2.2712,2.2712,2.2712,2.2712,2.2712,2.2712,2.2319,2.1699,2.1044,2.036,2.0325,2.0561,2.0199,2.7585,2.7585,2.7585,2.7585,2.7585,2.7585,2.7549,2.7463,2.7412,2.7325,2.7207,2.7192,2.7192,2.7155,2.7089,2.681,2.6345,2.5904,2.5276,2.4742,2.4283,2.3896,2.3548,2.3331,2.3287,2.32,2.3186,2.2983,2.2817,2.3229,2.3302,2.3223,2.3035,2.3303,2.3478,2.4099,2.4356,2.4175,2.4137,2.4049,2.3578,2.3594,2.3594,2.3546,2.3404,2.3436,2.3544,2.3733,2.3717,2.3894,2.4337,2.4843,2.4922,2.4985,2.5005,2.5005,2.5005,2.5005,2.5005,2.5005,2.4559,2.3341,2.2171,2.1364,2.1253,2.1142,2.0969,2.187,2.1949,2.1997,2.1965,2.2376,2.2503,2.2772,2.2724,2.2803,2.274,2.2887,2.3515,2.4088,2.3254,2.2698,2.2424,2.2404,2.202,2.1762,2.1038,2.099,2.099,2.1038,2.1135,2.134,2.151,2.1899,2.2257,2.2467,2.2646,2.2659,2.2672,2.2699,2.2712,2.2712,2.2712,2.2712,2.2712,2.2712,2.2712,2.2712,2.2457,2.2078,2.1578,2.1182,2.1371,2.1595,2.1497,2.7585,2.7585,2.7585,2.7585,2.7585,2.7585,2.76,2.7549,2.7478,2.7335,2.7258,2.7244,2.7218,2.7233,2.7222,2.7082,2.6832,2.6341,2.5856,2.5544,2.5082,2.4805,2.451,2.42,2.397,2.39,2.3885,2.3865,2.3711,2.4181,2.4442,2.4273,2.3891,2.3712,2.3539,2.4135,2.4487,2.4599,2.4772,2.4741,2.472,2.4657,2.4625,2.4495,2.416,2.4128,2.4385,2.4223,2.4255,2.4622,2.4732,2.5005,2.5005,2.5005,2.5005,2.5005,2.5005,2.5005,2.5005,2.5005,2.3989,2.2566,2.2013,2.2028,2.236,2.2076,2.1823,2.3104,2.3847,2.4385,2.4653,2.4638,2.4416,2.4274,2.4147,2.4084,2.3958,2.3945,2.4489,2.4971,2.5177,2.51,2.4637,2.4186,2.3553,2.2802,2.1617,2.1167,2.1199,2.1231,2.1309,2.1324,2.1464,2.1706,2.2101,2.2395,2.2575,2.2636,2.2689,2.2751,2.2738,2.2712,2.2712,2.2712,2.2712,2.2712,2.2712,2.2712,2.2492,2.2354,2.2492,2.2337,2.2509,2.2457,2.2233,2.7585,2.7585,2.7585,2.7585,2.7585,2.7585,2.7585,2.7585,2.7549,2.7514,2.7473,2.7473,2.7473,2.7423,2.7361,2.7299,2.7174,2.7012,2.6637,2.6069,2.581,2.5468,2.5189,2.4974,2.4807,2.4807,2.4731,2.4425,2.4002,2.4762,2.4544,2.4268,2.4457,2.4078,2.3725,2.3952,2.4302,2.4508,2.4731,2.4871,2.5001,2.5033,2.5017,2.5033,2.4732,2.4717,2.4974,2.4622,2.4748,2.4954,2.4985,2.5005,2.5005,2.5005,2.5005,2.5005,2.5005,2.5005,2.5005,2.4958,2.4689,2.3736,2.3404,2.3531,2.41,2.3926,2.4084,2.4385,2.5033,2.527,2.4906,2.4894,2.4748,2.4764,2.4717,2.4732,2.4705,2.4736,2.5029,2.5487,2.5781,2.5726,2.5435,2.5142,2.4639,2.395,2.2834,2.1907,2.1728,2.164,2.1648,2.1541,2.1587,2.169,2.1959,2.2697,2.3027,2.3108,2.3028,2.2893,2.2855,2.2751,2.2738,2.2751,2.2725,2.2712,2.2712,2.2712,2.2712,2.2694,2.2712,2.2712,2.2647,2.2612,2.2578,2.7585,2.7585,2.7585,2.7585,2.7585,2.7585,2.7585,2.7585,2.7585,2.7585,2.7585,2.7585,2.7585,2.7575,2.7539,2.7427,2.7401,2.7295,2.7119,2.6587,2.6533,2.6326,2.6046,2.5702,2.5565,2.5589,2.5497,2.5233,2.4941,2.534,2.5261,2.4989,2.4897,2.464,2.4315,2.4403,2.4756,2.5041,2.5323,2.5582,2.5612,2.5521,2.5397,2.5302,2.5144,2.5005,2.4985,2.4985,2.5005,2.5005,2.5005,2.5005,2.5005,2.5005,2.5005,2.5005,2.5005,2.5005,2.5005,2.5005,2.4863,2.4748,2.5005,2.5254,2.5381,2.5049,2.5049,2.5318,2.5808,2.5539,2.5223,2.5191,2.5005,2.5005,2.5025,2.5025,2.5045,2.5045,2.524,2.5731,2.6043,2.6023,2.597,2.5892,2.5582,2.4858,2.4083,2.3259,2.2437,2.2301,2.2473,2.2641,2.2947,2.3521,2.3526,2.3405,2.3646,2.3621,2.3676,2.375,2.2932,2.2829,2.2816,2.279,2.2751,2.2725,2.2712,2.2712,2.2712,2.2712,2.2712,2.2712,2.2712,2.2712,2.2712,2.7585,2.7585,2.7585,2.7585,2.7585,2.7585,2.7585,2.7585,2.7585,2.7585,2.7585,2.7585,2.7585,2.7585,2.76,2.7539,2.7452,2.7412,2.7316,2.721,2.7107,2.7077,2.6889,2.6564,2.6382,2.6288,2.6223,2.6198,2.6078,2.6334,2.6239,2.589,2.5778,2.5465,2.5233,2.528,2.5463,2.553,2.5807,2.6094,2.619,2.6167,2.6046,2.5914,2.5634,2.5302,2.5191,2.508,2.5017,2.5005,2.5005,2.5021,2.5021,2.5005,2.5005,2.5005,2.5005,2.5005,2.5005,2.5005,2.5005,2.5005,2.5005,2.5776,2.6309,2.6171,2.6187,2.6314,2.6609,2.6092,2.565,2.5338,2.5025,2.506,2.51,2.51,2.5119,2.5201,2.5413,2.5731,2.6025,2.6096,2.6025,2.5994,2.6015,2.5717,2.5107,2.4844,2.405,2.3274,2.36,2.4443,2.4917,2.5777,2.5577,2.4797,2.4519,2.459,2.5087,2.5121,2.4077,2.3071,2.2932,2.2893,2.2803,2.2764,2.2777,2.2751,2.2738,2.2738,2.2764,2.2725,2.2725,2.2712,2.2712,2.7585,2.7585,2.7585,2.7585,2.7585,2.7585,2.7585,2.7585,2.7585,2.7585,2.7585,2.7585,2.7585,2.7585,2.7585,2.7575,2.7549,2.7524,2.7509,2.7473,2.7448,2.7473,2.7384,2.7225,2.7175,2.711,2.7075,2.6929,2.6923,2.7133,2.6922,2.6544,2.6428,2.6242,2.6236,2.6327,2.5992,2.5872,2.616,2.6458,2.6667,2.6645,2.6633,2.6546,2.6162,2.5866,2.5713,2.5207,2.5065,2.5053,2.5021,2.5025,2.5158,2.5064,2.5005,2.5005,2.5005,2.5005,2.5005,2.5001,2.5144,2.5302,2.5238,2.5792,2.6672,2.7342,2.7247,2.7089,2.6535,2.5713,2.5527,2.5322,2.5128,2.5158,2.5256,2.5429,2.5429,2.5486,2.5675,2.5824,2.6114,2.6168,2.6079,2.6097,2.61,2.6133,2.6052,2.5805,2.5474,2.4679,2.4464,2.5313,2.583,2.639,2.6563,2.5989,2.5724,2.5628,2.6111,2.6195,2.525,2.427,2.343,2.3008,2.2919,2.2881,2.2868,2.2829,2.2803,2.2812,2.2838,2.279,2.2738,2.2725,2.2712,2.7585,2.7585,2.7585,2.7585,2.7585,2.7585,2.7585,2.7585,2.7585,2.7585,2.7585,2.7585,2.7585,2.7585,2.7585,2.7585,2.7585,2.7575,2.756,2.756,2.7585,2.756,2.7585,2.7585,2.7515,2.7549,2.7539,2.7348,2.735,2.7144,2.6922,2.6855,2.6832,2.6806,2.6747,2.6657,2.6524,2.6361,2.6452,2.6728,2.6949,2.71,2.7208,2.7237,2.6829,2.6493,2.6345,2.567,2.5258,2.5254,2.5238,2.5045,2.5258,2.533,2.5341,2.544,2.5803,2.5488,2.5274,2.5697,2.6045,2.6419,2.6519,2.6925,2.7482,2.814,2.7561,2.7036,2.5939,2.5132,2.5243,2.5326,2.5286,2.5275,2.5543,2.5805,2.5824,2.5824,2.5914,2.6005,2.6096,2.6168,2.6185,2.6185,2.6185,2.6185,2.6185,2.6086,2.5987,2.5689,2.5458,2.5843,2.6218,2.6589,2.6693,2.6803,2.6613,2.6493,2.6906,2.6798,2.6107,2.5511,2.4743,2.3841,2.3033,2.3082,2.3214,2.2954,2.2863,2.2989,2.3106,2.2989,2.289,2.2738,2.2725,2.7585,2.7585,2.7585,2.7585,2.7585,2.7585,2.7585,2.7585,2.7585,2.7585,2.7585,2.7585,2.7585,2.7585,2.7585,2.7585,2.7585,2.7585,2.7585,2.7585,2.7585,2.7585,2.7585,2.7585,2.7585,2.7585,2.7575,2.7473,2.7361,2.7196,2.7067,2.6989,2.6937,2.6884,2.6884,2.6884,2.6854,2.6916,2.7105,2.7444,2.7643,2.7687,2.7658,2.7731,2.7337,2.6862,2.6857,2.6355,2.5559,2.5753,2.548,2.5092,2.5376,2.6014,2.6053,2.633,2.6835,2.6581,2.626,2.6519,2.751,2.8261,2.9051,2.8377,2.8308,2.7844,2.7072,2.6804,2.5909,2.5465,2.5481,2.5401,2.5342,2.5448,2.5675,2.5915,2.6007,2.6007,2.6059,2.6132,2.6132,2.6185,2.6185,2.6185,2.6185,2.6185,2.6185,2.6185,2.6185,2.6185,2.6185,2.6185,2.6313,2.6505,2.6674,2.6817,2.7156,2.7328,2.7532,2.7563,2.6981,2.6507,2.6068,2.4725,2.3368,2.352,2.3595,2.3567,2.3632,2.3615,2.3615,2.3328,2.3159,2.3176,2.2859,2.7585,2.7585,2.7585,2.7585,2.7585,2.7585,2.7585,2.7585,2.7585,2.7585,2.7585,2.7585,2.7585,2.7585,2.7585,2.7585,2.7585,2.7585,2.7585,2.7585,2.7585,2.7585,2.7585,2.7585,2.7585,2.7585,2.7575,2.7419,2.7204,2.7176,2.7203,2.7126,2.7019,2.6949,2.7052,2.7052,2.7144,2.7299,2.7575,2.786,2.807,2.8449,2.8637,2.8705,2.8462,2.818,2.823,2.8381,2.7652,2.7221,2.5699,2.5309,2.5499,2.6715,2.7805,2.8509,2.7996,2.7737,2.7719,2.7591,2.8012,2.8686,2.9078,2.8651,2.8031,2.7062,2.6543,2.6486,2.6352,2.605,2.5747,2.5621,2.5561,2.5735,2.6066,2.6253,2.6417,2.6417,2.6401,2.6185,2.6185,2.6185,2.6185,2.6268,2.6185,2.6185,2.6185,2.6185,2.6185,2.6185,2.6185,2.6185,2.6185,2.6329,2.652,2.6708,2.6973,2.7293,2.7491,2.7597,2.7701,2.6753,2.577,2.4734,2.3791,2.437,2.4826,2.4813,2.4822,2.4497,2.441,2.4226,2.4309,2.4388,2.3676,2.7585,2.7585,2.7585,2.7585,2.7585,2.7585,2.7585,2.7585,2.7585,2.7585,2.7585,2.7585,2.7585,2.7585,2.7585,2.7585,2.7585,2.7585,2.7585,2.7585,2.7585,2.7585,2.7585,2.7585,2.7585,2.757,2.7225,2.7011,2.6897,2.6525,2.6436,2.6859,2.6908,2.7015,2.7163,2.7248,2.7339,2.7514,2.7825,2.8091,2.8374,2.8811,2.912,2.9273,2.9255,2.9138,2.9325,2.95,2.899,2.8167,2.6969,2.715,2.7478,2.8095,2.8825,2.9291,2.9205,2.8888,2.9006,2.8847,2.8506,2.9141,2.9441,2.92,2.9358,2.8534,2.7689,2.7611,2.7789,2.7559,2.6961,2.6708,2.6704,2.6806,2.7843,2.8576,2.8635,2.8619,2.7592,2.6185,2.6185,2.6185,2.6435,2.723,2.6998,2.6202,2.6202,2.6185,2.6185,2.6185,2.6185,2.6185,2.6185,2.6185,2.6328,2.6486,2.6691,2.7022,2.7371,2.7522,2.7504,2.6391,2.5349,2.5261,2.5472,2.6086,2.6402,2.6016,2.5507,2.5059,2.5111,2.5212,2.5366,2.5472,2.4944,2.7585,2.7585,2.7585,2.7585,2.7585,2.7585,2.7585,2.7585,2.7585,2.7585,2.7585,2.7585,2.7585,2.7585,2.7585,2.7585,2.7585,2.7585,2.7585,2.7585,2.7585,2.7585,2.7585,2.7585,2.7585,2.7375,2.7016,2.6767,2.6608,2.643,2.6545,2.6649,2.6821,2.6992,2.7318,2.7447,2.762,2.7845,2.8086,2.8317,2.8669,2.9051,2.9287,2.9454,2.956,2.9687,2.9892,2.9908,2.9657,2.9202,2.8509,2.8779,2.9007,2.9265,2.9445,2.981,2.9908,2.9783,2.9859,2.9635,2.9669,2.988,2.9962,3.0022,3.0154,2.9781,2.8948,2.8802,2.8974,2.8768,2.817,2.799,2.7984,2.778,2.9035,3.0224,3.0257,3.0257,2.8635,2.6798,2.6665,2.6665,2.733,2.8108,2.7793,2.693,2.6334,2.6219,2.6185,2.6185,2.6185,2.6185,2.6185,2.6203,2.622,2.631,2.6503,2.6775,2.7103,2.7371,2.741,2.6815,2.6648,2.7087,2.7417,2.7312,2.7087,2.6665,2.6156,2.577,2.6051,2.6279,2.6244,2.6297,2.6191,2.7585,2.7585,2.7585,2.7585,2.7585,2.7585,2.7585,2.7585,2.7585,2.7585,2.7585,2.7585,2.7585,2.7585,2.7585,2.7585,2.7585,2.7585,2.7585,2.7585,2.7585,2.7585,2.7645,2.7735,2.7615,2.739,2.721,2.723,2.7066,2.7116,2.7729,2.8599,2.8764,2.8827,2.8856,2.8775,2.8408,2.8535,2.8478,2.8662,2.8904,2.927,2.9515,2.9738,2.9957,3.0022,3.0167,3.0338,3.0213,3.0013,2.9791,2.992,3.0007,3.0051,3.0079,3.0138,3.0274,3.0274,3.0189,3.0081,3.0146,3.0253,3.0274,3.0316,3.0372,3.0356,2.9852,2.9811,2.9838,2.9569,2.9204,2.9502,2.9547,2.8524,2.885,2.986,3.0406,3.0406,2.9744,2.8834,2.8456,2.8734,2.9264,2.9678,2.9628,2.8635,2.7344,2.7145,2.6667,2.6468,2.6417,2.6219,2.6235,2.6185,2.6185,2.622,2.638,2.6623,2.6908,2.7246,2.7507,2.7672,2.7716,2.7716,2.7716,2.7593,2.735,2.7139,2.7174,2.6929,2.7192,2.7368,2.7227,2.7069,2.6894]}]]